[[{"header":{"parameterUnit":"m.s-1","parameterCategory":1,"la1":31.0,"la2":29.5877,"lo1":-88.7671,"lo2":-86.6584,"dy":0.0162,"dx":0.0185,"nx":115,"ny":88,"refTime":"2024-04-18T06:00:00:Z","depth":0,"parameterNumber":2,"parameterNumberName":"U-component_of_WINDS"},"data":[0.0,0.0,0.0,0.0,0.0,0.0,0.0,0.0,0.0,0.0,0.0,0.0,0.0,0.0,0.0,0.0,0.0,0.0,0.0,0.0,0.0,0.0,0.0,0.0,0.0,0.0,0.0,0.0,0.0,0.0,0.0,0.0,0.0,0.0,0.0,0.0,0.0,0.0,0.0,0.0,0.0,0.0,0.0,0.0,0.0,0.0,0.0,0.0,0.0,0.0,0.0,0.0,0.0,0.0,0.0,0.0,0.0,0.0,0.0,0.0,0.0,0.0,0.0,0.0,0.0,0.0,0.0,0.0,0.0,0.0,0.0,0.0,0.0,0.0,0.0,0.0,0.0,0.0,0.0,0.0,0.0,0.0,0.0,0.0,0.0,0.0,0.0,0.0,0.0,0.0,0.0,0.0,0.0,0.0,0.0,0.0,0.0,0.0,0.0,0.0,0.0,0.0,0.0,0.0,0.0,0.0,0.0,0.0,0.0,0.0,0.0,0.0,0.0,0.0,0.0,0.0,0.0,0.0,0.0,0.0,0.0,0.0,0.0,0.0,0.0,0.0,0.0,0.0,0.0,0.0,0.0,0.0,0.0,0.0,0.0,0.0,0.0,0.0,0.0,0.0,0.0,0.0,0.0,0.0,0.0,0.0,0.0,0.0,0.0,0.0,0.0,0.0,0.0,0.0,0.0,0.0,0.0,0.0,0.0,0.0,0.0,0.0,0.0,0.0,0.0,0.0,0.0,0.0,0.0,0.0,0.0,0.0,0.0,0.0,0.0,0.0,0.0,0.0,0.0,0.0,0.0,0.0,0.0,0.0,0.0,0.0,0.0,0.0,0.0,0.0,0.0,0.0,0.0,0.0,0.0,0.0,0.0,0.0,0.0,0.0,0.0,0.0,0.0,0.0,0.0,0.0,0.0,0.0,0.0,0.0,0.0,0.0,0.0,0.0,0.0,0.0,0.0,0.0,0.0,0.0,0.0,0.0,0.0,0.0,0.0,0.0,0.0,0.0,0.0,0.0,0.0,0.0,0.0,0.0,0.0,0.0,0.0,0.0,0.0,0.0,0.0,0.0,0.0,0.0,0.0,0.0,0.0,0.0,0.0,0.0,0.0,0.0,0.0,0.0,0.0,0.0,0.0,0.0,0.0,0.0,0.0,0.0,0.0,0.0,0.0,0.0,0.0,0.0,0.0,0.0,0.0,0.0,0.0,0.0,0.0,0.0,0.0,0.0,0.0,0.0,0.0,0.0,0.0,0.0,0.0,0.0,0.0,0.0,0.0,0.0,0.0,0.0,0.0,0.0,0.0,0.0,0.0,0.0,0.0,0.0,0.0,0.0,0.0,0.0,0.0,0.0,0.0,0.0,0.0,0.0,0.0,0.0,0.0,0.0,0.0,0.0,0.0,0.0,0.0,0.0,0.0,0.0,0.0,0.0,0.0,0.0,0.0,0.0,0.0,0.0,0.0,0.0,0.0,0.0,0.0,0.0,0.0,0.0,0.0,0.0,0.0,0.0,0.0,0.0,0.0,0.0,0.0,0.0,0.0,0.0,0.0,0.0,0.0,0.0,0.0,0.0,0.0,0.0,0.0,0.0,0.0,0.0,0.0,0.0,0.0,0.0,0.0,0.0,0.0,0.0,0.0,0.0,0.0,0.0,0.0,0.0,0.0,0.0,0.0,0.0,0.0,0.0,0.0,0.0,0.0,0.0,0.0,0.0,0.0,0.0,0.0,0.0,0.0,0.0,0.0,0.0,0.0,0.0,0.0,0.0,0.0,0.0,0.0,0.0,0.0,0.0,0.0,0.0,0.0,0.0,0.0,0.0,0.0,0.0,0.0,0.0,0.0,0.0,0.0,0.0,0.0,0.0,0.0,0.0,0.0,0.0,0.0,0.0,0.0,0.0,0.0,0.0,0.0,0.0,0.0,0.0,0.0,0.0,0.0,0.0,0.0,0.0,0.0,0.0,0.0,0.0,0.0,0.0,0.0,0.0,0.0,0.0,0.0,0.0,0.0,0.0,0.0,0.0,0.0,0.0,0.0,0.0,0.0,0.0,0.0,0.0,0.0,0.0,0.0,0.0,0.0,0.0,0.0,0.0,0.0,0.0,0.0,0.0,0.0,0.0,0.0,0.0,0.0,0.0,0.0,0.0,0.0,0.0,0.0,0.0,0.0,0.0,0.0,0.0,0.0,0.0,0.0,0.0,0.0,0.0,0.0,0.0,0.0,0.0,0.0,0.0,0.0,0.0,0.0,0.0,0.0,0.0,0.0,0.0,0.0,0.0,0.0,0.0,0.0,0.0,0.0,0.0,0.0,0.0,0.0,0.0,0.0,0.0,0.0,0.0,0.0,0.0,0.0,0.0,0.0,0.0,0.0,0.0,0.0,0.0,0.0,0.0,0.0,0.0,0.0,0.0,0.0,0.0,0.0,0.0,0.0,0.0,0.0,0.0,0.0,0.0,0.0,0.0,0.0,0.0,0.0,0.0,0.0,0.0,0.0,0.0,0.0,0.0,0.0,0.0,0.0,0.0,0.0,0.0,0.0,0.0,0.0,0.0,0.0,0.0,0.0,0.0,0.0,0.0,0.0,0.0,0.0,0.0,0.0,0.0,0.0,0.0,0.0,0.0,0.0,0.0,0.0,0.0,0.0,0.0,0.0,0.0,0.0,0.0,0.0,0.0,0.0,0.0,0.0,0.0,0.0,0.0,0.0,0.0,0.0,0.0,0.0,0.0,0.0,0.0,0.0,0.0,0.0,0.0,0.0,0.0,0.0,0.0,0.0,0.0,0.0,0.0,0.0,0.0,0.0,0.0,0.0,0.0,0.0,0.0,0.0,0.0,0.0,0.0,0.0,0.0,0.0,0.0,0.0,0.0,0.0,0.0,0.0,0.0,0.0,0.0,0.0,0.0,0.0,0.0,0.0,0.0,0.0,0.0,0.0,0.0,0.0,0.0,0.0,0.0,0.0,0.0,0.0,0.0,0.0,0.0,0.0,0.0,0.0,0.0,0.0,0.0,0.0,0.0,0.0,0.0,0.0,0.0,0.0,0.0,0.0,0.0,0.0,0.0,0.0,0.0,0.0,0.0,0.0,0.0,0.0,0.0,0.0,0.0,0.0,0.0,0.0,0.0,0.0,0.0,0.0,0.0,0.0,0.0,0.0,0.0,0.0,0.0,0.0,0.0,0.0,0.0,0.0,0.0,0.0,0.0,0.0,0.0,0.0,0.0,0.0,0.0,0.0,0.0,0.0,0.0,0.0,0.0,0.0,0.0,0.0,0.0,0.0,0.0,0.0,0.0,0.0,0.0,0.0,0.0,0.0,0.0,0.0,0.0,0.0,0.0,0.0,0.0,0.0,0.0,0.0,0.0,0.0,0.0,0.0,0.0,0.0,0.0,0.0,0.0,0.0,0.0,0.0,0.0,0.0,0.0,0.0,0.0,0.0,0.0,0.0,0.0,0.0,0.0,0.0,0.0,0.0,0.0,0.0,0.0,0.0,0.0,0.0,0.0,0.0,0.0,0.0,0.0,0.0,0.0,0.0,0.0,0.0,0.0,0.0,0.0,0.0,0.0,0.0,0.0,0.0,0.0,0.0,0.0,0.0,0.0,0.0,0.0,0.0,0.0,0.0,0.0,0.0,0.0,0.0,0.0,0.0,0.0,0.0,0.0,0.0,0.0,0.0,0.0,0.0,0.0,0.0,0.0,0.0,0.0,0.0,0.0,0.0,0.0,0.0,0.0,0.0,0.0,0.0,0.0,0.0,0.0,0.0,0.0,0.0,0.0,0.0,0.0,0.0,0.0,0.0,0.0,0.0,0.0,0.0,0.0,0.0,0.0,0.0,0.0,0.0,0.0,0.0,0.0,0.0,0.0,0.0,0.0,0.0,0.0,0.0,0.0,0.0,0.0,0.0,0.0,0.0,0.0,0.0,0.0,0.0,0.0,0.0,0.0,0.0,0.0,0.0,0.0,0.0,0.0,0.0,0.0,0.0,0.0,0.0,0.0,0.0,0.0,0.0,0.0,0.0,0.0,0.0,0.0,0.0,0.0,0.0,0.0,0.0,0.0,0.0,0.0,0.0,0.0,0.0,0.0,0.0,0.0,0.0,0.0,0.0,0.0,0.0,0.0,0.0,0.0,0.0,0.0,0.0,0.0,0.0,0.0,0.0,0.0,0.0,0.0,0.0,0.0,0.0,0.0,0.0,0.0,0.0,0.0,0.0,0.0,0.0,0.0,0.0,0.0,0.0,0.0,0.0,0.0,0.0,0.0,-2.0162,0.0,0.0,0.0,0.0,0.0,0.0,0.0,0.0,0.0,0.0,0.0,0.0,0.0,0.0,0.0,0.0,0.0,0.0,0.0,0.0,0.0,0.0,0.0,0.0,0.0,0.0,0.0,0.0,0.0,0.0,0.0,0.0,0.0,0.0,0.0,0.0,0.0,0.0,0.0,0.0,0.0,0.0,0.0,0.0,0.0,0.0,0.0,0.0,0.0,0.0,0.0,0.0,0.0,0.0,0.0,0.0,0.0,0.0,0.0,0.0,0.0,0.0,0.0,0.0,0.0,0.0,0.0,0.0,0.0,0.0,0.0,0.0,0.0,0.0,0.0,0.0,0.0,0.0,0.0,0.0,0.0,0.0,0.0,0.0,0.0,0.0,0.0,0.0,0.0,0.0,0.0,0.0,0.0,0.0,0.0,0.0,0.0,0.0,0.0,0.0,0.0,0.0,0.0,0.0,0.0,0.0,0.0,0.0,0.0,0.0,-1.9405,-1.8983,-1.8835,-1.8777,-1.8773,0.0,0.0,0.0,0.0,0.0,0.0,0.0,0.0,0.0,0.0,0.0,0.0,0.0,0.0,0.0,0.0,0.0,0.0,0.0,0.0,0.0,0.0,0.0,0.0,0.0,0.0,0.0,0.0,0.0,0.0,0.0,0.0,0.0,0.0,0.0,0.0,0.0,0.0,0.0,0.0,0.0,0.0,0.0,0.0,0.0,0.0,0.0,0.0,0.0,0.0,0.0,0.0,0.0,0.0,0.0,0.0,0.0,0.0,0.0,0.0,0.0,0.0,0.0,0.0,0.0,0.0,0.0,0.0,0.0,0.0,0.0,0.0,0.0,0.0,0.0,0.0,0.0,0.0,0.0,0.0,0.0,0.0,0.0,0.0,0.0,0.0,0.0,0.0,0.0,0.0,0.0,0.0,0.0,0.0,0.0,0.0,0.0,0.0,0.0,0.0,0.0,0.0,0.0,0.0,0.0,0.0,0.0,0.0,0.0,0.0,0.0,0.0,-1.8677,-1.8547,-1.8047,0.0,0.0,0.0,0.0,0.0,0.0,0.0,0.0,0.0,0.0,0.0,0.0,0.0,0.0,0.0,0.0,0.0,0.0,0.0,0.0,0.0,0.0,0.0,0.0,0.0,0.0,0.0,0.0,0.0,0.0,0.0,0.0,0.0,0.0,0.0,0.0,0.0,0.0,0.0,0.0,0.0,0.0,0.0,0.0,0.0,0.0,0.0,0.0,0.0,0.0,0.0,0.0,0.0,0.0,0.0,0.0,0.0,0.0,0.0,0.0,0.0,0.0,0.0,0.0,0.0,0.0,0.0,0.0,0.0,0.0,0.0,0.0,0.0,0.0,0.0,0.0,0.0,0.0,0.0,0.0,0.0,0.0,0.0,0.0,0.0,0.0,0.0,0.0,0.0,0.0,0.0,0.0,0.0,0.0,0.0,0.0,0.0,0.0,0.0,0.0,0.0,0.0,0.0,0.0,0.0,0.0,0.0,0.0,0.0,0.0,-1.9242,-1.9042,-1.9814,0.0,-1.951,0.0,0.0,0.0,0.0,0.0,0.0,0.0,0.0,0.0,0.0,0.0,0.0,0.0,0.0,0.0,0.0,0.0,0.0,0.0,0.0,0.0,0.0,0.0,0.0,0.0,0.0,0.0,0.0,0.0,0.0,0.0,0.0,0.0,0.0,0.0,0.0,0.0,0.0,0.0,0.0,0.0,0.0,0.0,0.0,0.0,0.0,0.0,0.0,0.0,0.0,0.0,0.0,0.0,0.0,0.0,0.0,0.0,0.0,0.0,0.0,0.0,0.0,0.0,0.0,0.0,0.0,0.0,0.0,0.0,0.0,0.0,0.0,0.0,0.0,0.0,0.0,0.0,0.0,0.0,0.0,0.0,0.0,0.0,0.0,0.0,0.0,0.0,0.0,0.0,0.0,0.0,0.0,0.0,0.0,0.0,0.0,0.0,0.0,0.0,0.0,0.0,0.0,0.0,0.0,0.0,0.0,0.0,0.0,0.0,0.0,-1.8364,-1.7937,-1.795,-1.7882,0.0,0.0,0.0,0.0,0.0,0.0,0.0,0.0,0.0,0.0,0.0,0.0,0.0,0.0,0.0,0.0,0.0,0.0,0.0,0.0,0.0,0.0,0.0,0.0,0.0,0.0,0.0,0.0,0.0,0.0,0.0,0.0,0.0,0.0,0.0,0.0,0.0,0.0,0.0,0.0,0.0,0.0,0.0,0.0,0.0,0.0,0.0,0.0,0.0,0.0,0.0,0.0,0.0,0.0,0.0,0.0,0.0,0.0,0.0,0.0,0.0,0.0,0.0,0.0,0.0,0.0,0.0,0.0,0.0,0.0,0.0,0.0,0.0,0.0,0.0,0.0,0.0,0.0,0.0,0.0,0.0,0.0,0.0,0.0,0.0,0.0,0.0,0.0,0.0,0.0,0.0,0.0,0.0,0.0,0.0,0.0,0.0,0.0,0.0,0.0,0.0,0.0,0.0,0.0,0.0,0.0,0.0,0.0,0.0,0.0,-1.8291,-1.7962,-1.7664,-1.6482,-1.6058,-1.6565,0.0,0.0,0.0,0.0,0.0,0.0,0.0,0.0,0.0,0.0,0.0,0.0,0.0,0.0,0.0,0.0,0.0,0.0,0.0,0.0,0.0,0.0,0.0,0.0,0.0,0.0,0.0,0.0,0.0,0.0,0.0,0.0,0.0,0.0,0.0,0.0,0.0,0.0,0.0,0.0,0.0,0.0,0.0,0.0,0.0,0.0,0.0,0.0,0.0,0.0,0.0,0.0,0.0,0.0,0.0,0.0,0.0,0.0,0.0,0.0,0.0,0.0,0.0,0.0,0.0,0.0,0.0,0.0,0.0,0.0,0.0,0.0,0.0,0.0,0.0,0.0,0.0,0.0,0.0,0.0,0.0,0.0,0.0,0.0,0.0,0.0,0.0,0.0,0.0,0.0,0.0,0.0,0.0,0.0,0.0,0.0,0.0,0.0,0.0,0.0,0.0,0.0,0.0,0.0,0.0,0.0,0.0,0.0,-1.9849,-1.8708,-1.8434,-1.9007,-1.6423,-1.5682,0.0,0.0,0.0,0.0,0.0,0.0,0.0,0.0,0.0,0.0,0.0,0.0,0.0,0.0,0.0,0.0,0.0,0.0,0.0,0.0,0.0,0.0,0.0,0.0,0.0,0.0,0.0,0.0,0.0,0.0,0.0,0.0,0.0,0.0,0.0,0.0,0.0,0.0,0.0,0.0,0.0,0.0,0.0,0.0,0.0,0.0,0.0,0.0,0.0,0.0,0.0,0.0,0.0,0.0,0.0,0.0,0.0,0.0,0.0,0.0,0.0,0.0,0.0,0.0,0.0,0.0,0.0,0.0,0.0,0.0,0.0,0.0,0.0,0.0,0.0,0.0,0.0,0.0,0.0,0.0,0.0,0.0,0.0,0.0,0.0,0.0,0.0,0.0,0.0,0.0,0.0,0.0,0.0,0.0,0.0,0.0,0.0,0.0,0.0,0.0,0.0,0.0,0.0,0.0,0.0,0.0,0.0,0.0,0.0,-1.7253,-1.6307,-1.5931,-1.6176,-1.5358,-1.5178,0.0,0.0,0.0,0.0,0.0,0.0,0.0,0.0,0.0,0.0,0.0,0.0,0.0,0.0,0.0,0.0,0.0,0.0,0.0,0.0,0.0,0.0,0.0,0.0,0.0,0.0,0.0,0.0,0.0,0.0,0.0,0.0,0.0,0.0,0.0,0.0,0.0,0.0,0.0,0.0,0.0,0.0,0.0,0.0,0.0,0.0,0.0,0.0,0.0,0.0,0.0,0.0,0.0,0.0,0.0,0.0,0.0,0.0,0.0,0.0,0.0,0.0,0.0,0.0,0.0,0.0,0.0,0.0,0.0,0.0,0.0,0.0,0.0,0.0,0.0,0.0,0.0,0.0,0.0,0.0,0.0,0.0,0.0,0.0,0.0,0.0,0.0,0.0,0.0,0.0,0.0,0.0,0.0,0.0,0.0,0.0,0.0,0.0,0.0,0.0,0.0,0.0,0.0,0.0,0.0,0.0,0.0,0.0,0.0,-1.5753,0.0,-1.4769,-1.4505,-1.4775,-1.4772,0.0,0.0,0.0,0.0,0.0,0.0,0.0,0.0,0.0,0.0,0.0,0.0,0.0,0.0,0.0,0.0,0.0,0.0,0.0,0.0,0.0,0.0,0.0,0.0,0.0,0.0,0.0,0.0,0.0,0.0,0.0,0.0,0.0,0.0,0.0,0.0,0.0,0.0,0.0,0.0,0.0,0.0,0.0,0.0,0.0,0.0,0.0,0.0,0.0,0.0,0.0,0.0,0.0,0.0,0.0,0.0,0.0,0.0,0.0,0.0,0.0,0.0,0.0,0.0,0.0,0.0,0.0,0.0,0.0,0.0,0.0,0.0,0.0,0.0,0.0,0.0,0.0,0.0,0.0,0.0,0.0,0.0,0.0,0.0,0.0,0.0,0.0,0.0,0.0,0.0,0.0,0.0,0.0,0.0,0.0,0.0,0.0,0.0,0.0,0.0,0.0,0.0,0.0,0.0,0.0,0.0,0.0,0.0,-1.6463,-1.5723,-1.5649,-1.5282,-1.4548,-1.4738,-1.4483,0.0,0.0,0.0,0.0,0.0,0.0,0.0,0.0,0.0,0.0,0.0,0.0,0.0,0.0,0.0,0.0,0.0,0.0,0.0,0.0,0.0,0.0,0.0,0.0,0.0,0.0,0.0,0.0,0.0,0.0,0.0,0.0,0.0,0.0,0.0,0.0,0.0,0.0,0.0,0.0,0.0,0.0,0.0,0.0,0.0,0.0,0.0,0.0,0.0,0.0,0.0,0.0,0.0,0.0,0.0,0.0,0.0,0.0,0.0,0.0,0.0,0.0,0.0,0.0,0.0,0.0,0.0,0.0,0.0,0.0,0.0,0.0,0.0,0.0,0.0,0.0,0.0,0.0,0.0,0.0,0.0,0.0,0.0,0.0,0.0,0.0,0.0,0.0,0.0,0.0,0.0,0.0,0.0,0.0,0.0,0.0,0.0,0.0,0.0,0.0,0.0,0.0,0.0,0.0,0.0,0.0,0.0,0.0,0.0,-1.5025,-1.5025,-1.5123,-1.5288,-1.4544,-1.4521,0.0,0.0,0.0,0.0,0.0,0.0,0.0,0.0,0.0,0.0,0.0,0.0,0.0,0.0,0.0,0.0,0.0,0.0,0.0,0.0,0.0,0.0,0.0,0.0,0.0,0.0,0.0,0.0,0.0,0.0,0.0,0.0,0.0,0.0,0.0,0.0,0.0,0.0,0.0,0.0,0.0,0.0,0.0,0.0,0.0,0.0,0.0,0.0,0.0,0.0,0.0,0.0,0.0,0.0,0.0,0.0,0.0,0.0,0.0,0.0,0.0,0.0,0.0,0.0,0.0,0.0,0.0,0.0,0.0,0.0,0.0,0.0,0.0,0.0,0.0,0.0,0.0,0.0,0.0,0.0,0.0,0.0,0.0,0.0,0.0,0.0,0.0,0.0,0.0,0.0,0.0,0.0,0.0,0.0,0.0,0.0,0.0,0.0,0.0,0.0,0.0,0.0,0.0,0.0,0.0,0.0,0.0,0.0,0.0,-1.5786,-1.5351,-1.5205,-1.5328,-1.4925,-1.4878,-1.5218,0.0,0.0,0.0,0.0,0.0,0.0,0.0,0.0,0.0,0.0,0.0,0.0,0.0,0.0,0.0,0.0,0.0,0.0,0.0,0.0,0.0,0.0,0.0,0.0,0.0,0.0,0.0,0.0,0.0,0.0,0.0,0.0,0.0,0.0,0.0,0.0,0.0,0.0,0.0,0.0,0.0,0.0,0.0,0.0,0.0,0.0,0.0,0.0,0.0,0.0,0.0,0.0,0.0,0.0,0.0,0.0,0.0,0.0,0.0,0.0,0.0,0.0,0.0,0.0,0.0,0.0,0.0,0.0,0.0,0.0,0.0,0.0,0.0,0.0,0.0,0.0,0.0,0.0,0.0,0.0,0.0,0.0,0.0,0.0,0.0,0.0,0.0,0.0,0.0,0.0,0.0,0.0,0.0,0.0,0.0,0.0,0.0,0.0,0.0,0.0,0.0,0.0,0.0,0.0,0.0,0.0,0.0,0.0,-1.7674,-1.6667,-1.5775,-1.5026,-1.5885,-1.5613,0.0,0.0,0.0,0.0,0.0,0.0,0.0,0.0,0.0,0.0,0.0,0.0,0.0,0.0,0.0,0.0,0.0,0.0,0.0,0.0,0.0,0.0,0.0,0.0,0.0,0.0,0.0,0.0,0.0,0.0,0.0,0.0,0.0,0.0,0.0,0.0,0.0,0.0,0.0,0.0,0.0,0.0,0.0,0.0,0.0,0.0,0.0,0.0,0.0,0.0,0.0,0.0,0.0,0.0,0.0,0.0,0.0,0.0,0.0,0.0,0.0,0.0,0.0,0.0,0.0,0.0,0.0,0.0,0.0,0.0,0.0,0.0,0.0,0.0,0.0,0.0,0.0,0.0,0.0,0.0,0.0,0.0,0.0,0.0,0.0,0.0,0.0,0.0,0.0,0.0,0.0,0.0,0.0,0.0,0.0,0.0,0.0,0.0,0.0,0.0,0.0,0.0,0.0,0.0,0.0,0.0,0.0,0.0,0.0,-1.8458,-1.8816,-1.854,-1.7624,-1.7426,-1.6781,0.0,0.0,0.0,0.0,0.0,0.0,0.0,0.0,0.0,0.0,0.0,0.0,0.0,0.0,0.0,0.0,0.0,0.0,0.0,0.0,0.0,0.0,0.0,0.0,0.0,0.0,0.0,0.0,0.0,0.0,0.0,0.0,0.0,0.0,0.0,0.0,0.0,0.0,0.0,0.0,0.0,0.0,0.0,0.0,0.0,0.0,0.0,0.0,0.0,0.0,0.0,0.0,0.0,0.0,0.0,0.0,0.0,0.0,0.0,0.0,0.0,0.0,0.0,0.0,0.0,0.0,0.0,0.0,0.0,0.0,0.0,0.0,0.0,0.0,0.0,0.0,0.0,0.0,0.0,0.0,0.0,0.0,0.0,0.0,0.0,0.0,0.0,0.0,0.0,0.0,0.0,0.0,0.0,0.0,0.0,0.0,0.0,0.0,0.0,0.0,0.0,0.0,0.0,0.0,0.0,0.0,0.0,0.0,-1.8079,-1.9411,-2.0621,-2.0785,-1.9845,-1.9157,-1.7841,0.0,0.0,0.0,0.0,0.0,0.0,0.0,0.0,0.0,0.0,0.0,0.0,0.0,0.0,0.0,0.0,0.0,0.0,0.0,0.0,0.0,0.0,0.0,0.0,0.0,0.0,0.0,0.0,0.0,0.0,0.0,0.0,0.0,0.0,0.0,0.0,0.0,0.0,0.0,0.0,0.0,0.0,0.0,0.0,0.0,0.0,0.0,0.0,0.0,0.0,0.0,0.0,0.0,0.0,0.0,0.0,0.0,0.0,0.0,0.0,0.0,0.0,0.0,0.0,0.0,0.0,0.0,0.0,0.0,0.0,0.0,0.0,0.0,0.0,0.0,0.0,0.0,0.0,0.0,0.0,0.0,0.0,0.0,0.0,0.0,0.0,0.0,0.0,0.0,0.0,0.0,0.0,0.0,0.0,0.0,0.0,0.0,0.0,0.0,0.0,0.0,0.0,0.0,0.0,0.0,0.0,0.0,0.0,-1.9322,-2.0308,-2.1855,-2.2282,-2.154,-2.0739,-1.875,0.0,0.0,0.0,0.0,0.0,0.0,0.0,0.0,0.0,0.0,0.0,0.0,0.0,0.0,0.0,0.0,0.0,0.0,0.0,0.0,0.0,0.0,0.0,0.0,0.0,0.0,0.0,0.0,0.0,0.0,0.0,0.0,0.0,0.0,0.0,0.0,0.0,0.0,0.0,0.0,0.0,0.0,0.0,0.0,0.0,0.0,0.0,0.0,0.0,0.0,0.0,0.0,0.0,0.0,0.0,0.0,0.0,0.0,0.0,0.0,0.0,0.0,0.0,0.0,0.0,0.0,0.0,0.0,0.0,0.0,0.0,0.0,0.0,0.0,0.0,0.0,0.0,0.0,0.0,0.0,0.0,0.0,0.0,0.0,0.0,0.0,0.0,0.0,0.0,0.0,0.0,0.0,0.0,0.0,0.0,0.0,0.0,0.0,0.0,0.0,0.0,0.0,0.0,0.0,0.0,0.0,0.0,0.0,-1.8744,-2.0362,-2.1301,-2.1725,-2.1575,-2.0746,-1.9,0.0,0.0,0.0,0.0,0.0,0.0,0.0,0.0,0.0,0.0,0.0,0.0,0.0,0.0,0.0,0.0,0.0,0.0,0.0,0.0,0.0,0.0,0.0,0.0,0.0,0.0,0.0,0.0,0.0,0.0,0.0,0.0,0.0,0.0,0.0,0.0,0.0,0.0,0.0,0.0,0.0,0.0,0.0,0.0,0.0,0.0,0.0,0.0,-1.5511,0.0,0.0,0.0,0.0,0.0,0.0,0.0,0.0,0.0,0.0,0.0,0.0,0.0,0.0,0.0,0.0,0.0,0.0,0.0,0.0,0.0,0.0,0.0,0.0,0.0,0.0,0.0,0.0,0.0,0.0,0.0,0.0,0.0,0.0,0.0,0.0,0.0,0.0,0.0,0.0,0.0,0.0,0.0,0.0,0.0,0.0,0.0,0.0,0.0,0.0,0.0,0.0,0.0,0.0,0.0,0.0,0.0,0.0,0.0,-1.845,-1.9762,-2.0961,-2.1403,-2.1036,-2.018,-1.8718,0.0,0.0,0.0,0.0,0.0,0.0,0.0,0.0,0.0,0.0,0.0,0.0,0.0,0.0,0.0,0.0,0.0,0.0,0.0,0.0,0.0,0.0,0.0,0.0,0.0,0.0,0.0,0.0,0.0,0.0,0.0,0.0,0.0,0.0,0.0,0.0,0.0,0.0,0.0,0.0,0.0,0.0,0.0,0.0,0.0,0.0,0.0,0.0,0.0,0.0,0.0,0.0,0.0,0.0,0.0,0.0,0.0,0.0,0.0,0.0,0.0,0.0,0.0,0.0,0.0,0.0,0.0,0.0,0.0,0.0,0.0,0.0,0.0,0.0,0.0,0.0,0.0,0.0,0.0,0.0,0.0,0.0,0.0,0.0,0.0,0.0,0.0,0.0,0.0,0.0,0.0,0.0,0.0,0.0,0.0,0.0,0.0,0.0,0.0,0.0,0.0,0.0,0.0,0.0,0.0,0.0,0.0,-1.7937,-1.836,-1.9324,-2.0737,-2.1143,-2.0426,-1.943,-1.8164,-1.6604,0.0,0.0,0.0,0.0,0.0,0.0,0.0,0.0,0.0,0.0,0.0,0.0,0.0,0.0,0.0,0.0,0.0,0.0,0.0,0.0,0.0,0.0,0.0,0.0,0.0,0.0,0.0,0.0,0.0,0.0,0.0,0.0,0.0,0.0,0.0,0.0,0.0,0.0,-1.6336,-1.6367,0.0,0.0,0.0,0.0,0.0,0.0,0.0,0.0,-1.5754,0.0,0.0,0.0,0.0,0.0,0.0,0.0,0.0,0.0,0.0,0.0,0.0,0.0,0.0,0.0,0.0,0.0,0.0,0.0,0.0,0.0,0.0,0.0,0.0,0.0,0.0,0.0,0.0,0.0,0.0,0.0,0.0,0.0,0.0,0.0,0.0,0.0,0.0,0.0,0.0,0.0,0.0,0.0,0.0,0.0,0.0,0.0,0.0,0.0,0.0,0.0,0.0,0.0,0.0,0.0,0.0,-1.8858,-1.8184,-1.8632,-2.0214,-2.0492,-2.0565,-2.0438,-1.8929,-1.7614,-1.6623,0.0,0.0,0.0,0.0,0.0,0.0,0.0,0.0,0.0,0.0,0.0,0.0,0.0,0.0,0.0,0.0,0.0,0.0,0.0,0.0,0.0,0.0,0.0,0.0,0.0,0.0,0.0,0.0,0.0,0.0,0.0,0.0,0.0,0.0,0.0,0.0,0.0,0.0,0.0,-1.6191,-1.6513,0.0,0.0,0.0,0.0,0.0,0.0,0.0,0.0,-1.6324,0.0,0.0,0.0,0.0,0.0,0.0,0.0,0.0,0.0,0.0,0.0,0.0,0.0,0.0,0.0,0.0,0.0,0.0,0.0,0.0,0.0,0.0,0.0,0.0,0.0,0.0,0.0,0.0,0.0,0.0,0.0,0.0,0.0,0.0,0.0,0.0,0.0,0.0,0.0,0.0,0.0,0.0,0.0,0.0,0.0,0.0,0.0,0.0,0.0,0.0,0.0,0.0,0.0,0.0,0.0,-1.9063,-1.8755,-1.9005,-1.984,-1.9851,-1.9615,-1.9194,-1.7957,-1.6871,0.0,0.0,0.0,0.0,0.0,0.0,0.0,0.0,0.0,0.0,0.0,0.0,0.0,0.0,0.0,0.0,0.0,0.0,0.0,0.0,0.0,0.0,0.0,0.0,0.0,0.0,0.0,0.0,0.0,0.0,0.0,0.0,0.0,0.0,0.0,0.0,0.0,0.0,0.0,0.0,-1.6358,-1.6513,-1.6513,0.0,0.0,0.0,0.0,0.0,0.0,-1.6513,-1.6513,0.0,0.0,0.0,0.0,0.0,0.0,0.0,0.0,0.0,0.0,0.0,0.0,0.0,0.0,0.0,0.0,0.0,0.0,0.0,0.0,0.0,0.0,0.0,0.0,0.0,0.0,0.0,0.0,0.0,0.0,0.0,0.0,0.0,0.0,0.0,0.0,0.0,0.0,0.0,0.0,0.0,0.0,0.0,0.0,0.0,0.0,0.0,0.0,0.0,0.0,0.0,0.0,0.0,0.0,0.0,-1.9388,-1.9326,-1.9375,-1.9531,-1.9394,-1.8906,-1.8008,-1.7148,-1.6308,0.0,0.0,0.0,0.0,0.0,0.0,0.0,0.0,0.0,0.0,0.0,0.0,0.0,0.0,0.0,0.0,0.0,0.0,0.0,0.0,0.0,0.0,0.0,0.0,0.0,0.0,0.0,0.0,0.0,0.0,0.0,0.0,0.0,0.0,0.0,0.0,0.0,0.0,0.0,0.0,0.0,-1.6513,-1.6513,-1.6513,0.0,0.0,0.0,0.0,-1.6513,-1.6513,0.0,0.0,0.0,0.0,0.0,0.0,0.0,0.0,0.0,0.0,0.0,0.0,0.0,0.0,0.0,0.0,0.0,0.0,0.0,0.0,0.0,0.0,0.0,0.0,0.0,0.0,0.0,0.0,0.0,0.0,0.0,0.0,0.0,0.0,0.0,0.0,0.0,0.0,0.0,0.0,0.0,0.0,0.0,0.0,0.0,0.0,0.0,0.0,0.0,0.0,0.0,0.0,0.0,0.0,0.0,0.0,-2.0266,-1.9595,-1.9625,-2.0371,-1.9687,-1.8887,-1.8027,-1.7168,-1.6289,0.0,0.0,0.0,0.0,0.0,0.0,0.0,0.0,0.0,0.0,0.0,0.0,0.0,0.0,0.0,0.0,0.0,0.0,0.0,0.0,0.0,0.0,0.0,0.0,0.0,0.0,0.0,0.0,0.0,0.0,0.0,0.0,0.0,0.0,0.0,0.0,0.0,0.0,0.0,0.0,0.0,-1.6513,-1.6513,-1.6513,-1.6513,0.0,0.0,-1.6513,-1.6513,-1.6513,0.0,0.0,0.0,0.0,0.0,0.0,0.0,0.0,0.0,0.0,0.0,0.0,0.0,0.0,0.0,0.0,0.0,0.0,0.0,0.0,0.0,0.0,0.0,0.0,0.0,0.0,0.0,0.0,0.0,0.0,0.0,0.0,0.0,0.0,0.0,0.0,0.0,0.0,0.0,0.0,0.0,0.0,0.0,0.0,0.0,0.0,0.0,0.0,0.0,0.0,0.0,0.0,0.0,0.0,0.0,-2.0091,-2.0468,-2.0169,-2.0175,-2.0527,-1.9277,-1.8379,-1.8008,-1.666,-1.5781,0.0,0.0,0.0,0.0,0.0,0.0,0.0,0.0,0.0,0.0,0.0,0.0,0.0,0.0,0.0,0.0,0.0,0.0,0.0,0.0,0.0,0.0,0.0,0.0,0.0,0.0,0.0,0.0,0.0,0.0,0.0,0.0,0.0,0.0,0.0,0.0,0.0,0.0,0.0,0.0,0.0,0.0,-1.6565,-1.6752,0.0,0.0,0.0,-1.6513,-1.6513,0.0,0.0,0.0,0.0,0.0,0.0,0.0,0.0,0.0,0.0,0.0,0.0,0.0,0.0,0.0,0.0,0.0,0.0,0.0,0.0,0.0,0.0,0.0,0.0,0.0,0.0,0.0,0.0,0.0,0.0,0.0,0.0,0.0,0.0,0.0,0.0,0.0,0.0,0.0,0.0,0.0,0.0,0.0,0.0,0.0,0.0,0.0,0.0,0.0,0.0,0.0,0.0,0.0,0.0,0.0,0.0,0.0,-2.0508,-2.0564,-2.0605,-2.0547,-1.8887,-1.8008,-1.7969,-1.6309,0.0,0.0,0.0,0.0,0.0,0.0,0.0,0.0,0.0,0.0,0.0,0.0,0.0,0.0,0.0,0.0,0.0,0.0,0.0,0.0,0.0,0.0,0.0,0.0,0.0,0.0,0.0,-1.8198,0.0,0.0,0.0,0.0,0.0,0.0,0.0,0.0,0.0,0.0,0.0,0.0,0.0,0.0,-1.7222,-1.693,-1.725,-1.7312,0.0,0.0,-1.6701,-1.6689,-1.6595,-1.6552,0.0,0.0,0.0,0.0,0.0,0.0,0.0,0.0,0.0,0.0,0.0,0.0,0.0,0.0,0.0,0.0,0.0,0.0,0.0,0.0,0.0,0.0,0.0,0.0,0.0,0.0,0.0,0.0,0.0,0.0,0.0,0.0,0.0,0.0,0.0,0.0,0.0,0.0,0.0,0.0,0.0,0.0,0.0,0.0,0.0,0.0,0.0,0.0,0.0,0.0,0.0,0.0,0.0,0.0,0.0,-2.0508,-2.0564,-2.0605,-2.0566,-1.8887,-1.8008,-1.7969,-1.6309,-1.541,0.0,0.0,0.0,0.0,0.0,0.0,0.0,0.0,0.0,0.0,0.0,0.0,0.0,0.0,0.0,0.0,0.0,0.0,0.0,0.0,0.0,0.0,0.0,0.0,0.0,0.0,0.0,0.0,0.0,0.0,0.0,0.0,0.0,0.0,0.0,0.0,0.0,0.0,0.0,0.0,0.0,-1.7463,-1.7913,-1.8027,-1.7867,0.0,0.0,-1.725,-1.725,-1.685,-1.668,-1.716,0.0,0.0,0.0,0.0,0.0,0.0,0.0,0.0,0.0,0.0,0.0,0.0,0.0,0.0,0.0,0.0,0.0,0.0,0.0,0.0,0.0,0.0,0.0,0.0,0.0,0.0,0.0,0.0,0.0,0.0,0.0,0.0,0.0,0.0,0.0,0.0,0.0,0.0,0.0,0.0,0.0,0.0,0.0,0.0,0.0,0.0,0.0,0.0,0.0,0.0,0.0,0.0,0.0,-2.0485,-2.0563,-2.0586,-2.0605,-2.0547,-1.8887,-1.8008,-1.8008,-1.6328,-1.5664,0.0,0.0,0.0,0.0,0.0,0.0,0.0,0.0,0.0,0.0,0.0,0.0,0.0,0.0,0.0,0.0,0.0,0.0,0.0,0.0,0.0,0.0,0.0,0.0,0.0,0.0,0.0,0.0,-1.8642,-1.9204,-2.003,0.0,0.0,0.0,0.0,0.0,0.0,0.0,0.0,0.0,0.0,-1.823,-1.8112,-1.84,0.0,0.0,-1.7807,-1.7787,-1.7787,-1.7353,-1.7055,-1.7271,-1.7051,0.0,0.0,0.0,0.0,0.0,0.0,0.0,0.0,0.0,0.0,0.0,0.0,0.0,0.0,0.0,0.0,0.0,0.0,0.0,0.0,0.0,0.0,0.0,0.0,0.0,0.0,0.0,0.0,0.0,0.0,0.0,0.0,0.0,0.0,0.0,0.0,0.0,0.0,0.0,0.0,0.0,0.0,0.0,0.0,0.0,0.0,0.0,0.0,0.0,0.0,0.0,0.0,-2.079,-2.0565,-2.0605,-2.0605,-2.0586,-1.8887,-1.8008,-1.7969,-1.6562,-1.6074,0.0,0.0,0.0,0.0,0.0,0.0,0.0,0.0,0.0,0.0,0.0,0.0,0.0,0.0,0.0,0.0,0.0,0.0,0.0,0.0,0.0,0.0,0.0,0.0,0.0,0.0,0.0,0.0,-1.9819,-2.0474,-2.1037,0.0,0.0,0.0,0.0,0.0,0.0,0.0,0.0,0.0,0.0,-1.8822,-1.8612,-1.8912,-1.893,-1.8419,-1.8341,-1.8341,-1.8341,-1.7874,-1.7585,-1.7767,0.0,0.0,0.0,0.0,0.0,0.0,0.0,0.0,0.0,0.0,0.0,0.0,0.0,0.0,0.0,0.0,0.0,0.0,0.0,0.0,0.0,0.0,0.0,0.0,0.0,0.0,0.0,0.0,0.0,0.0,-2.4199,0.0,0.0,0.0,0.0,0.0,0.0,0.0,0.0,0.0,0.0,0.0,0.0,0.0,0.0,0.0,0.0,0.0,0.0,0.0,0.0,0.0,0.0,-2.1349,-2.0529,-2.0584,-2.0605,-2.0547,-1.8906,-1.8027,-1.8008,-1.7148,-1.6699,-1.6738,0.0,0.0,0.0,0.0,0.0,0.0,0.0,0.0,0.0,0.0,0.0,0.0,0.0,0.0,0.0,0.0,0.0,0.0,0.0,0.0,0.0,0.0,0.0,0.0,0.0,0.0,-2.0471,-2.0665,-2.1181,0.0,0.0,0.0,0.0,0.0,0.0,0.0,0.0,0.0,0.0,-1.9225,-1.908,-1.9584,-1.9657,-1.946,-1.8949,-1.8893,-1.8893,-1.8893,-1.8438,-1.8269,0.0,0.0,0.0,0.0,0.0,0.0,0.0,0.0,0.0,0.0,0.0,0.0,0.0,0.0,0.0,0.0,0.0,0.0,0.0,0.0,0.0,0.0,0.0,0.0,0.0,0.0,0.0,-2.4199,-2.4199,0.0,0.0,0.0,0.0,0.0,0.0,0.0,0.0,0.0,0.0,0.0,-2.4876,-2.4955,0.0,0.0,0.0,0.0,0.0,0.0,0.0,0.0,0.0,0.0,0.0,0.0,-2.1583,-2.1422,-2.0834,-2.0543,-2.0566,-1.9473,-1.8867,-1.8848,-1.8027,-1.7832,-1.8418,0.0,0.0,0.0,0.0,0.0,0.0,0.0,0.0,0.0,0.0,0.0,0.0,0.0,0.0,0.0,0.0,0.0,0.0,0.0,0.0,0.0,0.0,0.0,0.0,0.0,-2.2244,0.0,0.0,0.0,0.0,0.0,0.0,0.0,0.0,0.0,0.0,0.0,-1.9591,-2.0037,-1.9717,-1.9497,-1.9675,-1.9723,-1.9639,0.0,0.0,0.0,0.0,0.0,0.0,0.0,0.0,0.0,0.0,0.0,0.0,0.0,0.0,-2.0988,-2.082,-2.0245,-1.9927,-2.0371,0.0,0.0,0.0,0.0,0.0,0.0,0.0,0.0,0.0,0.0,0.0,0.0,0.0,0.0,-2.4199,0.0,-2.4199,0.0,0.0,0.0,0.0,0.0,0.0,0.0,0.0,-2.4553,-2.4689,-2.4864,-2.4962,-2.5105,0.0,-2.5308,-2.5308,0.0,0.0,0.0,0.0,0.0,0.0,0.0,0.0,-2.2429,-2.227,-2.1406,-2.0962,-2.0953,-1.9902,-1.9297,-1.9277,-1.875,-1.8848,-1.9727,-2.0293,-2.0566,0.0,0.0,0.0,0.0,0.0,0.0,0.0,0.0,0.0,0.0,0.0,0.0,0.0,0.0,0.0,0.0,0.0,0.0,0.0,0.0,0.0,0.0,0.0,-2.3019,0.0,0.0,0.0,0.0,0.0,0.0,0.0,0.0,0.0,-2.06,-2.0313,-2.026,-2.05,-2.0191,-1.9909,-1.9909,0.0,0.0,0.0,0.0,0.0,0.0,0.0,-1.9188,-1.9188,-1.908,-1.9151,-1.9653,-2.072,-2.1525,-2.1547,0.0,0.0,-2.1234,-2.0597,-2.0283,-2.0721,-2.0459,-2.0144,-2.0118,-1.9556,-1.8921,0.0,0.0,0.0,0.0,0.0,0.0,0.0,0.0,-2.4199,-2.4199,0.0,-2.4199,0.0,0.0,0.0,0.0,0.0,-2.4693,0.0,0.0,-2.4775,-2.4876,-2.4998,-2.4985,-2.5105,-2.5303,-2.5308,-2.5308,-2.5308,-2.5308,0.0,0.0,0.0,0.0,0.0,0.0,-2.3821,-2.3043,-2.2252,-2.1824,-2.1807,-2.025,-1.9375,-1.9355,-1.9355,-1.9727,-2.0547,-2.0586,-2.0605,-2.0605,-2.0605,0.0,0.0,0.0,0.0,0.0,0.0,0.0,0.0,0.0,0.0,0.0,0.0,0.0,0.0,0.0,0.0,0.0,0.0,0.0,0.0,-2.3184,0.0,0.0,0.0,0.0,0.0,0.0,0.0,0.0,0.0,0.0,-2.1118,-2.0991,-2.1007,-2.0975,0.0,0.0,0.0,0.0,-1.9723,-1.9723,-1.9723,-1.9723,-1.9723,-1.969,-1.9708,-1.969,0.0,0.0,-2.0886,-2.191,-2.2346,-2.1235,-2.1999,-2.2498,-2.1838,-2.1259,-2.087,-2.0894,-2.0845,-2.0809,-2.0743,-1.9856,-1.905,-2.3477,0.0,0.0,0.0,0.0,-2.4199,-2.4199,-2.4199,-2.4199,-2.4199,-2.4199,-2.4199,0.0,0.0,0.0,0.0,0.0,0.0,-2.4602,-2.4575,-2.4575,-2.473,-2.4985,-2.4991,-2.5105,-2.5303,-2.5308,-2.5308,-2.5308,-2.5308,-2.5308,-2.5308,0.0,0.0,0.0,0.0,-2.4034,-2.3818,-2.3018,-2.2615,-2.2654,-2.1629,-2.0814,-2.0254,-2.0234,-2.0352,-2.0605,-2.0605,-2.0605,-2.0605,-2.0605,0.0,0.0,0.0,0.0,0.0,0.0,0.0,0.0,0.0,0.0,0.0,0.0,0.0,0.0,0.0,0.0,0.0,0.0,0.0,-2.3515,-1.8073,-1.6594,0.0,0.0,0.0,0.0,0.0,0.0,0.0,0.0,0.0,-2.193,-2.1369,-2.1007,0.0,0.0,-2.0195,-1.9909,-1.9782,-1.9723,-1.9723,-1.9723,0.0,-1.9723,-1.9723,-1.9723,-1.9723,-2.0647,-2.1426,-2.147,-2.2509,-2.324,-2.2849,-2.3098,-2.3143,-2.2521,-2.1889,-2.1653,-2.1988,-2.1441,-2.0833,-2.0731,-1.9863,-1.9013,-2.4361,-2.389,-2.389,-2.4034,-2.419,-2.4199,-2.4199,-2.4199,-2.4199,-2.4199,-2.4199,-2.4199,-2.4199,-2.4199,-2.4199,0.0,0.0,0.0,-2.4553,-2.4634,-2.4682,-2.4857,-2.5124,-2.5111,-2.5173,-2.5308,-2.5308,-2.5308,-2.5308,-2.5308,-2.5308,-2.5308,0.0,0.0,-2.5331,-2.485,-2.4591,-2.4603,-2.3811,-2.3379,-2.3426,-2.2695,-2.1916,-2.1128,-2.1425,-2.1309,-2.0625,-2.0918,-2.0957,-2.0605,-2.0605,-2.0605,0.0,0.0,0.0,0.0,0.0,0.0,0.0,0.0,0.0,0.0,0.0,-2.4529,-2.4402,0.0,0.0,0.0,-2.4392,-2.273,-1.9156,-1.6974,0.0,0.0,0.0,0.0,0.0,0.0,0.0,-2.2313,-2.2313,-2.2313,-2.2282,-2.1857,-2.1508,-2.1524,-2.1102,-2.0682,-2.0277,0.0,-2.0154,-1.998,-1.9947,-1.9945,-1.9929,-1.9818,-1.9857,-2.0427,-2.1141,-2.1904,-2.2413,-2.3116,-2.358,-2.3595,-2.3595,-2.3486,-2.3098,-2.2711,-2.2483,-2.2649,-2.2105,-2.1585,-2.1561,-2.0411,-1.9428,-2.5644,-2.4914,-2.4476,-2.4263,-2.4199,-2.4245,-2.4263,-2.4199,-2.4199,-2.4199,-2.4199,-2.4199,-2.4199,-2.4199,-2.4218,0.0,-2.4237,-2.4445,-2.4631,-2.4814,-2.4937,-2.5099,-2.5303,-2.5308,-2.5308,-2.5308,-2.5308,-2.5308,-2.5308,-2.5308,-2.5308,-2.5308,-2.5308,-2.5308,-2.5308,-2.5298,-2.5322,-2.5284,-2.4563,-2.4164,-2.4091,-2.3495,-2.2763,-2.1946,-2.2673,-2.2344,-2.082,-2.1387,-2.1426,-2.0644,-2.0664,-2.0664,-2.0625,0.0,0.0,0.0,0.0,0.0,0.0,0.0,0.0,0.0,0.0,0.0,0.0,0.0,0.0,0.0,-2.4441,0.0,-1.3719,-1.8993,0.0,0.0,0.0,-2.2313,-2.2313,-2.2313,-2.2313,-2.2313,0.0,0.0,-2.2313,-2.2313,-2.2313,-2.2313,-2.1884,-2.1477,-2.1055,-2.0959,-2.083,-2.0399,-2.0365,-2.0348,-2.0263,-1.9962,-2.0067,-2.11,-2.1575,-2.1979,-2.2951,-2.3415,-2.349,-2.337,-2.3475,-2.3475,-2.3445,-2.3291,-2.3273,-2.2657,-2.2622,-2.2634,-2.2437,-2.1223,-2.0098,-2.6022,-2.5264,-2.5171,-2.4768,-2.4263,-2.486,-2.4768,-2.4218,-2.4199,-2.4199,-2.4199,-2.4199,-2.4199,-2.4199,-2.4357,-2.4436,-2.4426,-2.4631,-2.4814,-2.4949,-2.4986,-2.5124,-2.5303,-2.5308,-2.5308,-2.5308,-2.5308,-2.5308,-2.5308,-2.5308,-2.5308,-2.5308,-2.5308,-2.5308,-2.5293,-2.535,-2.5372,-2.5364,-2.5178,-2.4775,-2.4141,-2.4,-2.3573,-2.2824,-2.2399,-2.2012,-2.1602,-2.1152,-2.082,-2.0625,-2.123,-2.1289,-2.0664,-2.2676,0.0,0.0,0.0,0.0,0.0,0.0,0.0,0.0,0.0,-2.5248,-2.5082,0.0,-2.4685,0.0,-2.4266,-2.3289,-2.1179,-2.2127,0.0,0.0,-2.2477,-2.2313,-2.2313,-2.2313,-2.2313,-2.2313,-2.2313,-2.2313,-2.2313,-2.2313,-2.2313,-2.2296,-2.1899,-2.1445,-2.1055,-2.1007,-2.0959,-2.0846,-2.0829,-2.0699,-2.0348,-1.9965,-1.9813,-2.0127,-2.0602,-2.1047,-2.1346,-2.2263,-2.2778,-2.2308,-2.2598,-2.2688,-2.2278,-2.2158,-2.2133,-2.2014,-2.2338,-2.255,-2.2031,-2.124,-2.0489,-2.72,-2.6494,-2.6862,-2.6319,-2.5236,-2.4989,-2.4622,-2.4218,-2.4199,-2.4199,-2.4199,-2.4199,-2.4199,-2.4237,-2.4419,-2.4698,-2.5003,-2.4885,-2.5091,-2.5558,-2.5176,-2.5105,-2.5308,-2.5308,-2.5308,-2.5308,-2.5308,-2.5308,-2.5308,-2.5308,-2.5308,-2.5308,-2.5308,-2.5308,-2.5308,-2.5339,-2.5375,-2.5398,-2.5428,-2.5192,-2.4762,-2.4793,-2.4445,-2.3666,-2.363,-2.3242,-2.25,-2.2363,-2.2129,-2.1816,-2.2187,-2.2344,-2.2129,-2.2969,-2.2031,0.0,0.0,0.0,0.0,0.0,0.0,0.0,0.0,0.0,0.0,0.0,-2.4612,-2.4237,-2.4199,-2.4132,-2.3937,-2.3511,-2.3159,-2.2947,-2.2669,-2.244,-2.2324,-2.2313,-2.2313,-2.2313,-2.2313,-2.2313,-2.2313,-2.2313,-2.2313,-2.2296,-2.2077,-2.1749,-2.1384,-2.1446,-2.1524,-2.1306,-2.126,-2.1023,-2.0416,-1.9947,-1.9813,-2.0109,-2.0434,-2.0778,-2.1111,-2.1739,-2.2113,-2.1834,-2.2014,-2.2149,-2.1789,-2.1695,-2.1695,-2.1744,-2.1987,-2.2087,-2.1745,-2.1004,-2.0272,-2.8833,-2.8172,-2.8858,-2.8216,-2.662,-2.5254,-2.4612,-2.4502,-2.4502,-2.4502,-2.452,-2.4502,-2.4456,-2.4374,-2.4651,-2.5144,-2.5679,-2.5205,-2.5485,-2.6269,-2.5435,-2.5179,-2.5457,-2.536,-2.536,-2.5457,-2.5365,-2.5308,-2.5308,-2.5308,-2.5308,-2.5308,-2.5308,-2.5308,-2.5308,-2.5308,-2.5335,-2.5417,-2.5485,-2.5515,-2.5479,-2.5559,-2.5229,-2.4541,-2.5152,-2.4844,-2.3457,-2.3926,-2.3906,-2.3242,-2.3242,-2.3457,-2.3828,-2.3144,-2.3574,0.0,-2.557,0.0,0.0,0.0,0.0,0.0,0.0,0.0,0.0,-2.4884,-2.4657,-2.4284,-2.4209,-2.4199,-2.4199,-2.3896,-2.3566,-2.3224,-2.2893,-2.2586,-2.2335,-2.2313,-2.2313,-2.2313,-2.2313,-2.2313,-2.2313,-2.2313,-2.2313,-2.2296,-2.2282,-2.212,-2.1825,-2.2003,-2.2092,-2.1749,-2.1598,-2.1149,-2.0434,-1.9965,-1.9887,-2.0408,-2.0494,-2.0797,-2.1246,-2.1455,-2.153,-2.1425,-2.147,-2.153,-2.147,-2.1395,-2.1395,-2.1355,-2.1376,-2.1416,-2.1436,-2.0803,-2.0025,-3.0485,-2.9769,-2.9904,-2.9053,-2.7548,-2.7247,-2.6741,-2.6153,-2.6143,-2.6153,-2.6153,-2.6143,-2.5797,-2.5266,-2.607,-2.6268,-2.5955,-2.5939,-2.6149,-2.6526,-2.5638,-2.5629,-2.6288,-2.5635,-2.5673,-2.6269,-2.5654,-2.5308,-2.5308,-2.5308,-2.5308,-2.5308,-2.5308,-2.5308,-2.5308,0.0,0.0,0.0,-2.5549,-2.5513,-2.5421,-2.5541,-2.5509,-2.5278,-2.4853,0.0,-2.418,-2.3633,-2.3281,-2.3164,-2.3769,0.0,0.0,0.0,0.0,0.0,0.0,0.0,0.0,0.0,0.0,0.0,-2.5339,-2.5298,-2.5229,-2.4968,-2.47,-2.4479,-2.4294,-2.4199,-2.419,-2.3896,-2.3566,-2.3224,-2.291,-2.2616,-2.2335,-2.2327,-2.2313,-2.2313,-2.2313,-2.2313,-2.2313,-2.2313,-2.2313,-2.2313,-2.2313,-2.2251,-2.218,-2.224,-2.2251,-2.2152,-2.1615,-2.0943,-2.0366,-1.9982,-1.9789,-1.9887,-1.9884,-1.9977,-2.0139,-2.0587,-2.0662,-2.0273,-2.0513,-2.0707,-2.0232,-2.0082,-2.0172,-2.0097,-2.0112,-2.0228,-2.0748,-2.0721,-2.0391,-3.1176,0.0,-3.0809,-3.0332,0.0,-2.9579,-2.9347,-2.887,-2.7281,-2.6602,-2.6612,-2.6702,-2.6513,-2.619,-2.6914,-2.7312,-2.7374,-2.7141,-2.7332,-2.7775,-2.6986,-2.6832,-2.7217,-2.6794,-2.6813,-2.7217,-2.6813,-2.6365,-2.5962,-2.5942,-2.5712,-2.5308,-2.5308,-2.5308,-2.5293,-2.5367,-2.5431,-2.551,-2.5601,-2.5608,-2.5533,-2.5607,-2.5634,-2.5582,-2.5231,0.0,0.0,0.0,0.0,0.0,0.0,0.0,0.0,0.0,0.0,-2.5078,-2.537,-2.5552,-2.5549,-2.5418,-2.5361,-2.5357,-2.5322,-2.5264,-2.5176,-2.4855,-2.4607,-2.4493,-2.4321,-2.4199,-2.419,-2.4036,-2.3816,-2.3488,-2.3282,-2.3075,-2.2786,-2.2594,-2.2483,-2.2473,-2.2371,-2.2313,-2.2313,-2.2313,-2.2313,-2.2313,-2.2313,-2.2313,-2.2313,-2.2313,-2.2313,-2.2282,-2.1749,-2.1134,-2.0715,-2.0278,-1.9894,-1.978,-1.9723,-1.9723,-1.9723,-1.9992,-2.0079,-1.9798,-1.9989,-2.0079,-1.9828,-1.9723,-1.9723,-1.9723,-1.9723,-1.9783,-2.0154,-2.0213,-2.0124,-3.2173,-3.2039,-3.2045,-3.1874,-3.1617,-3.1604,-3.1531,-3.1201,0.0,0.0,0.0,-2.7295,-2.7252,-2.7139,-2.771,-2.8271,-2.8765,-2.8279,-2.8426,-2.905,-2.828,-2.7972,-2.8088,-2.7972,-2.7972,-2.8107,-2.7953,-2.7434,-2.664,-2.6621,-2.6159,-2.5365,-2.5308,-2.5308,-2.5303,-2.5418,-2.5479,-2.5517,-2.5633,-2.5703,-2.5683,-2.5703,-2.5703,-2.5683,-2.5703,-2.5703,-2.5703,-2.5703,-2.5703,-2.5703,-2.5703,-2.5703,-2.5703,-2.5703,-2.5703,-2.5684,-2.5567,-2.551,-2.5508,-2.5368,-2.5308,-2.5308,-2.5308,-2.5224,-2.5052,-2.4745,-2.4561,-2.4543,-2.433,-2.4199,-2.4199,-2.4199,-2.4074,-2.3753,-2.3721,-2.3544,-2.3153,-2.2885,-2.2673,-2.2625,-2.2426,-2.2313,-2.2313,-2.2313,-2.2313,-2.2313,-2.2313,-2.2313,-2.2313,-2.2313,-2.2268,-2.212,-2.1764,-2.1445,-2.1055,-2.0682,-2.0296,-1.9925,-1.9836,-1.9782,-1.9726,-1.9723,-1.9723,-1.9738,-1.9723,-1.9723,-1.9723,-1.9723,-1.9723,-1.9723,-1.9723,-1.9723,-1.9723,-1.9723,-1.9738,-3.5165,-3.4491,-3.4491,-3.3683,-3.2449,-3.2417,-3.2045,-3.1323,-3.0173,-2.9684,-2.9671,-2.9251,-2.863,-2.7988,-2.8965,-2.917,-2.8789,-2.8701,-2.8836,-2.9044,-2.8275,-2.828,-2.8896,-2.8222,-2.8261,-2.8838,-2.8261,-2.7448,-2.6697,-2.6621,-2.6154,-2.5404,-2.5308,-2.5308,-2.5303,-2.5383,-2.5444,-2.5493,-2.5633,-2.5662,-2.5628,-2.5662,-2.5662,-2.561,-2.5662,-2.5703,-2.5703,-2.5703,-2.5703,-2.5703,-2.5703,-2.5703,-2.5703,-2.5703,-2.5703,-2.5703,-2.5567,-2.551,-2.5508,-2.5368,-2.5308,-2.5308,-2.5308,-2.5279,-2.5253,-2.4968,-2.476,-2.4746,-2.4419,-2.4199,-2.4199,-2.4199,-2.4074,-2.3774,-2.3721,-2.3477,-2.2923,-2.2784,-2.2647,-2.2453,-2.2321,-2.231,-2.2296,-2.2313,-2.2313,-2.2313,-2.2313,-2.2313,-2.2313,-2.2313,-2.212,-2.1809,-2.1658,-2.143,-2.1134,-2.0959,-2.0699,-2.028,-2.0227,-2.0106,-1.9803,-1.9747,-1.9744,-1.9723,-1.9723,-1.9723,-1.9723,-1.9723,-1.9723,-1.9723,-1.9723,-1.9723,-1.9723,-1.9723,-1.9723,-3.6064,-3.5716,-3.5716,-3.5293,-3.4578,-3.4105,-3.3426,-3.2651,-3.183,-3.1256,-3.0876,-3.0878,-3.0687,-3.0396,-3.0953,-3.0898,-3.0369,-3.0382,-3.0164,-2.9788,-2.9423,-2.9448,-2.975,-2.941,-2.9442,-2.9775,-2.9448,-2.8813,-2.8025,-2.7948,-2.7313,-2.6058,-2.5538,-2.5308,-2.5303,-2.5406,-2.5474,-2.5513,-2.5599,-2.5638,-2.5659,-2.5683,-2.5683,-2.566,-2.5703,-2.5703,-2.5703,-2.5703,-2.5703,-2.5703,-2.5703,-2.5703,-2.5703,-2.5703,-2.5703,-2.5703,-2.5587,-2.551,-2.551,-2.5364,-2.5308,-2.5308,-2.5308,-2.5308,-2.5303,-2.4981,-2.476,-2.4639,-2.4357,-2.4199,-2.4199,-2.4199,-2.4151,-2.3996,-2.3976,-2.3855,-2.3584,-2.3335,-2.3123,-2.2837,-2.2634,-2.2463,-2.2324,-2.2313,-2.2313,-2.2313,-2.2313,-2.2313,-2.2313,-2.2313,-2.2223,-2.2049,-2.1988,-2.1779,-2.1431,-2.1322,-2.1134,-2.0748,-2.0698,-2.0501,-2.0129,-2.0024,-1.9929,-1.9762,-1.9723,-1.9723,-1.9708,-1.9723,-1.9723,-1.9723,-1.9723,-1.9723,-1.9723,-1.9723,-1.9723,-3.6725,-3.6574,-3.6593,-3.6468,-3.6248,-3.5587,-3.4821,-3.4045,-3.3482,-3.2764,-3.2035,-3.2146,-3.2222,-3.2323,-3.2518,-3.2347,-3.2013,-3.1968,-3.15,-3.075,-3.0692,-3.0673,-3.0673,-3.0519,-3.05,-3.0635,-3.0519,-2.9948,-2.9184,-2.9107,-2.8357,-2.6909,-2.5827,-2.5404,-2.5601,-2.5487,-2.546,-2.551,-2.5552,-2.5608,-2.5703,-2.5703,-2.5703,-2.5703,-2.5703,-2.5703,-2.5703,-2.5703,-2.5703,-2.5703,-2.5703,-2.5703,-2.5703,-2.5703,-2.5703,-2.5684,-2.5595,-2.5517,-2.5463,-2.5371,-2.5308,-2.5308,-2.5308,-2.5279,-2.5214,-2.5006,-2.4771,-2.4575,-2.4339,-2.4199,-2.4199,-2.4199,-2.4199,-2.4199,-2.4199,-2.4132,-2.4074,-2.3847,-2.3577,-2.3236,-2.291,-2.2595,-2.2436,-2.2335,-2.2313,-2.2313,-2.2313,-2.2313,-2.2313,-2.2313,-2.2313,-2.2313,-2.2313,-2.2166,-2.1809,-2.1764,-2.1583,-2.1213,-2.1134,-2.0927,-2.0619,-2.0468,-2.0365,-2.0137,-2.0032,-1.9997,-1.9892,-1.9839,-1.9803,-1.9747,-1.9723,-1.9723,-1.9723,-1.9723,-1.9723,-3.8028,-3.7437,-3.7401,-3.696,-3.634,-3.6211,-3.5697,-3.4972,-3.5112,-3.4592,-3.3545,-3.2622,-3.2408,-3.2557,-3.2816,-3.2859,-3.2776,-3.2795,-3.2352,-3.1635,-3.1583,-3.1577,-3.1506,-3.0808,-3.0808,-3.1404,-3.0846,-3.0102,-2.93,-2.9127,-2.8665,-2.7678,-2.6115,-2.575,-2.6318,-2.5726,-2.5395,-2.5508,-2.5517,-2.5585,-2.5684,-2.5703,-2.5703,-2.5703,-2.5703,-2.5703,-2.5703,-2.5703,-2.5703,-2.5703,-2.5703,-2.5703,-2.5703,-2.5703,-2.5703,-2.5703,-2.5633,-2.5543,-2.5431,-2.5324,-2.5293,-2.5308,-2.5308,-2.5224,-2.5077,-2.5004,-2.493,-2.4749,-2.4409,-2.4228,-2.4199,-2.4199,-2.4199,-2.4199,-2.4199,-2.4084,-2.3837,-2.3732,-2.3566,-2.3236,-2.2947,-2.2699,-2.2621,-2.2422,-2.231,-2.2313,-2.2313,-2.2313,-2.2313,-2.2313,-2.2313,-2.2313,-2.2313,-2.2282,-2.2211,-2.224,-2.2003,-2.1628,-2.1553,-2.1367,-2.1086,-2.0943,-2.091,-2.0702,-2.078,-2.06,-2.0365,-2.0229,-2.0074,-1.9823,-1.9747,-1.9723,-1.9723,-1.9723,-1.9723,-3.8524,-3.8212,-3.8193,-3.7749,-3.7052,-3.7015,-3.6523,-3.5766,-3.5339,-3.504,-3.4791,-3.4325,-3.4055,-3.3865,-3.4088,-3.4012,-3.368,-3.366,-3.3199,-3.2449,-3.241,-3.241,-3.2372,-3.2064,-3.2102,-3.2372,-3.2025,-3.1468,-3.0583,-2.9627,-2.8915,-2.853,-2.7409,-2.7024,-2.7299,-2.6535,-2.6153,-2.6191,-2.574,-2.5549,-2.5633,-2.5683,-2.5703,-2.5703,-2.5703,-2.5703,-2.5703,-2.5703,-2.5703,-2.5703,-2.5703,-2.5703,-2.5703,-2.5703,-2.5703,-2.5703,-2.5636,-2.5525,-2.5397,-2.5364,-2.5344,-2.5293,-2.5308,-2.5264,-2.5192,-2.5057,-2.4974,-2.4878,-2.458,-2.4375,-2.4366,-2.4266,-2.4199,-2.4199,-2.4199,-2.4133,-2.4016,-2.3996,-2.3858,-2.3533,-2.32,-2.2905,-2.2712,-2.2463,-2.2324,-2.2313,-2.2313,-2.2324,-2.2296,-2.2313,-2.2313,-2.2313,-2.2313,-2.2313,-2.2313,-2.2313,-2.2194,-2.2061,-2.2017,-2.1868,-2.1492,-2.1363,-2.1286,-2.1068,-2.1066,-2.1007,-2.0748,-2.0449,-2.0212,-2.0002,-1.98,-1.9723,-1.9723,-1.9723,-1.9723,-3.8707,-3.8707,-3.8707,-3.8358,-3.786,-3.7841,-3.7382,-3.6597,-3.5954,-3.5708,-3.5706,-3.5808,-3.5612,-3.5297,-3.5372,-3.5097,-3.4609,-3.4545,-3.4083,-3.3314,-3.3263,-3.3237,-3.3237,-3.2987,-3.3026,-3.3179,-3.2968,-3.2583,-3.1872,-3.0294,-2.9563,-2.9608,-2.8544,-2.8011,-2.8112,-2.7426,-2.6915,-2.6657,-2.611,-2.5753,-2.5637,-2.5657,-2.5683,-2.5703,-2.5703,-2.5703,-2.5703,-2.5703,-2.5703,-2.5703,-2.5703,-2.5703,-2.5703,-2.5703,-2.5703,-2.5703,-2.5654,-2.5552,-2.5441,-2.5397,-2.5371,-2.5308,-2.5308,-2.5308,-2.5274,-2.5182,-2.5094,-2.5065,-2.4823,-2.462,-2.4495,-2.4321,-2.4199,-2.4199,-2.4199,-2.4199,-2.419,-2.4199,-2.4094,-2.3847,-2.3555,-2.3212,-2.2898,-2.2695,-2.2571,-2.2467,-2.2426,-2.236,-2.2324,-2.2313,-2.2313,-2.2313,-2.2313,-2.2313,-2.2313,-2.2313,-2.2313,-2.2313,-2.2268,-2.2155,-2.1863,-2.1797,-2.1761,-2.1624,-2.1425,-2.1258,-2.1181,-2.0862,-2.0451,-2.0278,-2.0015,-1.9726,-1.9723,-1.9723,-1.9723,-3.8707,-3.8726,-3.8707,-3.8707,-3.8634,-3.8615,-3.8175,-3.7437,-3.7345,-3.6956,-3.6366,-3.6533,-3.662,-3.6522,-3.6365,-3.596,-3.5491,-3.5385,-3.493,-3.4199,-3.4148,-3.4148,-3.409,-3.3333,-3.3372,-3.4045,-3.3468,-3.3026,-3.2776,-3.1212,-3.0788,-3.1391,-2.9313,-2.8415,-2.8915,-2.8349,-2.7499,-2.6927,-2.6676,-2.6317,-2.5705,-2.562,-2.5634,-2.5684,-2.5703,-2.5703,-2.5703,-2.5703,-2.5703,-2.5703,-2.5703,-2.5703,-2.5703,-2.5703,-2.5703,-2.5684,-2.5636,-2.5566,-2.5508,-2.5434,-2.5379,-2.5313,-2.5308,-2.5308,-2.5308,-2.5274,-2.5264,-2.5274,-2.5065,-2.4824,-2.4575,-2.4347,-2.4228,-2.4199,-2.4199,-2.4199,-2.4199,-2.4199,-2.4199,-2.4113,-2.3837,-2.3553,-2.3254,-2.3183,-2.3012,-2.2829,-2.2704,-2.2586,-2.2402,-2.2324,-2.2313,-2.2313,-2.2313,-2.2313,-2.2313,-2.2313,-2.2313,-2.2313,-2.2296,-2.2279,-2.2279,-2.2251,-2.2217,-2.2186,-2.2075,-2.1899,-2.169,-2.1353,-2.0943,-2.0566,-2.0017,-1.9762,-1.9723,-1.9723,-1.9723,-3.9918,-3.946,-3.946,-3.9184,-3.8707,-3.8707,-3.8524,-3.8212,-3.7731,-3.7364,-3.7121,-3.7163,-3.703,-3.672,-3.7325,-3.7024,-3.6045,-3.5667,-3.5334,-3.5045,-3.5026,-3.5026,-3.5007,-3.4692,-3.4699,-3.4923,-3.4718,-3.4276,-3.3641,-3.2545,-3.2141,-3.2314,-3.1583,-3.1025,-3.066,-2.9929,-2.9085,-2.8222,-2.7244,-2.6508,-2.6265,-2.5812,-2.5564,-2.5634,-2.5682,-2.5703,-2.5703,-2.5703,-2.5703,-2.5703,-2.5703,-2.5703,-2.5703,-2.5703,-2.5703,-2.5703,-2.5682,-2.5608,-2.5505,-2.5488,-2.5404,-2.5317,-2.5308,-2.5308,-2.5308,-2.5308,-2.5308,-2.5269,-2.5116,-2.4937,-2.4811,-2.4564,-2.4348,-2.4228,-2.4199,-2.4218,-2.4199,-2.4199,-2.4199,-2.4161,-2.3907,-2.3757,-2.3892,-2.3531,-2.3365,-2.3643,-2.3174,-2.2738,-2.2563,-2.2426,-2.2324,-2.2313,-2.2313,-2.2313,-2.2313,-2.2313,-2.2313,-2.2313,-2.2296,-2.2296,-2.2296,-2.2296,-2.2248,-2.2234,-2.2296,-2.2268,-2.193,-2.1477,-2.1118,-2.065,-2.0104,-1.9925,-1.9723,-1.9854,-1.9833,-4.0765,-4.0341,-4.0286,-3.9974,-3.9499,-3.9462,-3.9331,-3.9056,-3.8521,-3.8135,-3.7948,-3.7993,-3.7757,-3.7477,-3.8039,-3.7807,-3.685,-3.646,-3.6308,-3.6288,-3.6308,-3.6308,-3.625,-3.6,-3.6038,-3.6269,-3.6308,-3.5853,-3.4988,-3.4141,-3.3603,-3.3314,-3.3064,-3.2506,-3.1718,-3.1096,-3.0294,-2.9102,-2.7953,-2.7219,-2.6746,-2.6178,-2.579,-2.5636,-2.5637,-2.5683,-2.5703,-2.5703,-2.5703,-2.5703,-2.5703,-2.5703,-2.5703,-2.5703,-2.5703,-2.5703,-2.5703,-2.5636,-2.5533,-2.551,-2.5444,-2.5317,-2.5308,-2.5308,-2.5308,-2.5308,-2.5308,-2.5269,-2.5179,-2.5088,-2.4968,-2.4752,-2.452,-2.4339,-2.4247,-2.4346,-2.4566,-2.4603,-2.474,-2.4941,-2.4647,-2.4599,-2.4918,-2.4614,-2.4478,-2.4599,-2.3837,-2.3372,-2.2935,-2.263,-2.2426,-2.2426,-2.2363,-2.2324,-2.2313,-2.231,-2.231,-2.231,-2.2313,-2.2313,-2.2313,-2.2313,-2.2313,-2.2313,-2.2313,-2.2313,-2.208,-2.16,-2.1181,-2.0748,-2.0516,-2.0345,-2.0191,-2.0102,-2.005,-4.1132,-4.104,-4.1095,-4.104,-4.0875,-4.0875,-4.0579,-3.9937,-3.9863,-3.9441,-3.8937,-3.9021,-3.9034,-3.8792,-3.8796,-3.8331,-3.8094,-3.821,-3.8031,-3.7728,-3.7788,-3.7796,-3.7738,-3.7046,-3.7084,-3.7719,-3.7911,-3.7469,-3.6577,-3.5846,-3.5122,-3.4244,-3.3603,-3.2949,-3.1814,-3.1737,-3.0871,-2.9608,-2.903,-2.8241,-2.6946,-2.6753,-2.6436,-2.5861,-2.5797,-2.5869,-2.584,-2.5742,-2.5742,-2.5781,-2.5781,-2.5742,-2.5801,-2.582,-2.5742,-2.5703,-2.5703,-2.5625,-2.5533,-2.5513,-2.5447,-2.5373,-2.5332,-2.5462,-2.5481,-2.5442,-2.5481,-2.5615,-2.5466,-2.529,-2.5143,-2.5112,-2.4915,-2.4539,-2.4469,-2.464,-2.5209,-2.5429,-2.5686,-2.6153,-2.5792,-2.5768,-2.6345,-2.6289,-2.5907,-2.5348,-2.4845,-2.4324,-2.3525,-2.3028,-2.2733,-2.2673,-2.262,-2.2548,-2.2432,-2.231,-2.2307,-2.2307,-2.231,-2.2313,-2.2313,-2.2313,-2.2313,-2.2313,-2.2313,-2.2313,-2.2223,-2.1811,-2.1583,-2.1212,-2.1023,-2.0731,-2.0582,-2.0431,-2.0362,-4.2103,-4.1205,-4.1701,-4.1607,-4.1132,-4.1113,-4.093,-4.0744,-4.0726,-4.0598,-4.0393,-4.043,-4.0532,-4.0704,-4.0816,-4.0539,-4.0087,-4.0893,-4.0178,-3.8114,-3.794,-3.8065,-3.7988,-3.7738,-3.7719,-3.7969,-3.8007,-3.7892,-3.7623,-3.7315,-3.6796,-3.5988,-3.5641,-3.4757,-3.343,-3.2814,-3.1929,-3.091,-2.9704,-2.8821,-2.8323,-2.7853,-2.7491,-2.7357,-2.7358,-2.7428,-2.7422,-2.6348,-2.6035,-2.6562,-2.6602,-2.6602,-2.6602,-2.6582,-2.6328,-2.5781,-2.5703,-2.5661,-2.5591,-2.557,-2.5526,-2.5526,-2.588,-2.6159,-2.6192,-2.6197,-2.6447,-2.6832,-2.6582,-2.6153,-2.6162,-2.6505,-2.6275,-2.5442,-2.5152,-2.5348,-2.6062,-2.6227,-2.6337,-2.651,-2.6374,-2.6612,-2.709,-2.709,-2.6771,-2.6684,-2.58,-2.4795,-2.4387,-2.3685,-2.3075,-2.3021,-2.2933,-2.2884,-2.2773,-2.266,-2.255,-2.2436,-2.236,-2.231,-2.2313,-2.2313,-2.2313,-2.2313,-2.2313,-2.2282,-2.2209,-2.2046,-2.1809,-2.1583,-2.126,-2.1039,-2.0862,-2.0813,-2.0829,-4.291,-4.2084,-4.2525,-4.247,-4.2011,-4.1992,-4.1809,-4.1554,-4.1554,-4.137,-4.1164,-4.1217,-4.1342,-4.1512,-4.1892,-4.1732,-4.1318,-4.24,-4.1665,-3.9623,-3.9328,-3.9258,-3.8988,-3.8931,-3.8719,-3.8592,-3.8796,-3.8757,-3.8488,-3.845,-3.8046,-3.7296,-3.6873,-3.6026,-3.4718,-3.3795,-3.2891,-3.1718,-3.0627,-2.9761,-2.9138,-2.8661,-2.8314,-2.8118,-2.7921,-2.7995,-2.8164,-2.7422,-2.7148,-2.7422,-2.748,-2.748,-2.7461,-2.7187,-2.6758,-2.6348,-2.6191,-2.617,-2.6111,-2.6398,-2.6432,-2.6494,-2.6829,-2.7068,-2.7082,-2.7082,-2.739,-2.7684,-2.7409,-2.7082,-2.7138,-2.7318,-2.7293,-2.6976,-2.6311,-2.6333,-2.6893,-2.7053,-2.7255,-2.7372,-2.7273,-2.7512,-2.786,-2.7934,-2.753,-2.7607,-2.6764,-2.5757,-2.5513,-2.4833,-2.4359,-2.3916,-2.3749,-2.3565,-2.3224,-2.3021,-2.283,-2.2639,-2.245,-2.2363,-2.2313,-2.2313,-2.2313,-2.2313,-2.2313,-2.2313,-2.2237,-2.2135,-2.1943,-2.1705,-2.1553,-2.1492,-2.1415,-2.1524,-2.1478,-4.3478,-4.3441,-4.3478,-4.3406,-4.3351,-4.3351,-4.2947,-4.2433,-4.2378,-4.2011,-4.1526,-4.1743,-4.1662,-4.1545,-4.2197,-4.2181,-4.1914,-4.2621,-4.2755,-4.2211,-4.1918,-4.1431,-4.0739,-4.065,-4.0342,-3.99,-4.0246,-4.0169,-3.9815,-3.9477,-3.8977,-3.8238,-3.7469,-3.65,-3.5718,-3.4776,-3.3583,-3.2442,-3.1872,-3.0916,-2.9511,-2.9344,-2.9014,-2.8417,-2.801,-2.8036,-2.8594,-2.8926,-2.8887,-2.8476,-2.8476,-2.8516,-2.8262,-2.7539,-2.7129,-2.7051,-2.7031,-2.6973,-2.7109,-2.7466,-2.7829,-2.7745,-2.7855,-2.7978,-2.7939,-2.7948,-2.8082,-2.8294,-2.8088,-2.7948,-2.7926,-2.8043,-2.8197,-2.8579,-2.7826,-2.7512,-2.78,-2.7915,-2.8154,-2.8551,-2.8356,-2.8136,-2.8803,-2.8803,-2.851,-2.8117,-2.7728,-2.7164,-2.671,-2.6081,-2.5703,-2.5257,-2.474,-2.4334,-2.4015,-2.3375,-2.3206,-2.3045,-2.2768,-2.2531,-2.2366,-2.231,-2.2313,-2.2313,-2.2313,-2.2313,-2.2282,-2.218,-2.2149,-2.2077,-2.202,-2.2003,-2.2005,-2.2005,-2.213,-4.3166,-4.2708,-4.324,-4.3479,-4.3479,-4.3479,-4.3387,-4.3185,-4.3149,-4.3002,-4.2871,-4.2954,-4.3005,-4.3231,-4.3338,-4.3259,-4.317,-4.3901,-4.3668,-4.286,-4.3385,-4.3135,-4.2547,-4.2393,-4.2239,-4.197,-4.1585,-4.1681,-4.197,-4.0766,-4.0065,-3.9823,-3.8892,-3.8123,-3.7276,-3.5911,-3.5019,-3.4346,-3.3135,-3.2122,-3.1179,-3.0948,-3.0628,-2.9939,-2.9707,-2.9741,-3.0059,-3.0311,-3.0059,-2.9394,-2.9902,-2.9902,-2.9258,-2.8457,-2.7969,-2.7891,-2.7422,-2.7344,-2.7832,-2.8124,-2.818,-2.8148,-2.8613,-2.8835,-2.8786,-2.878,-2.9102,-2.9429,-2.9236,-2.88,-2.8871,-2.926,-2.9602,-2.9587,-2.9115,-2.8848,-2.8888,-2.8973,-2.9021,-2.8978,-2.8796,-2.8803,-2.8895,-2.8968,-2.8895,-2.8601,-2.8209,-2.7824,-2.746,-2.7035,-2.6537,-2.6136,-2.5666,-2.5236,-2.4717,-2.4003,-2.3591,-2.3488,-2.32,-2.2786,-2.2548,-2.231,-2.231,-2.2313,-2.2313,-2.2313,-2.2313,-2.2268,-2.2313,-2.2313,-2.2254,-2.2166,-2.2211,-2.2259,-2.2649,-4.3239,-4.2837,-4.3313,-4.3479,-4.3479,-4.3479,-4.3479,-4.3479,-4.3479,-4.3479,-4.3479,-4.3479,-4.3614,-4.3788,-4.3921,-4.3975,-4.3983,-4.4695,-4.4618,-4.4193,-4.4542,-4.4143,-4.3335,-4.3085,-4.3085,-4.3047,-4.2604,-4.2643,-4.2758,-4.1681,-4.1104,-4.0777,-3.9861,-3.9065,-3.8469,-3.7296,-3.6154,-3.5462,-3.4423,-3.3468,-3.2314,-3.1852,-3.1516,-3.1004,-3.0776,-3.056,-3.0695,-3.0816,-3.0625,-3.0351,-3.0605,-3.0664,-3.0137,-2.9316,-2.8867,-2.8828,-2.834,-2.8359,-2.8769,-2.9073,-2.9214,-2.9227,-2.959,-2.9655,-2.966,-2.964,-2.9962,-3.0173,-2.989,-2.9698,-2.9717,-3.0135,-3.0279,-3.0157,-3.0085,-2.9856,-2.958,-2.9407,-2.9322,-2.9181,-2.9067,-2.8987,-2.8987,-2.8987,-2.8987,-2.8913,-2.8638,-2.8448,-2.8253,-2.7776,-2.7244,-2.6722,-2.6153,-2.5599,-2.4927,-2.4174,-2.3792,-2.371,-2.3444,-2.3056,-2.2786,-2.2467,-2.2363,-2.238,-2.2338,-2.231,-2.2338,-2.2338,-2.2313,-2.2313,-2.2313,-2.2465,-2.2581,-2.2767,-2.3139,-4.3479,-4.3479,-4.3479,-4.3479,-4.3479,-4.3479,-4.3479,-4.3479,-4.3479,-4.3479,-4.3479,-4.3479,-4.3513,-4.3513,-4.3788,-4.4113,-4.4489,-4.4688,-4.5112,-4.518,-4.5348,-4.4797,-4.3758,-4.3682,-4.3643,-4.3547,-4.3335,-4.3374,-4.3239,-4.2431,-4.1893,-4.1527,-4.0296,-3.9534,-3.9227,-3.8488,-3.7353,-3.6365,-3.575,-3.4776,-3.3468,-3.266,-3.2162,-3.1839,-3.111,-3.0905,-3.0949,-3.0957,-3.0859,-3.0898,-3.0918,-3.0859,-3.0742,-3.0039,-2.9707,-2.9629,-2.9512,-2.9434,-2.9766,-3.0227,-3.057,-3.0455,-3.0392,-3.0486,-3.0328,-3.0279,-3.0288,-3.0385,-3.0404,-3.0288,-3.0288,-3.0404,-3.0379,-3.0349,-3.038,-3.0188,-2.9848,-2.9561,-2.9414,-2.9382,-2.9167,-2.9021,-2.8987,-2.8987,-2.8987,-2.8987,-2.8822,-2.8767,-2.8583,-2.8198,-2.7622,-2.7016,-2.6429,-2.5805,-2.5061,-2.4271,-2.4032,-2.3837,-2.3566,-2.3253,-2.3063,-2.2798,-2.2575,-2.2484,-2.2517,-2.249,-2.2412,-2.2402,-2.2386,-2.2415,-2.2482,-2.2835,-2.3173,-2.341,-2.3746,-4.3479,-4.3479,-4.3479,-4.3479,-4.3479,-4.3479,-4.3479,-4.3479,-4.3479,-4.3479,-4.3479,-4.3479,-4.3479,-4.3515,-4.3614,-4.3807,-4.4146,-4.4313,-4.4555,-4.5182,-4.5504,-4.547,-4.5017,-4.494,-4.4998,-4.4825,-4.4297,-4.4393,-4.4412,-4.3066,-4.2181,-4.2508,-4.1277,-4.0246,-4.0112,-3.9527,-3.8919,-3.8257,-3.718,-3.5962,-3.4942,-3.3968,-3.3198,-3.2623,-3.1931,-3.1783,-3.1789,-3.13,-3.0937,-3.0918,-3.0957,-3.1016,-3.0762,-3.0117,-2.998,-3.0254,-2.9961,-2.9922,-3.0469,-3.0723,-3.0813,-3.0679,-3.0614,-3.054,-3.0486,-3.0428,-3.0416,-3.0404,-3.0404,-3.0404,-3.0404,-3.0404,-3.0404,-3.0404,-3.0398,-3.0374,-3.0202,-2.9891,-2.9607,-2.9414,-2.92,-2.8987,-2.8987,-2.8987,-2.8987,-2.8987,-2.8987,-2.8987,-2.873,-2.8448,-2.7714,-2.6924,-2.6274,-2.5595,-2.5034,-2.4373,-2.415,-2.4006,-2.3756,-2.3588,-2.338,-2.3372,-2.3237,-2.3017,-2.2776,-2.2721,-2.2735,-2.2593,-2.2598,-2.264,-2.2818,-2.3291,-2.3731,-2.4017,-2.4474,-4.3479,-4.3479,-4.3479,-4.3479,-4.3479,-4.3479,-4.3479,-4.3479,-4.3479,-4.3479,-4.3479,-4.3479,-4.3479,-4.3479,-4.3513,-4.3677,-4.4028,-4.4382,-4.4713,-4.514,-4.5448,-4.5586,-4.5594,-4.5594,-4.5594,-4.5518,-4.5163,-4.524,-4.497,-4.3989,-4.3278,-4.3528,-4.2297,-4.1546,-4.1143,-4.0662,-4.0027,-3.9111,-3.8027,-3.6911,-3.6058,-3.4814,-3.3782,-3.3087,-3.2645,-3.2622,-3.2666,-3.2371,-3.1894,-3.1601,-3.1484,-3.1289,-3.0937,-3.0488,-3.0488,-3.0664,-3.0566,-3.0371,-3.0801,-3.0898,-3.0857,-3.0698,-3.0648,-3.0568,-3.0507,-3.0455,-3.0416,-3.0404,-3.0404,-3.0404,-3.0404,-3.0404,-3.0404,-3.0404,-3.0404,-3.0404,-3.0323,-3.0066,-2.9754,-2.9561,-2.9353,-2.9149,-2.9055,-2.9044,-2.9005,-2.9017,-2.8987,-2.8932,-2.8319,-2.7952,-2.7265,-2.6531,-2.5888,-2.5301,-2.486,-2.4465,-2.4226,-2.4123,-2.4026,-2.3937,-2.3865,-2.3949,-2.4044,-2.366,-2.3258,-2.3219,-2.3188,-2.3017,-2.3076,-2.3468,-2.3797,-2.4051,-2.4374,-2.4814,-2.5338,-4.3479,-4.3479,-4.3479,-4.3479,-4.3479,-4.3479,-4.3479,-4.3479,-4.3479,-4.3479,-4.3479,-4.3479,-4.3479,-4.3479,-4.3479,-4.366,-4.4001,-4.4476,-4.4762,-4.4842,-4.5273,-4.5438,-4.5495,-4.5531,-4.5594,-4.5594,-4.5518,-4.5575,-4.5364,-4.4786,-4.4066,-4.4105,-4.3451,-4.2585,-4.2085,-4.1931,-4.1277,-3.9988,-3.9027,-3.8084,-3.7103,-3.5641,-3.4391,-3.3698,-3.335,-3.3384,-3.3393,-3.3215,-3.293,-3.2266,-3.2187,-3.1719,-3.1152,-3.0918,-3.0918,-3.0898,-3.082,-3.084,-3.0859,-3.0898,-3.0857,-3.0722,-3.0663,-3.0594,-3.0521,-3.0472,-3.0417,-3.039,-3.0404,-3.0404,-3.0404,-3.0404,-3.0404,-3.0404,-3.0404,-3.0404,-3.0361,-3.0196,-2.9996,-2.9763,-2.9561,-2.9355,-2.9203,-2.9134,-2.9074,-2.9017,-2.898,-2.873,-2.8099,-2.7449,-2.677,-2.6256,-2.566,-2.5439,-2.5026,-2.4538,-2.4318,-2.4355,-2.4271,-2.4289,-2.4316,-2.4501,-2.4526,-2.4102,-2.3803,-2.3848,-2.3815,-2.3653,-2.3863,-2.4386,-2.4659,-2.4795,-2.5169,-2.5626,-2.6065,-4.3479,-4.3479,-4.3479,-4.3479,-4.3479,-4.3479,-4.3479,-4.3479,-4.3479,-4.3479,-4.3479,-4.3479,-4.3479,-4.3479,-4.3479,-4.3548,-4.3726,-4.4121,-4.4271,-4.4395,-4.4889,-4.5222,-4.5282,-4.5475,-4.5586,-4.5594,-4.5594,-4.5594,-4.5402,-4.4786,-4.4509,-4.4182,-4.3624,-4.3085,-4.297,-4.2816,-4.2354,-4.1104,-4.0246,-3.9419,-3.8411,-3.6969,-3.5718,-3.4905,-3.4422,-3.4208,-3.4124,-3.3652,-3.2975,-3.2305,-3.2207,-3.1738,-3.1172,-3.0976,-3.0918,-3.0918,-3.0918,-3.0918,-3.0918,-3.0918,-3.0898,-3.0837,-3.0742,-3.0661,-3.0591,-3.0509,-3.0447,-3.0414,-3.0404,-3.0404,-3.0404,-3.0404,-3.0404,-3.0404,-3.0404,-3.0404,-3.0379,-3.0317,-3.0202,-2.9988,-2.9782,-2.9579,-2.9425,-2.9299,-2.9235,-2.9067,-2.8872,-2.8419,-2.7732,-2.7034,-2.6329,-2.587,-2.5476,-2.5403,-2.5311,-2.4787,-2.4447,-2.4612,-2.462,-2.462,-2.473,-2.5016,-2.4978,-2.5027,-2.4858,-2.4787,-2.464,-2.4475,-2.4582,-2.5043,-2.5274,-2.5488,-2.5825,-2.6162,-2.6302,-4.3479,-4.3479,-4.3479,-4.3479,-4.3479,-4.3479,-4.3479,-4.3479,-4.3479,-4.3479,-4.3479,-4.3479,-4.3479,-4.3479,-4.3479,-4.3479,-4.358,-4.3852,-4.4001,-4.4161,-4.4713,-4.5115,-4.5137,-4.5429,-4.5549,-4.5594,-4.5594,-4.5594,-4.5575,-4.5229,-4.494,-4.4921,-4.4536,-4.4182,-4.3797,-4.3682,-4.2989,-4.1989,-4.1008,-4.0169,-3.9238,-3.7623,-3.6558,-3.6048,-3.5415,-3.5049,-3.5005,-3.4905,-3.4267,-3.3564,-3.3066,-3.2383,-3.1719,-3.1191,-3.0957,-3.0976,-3.0937,-3.0918,-3.0918,-3.0918,-3.0898,-3.0879,-3.0771,-3.069,-3.0626,-3.0558,-3.0511,-3.0417,-3.0404,-3.0404,-3.0404,-3.0404,-3.0404,-3.0404,-3.0404,-3.0404,-3.0404,-3.0404,-3.0311,-3.017,-2.9996,-2.978,-2.9616,-2.9513,-2.9415,-2.9165,-2.8847,-2.8226,-2.7514,-2.6909,-2.6304,-2.58,-2.5561,-2.5815,-2.5833,-2.5521,-2.5071,-2.5107,-2.5144,-2.5144,-2.5485,-2.5907,-2.6366,-2.6658,-2.6377,-2.5946,-2.5997,-2.6002,-2.5884,-2.5746,-2.6143,-2.6435,-2.6493,-2.665,-2.6824,-4.3479,-4.3533,-4.3681,-4.3644,-4.3533,-4.3698,-4.3644,-4.3516,-4.3479,-4.3479,-4.3479,-4.3479,-4.3479,-4.3479,-4.3479,-4.3496,-4.3531,-4.3788,-4.3865,-4.3986,-4.4495,-4.4842,-4.4977,-4.5273,-4.5457,-4.5438,-4.5586,-4.5594,-4.5594,-4.5518,-4.5575,-4.5479,-4.5556,-4.5325,-4.469,-4.4566,-4.3528,-4.2585,-4.1662,-4.0804,-3.9438,-3.8104,-3.7096,-3.6892,-3.6233,-3.582,-3.5873,-3.5678,-3.5221,-3.4526,-3.3926,-3.3281,-3.25,-3.1797,-3.1426,-3.1348,-3.1113,-3.0937,-3.0918,-3.0918,-3.0918,-3.0898,-3.082,-3.0744,-3.0769,-3.0756,-3.0752,-3.0516,-3.066,-3.0558,-3.0462,-3.0404,-3.0404,-3.0404,-3.0404,-3.0404,-3.0404,-3.0404,-3.0404,-3.0273,-3.0157,-3.0011,-2.9823,-2.9748,-2.967,-2.9495,-2.9175,-2.8604,-2.7913,-2.7297,-2.6684,-2.603,-2.584,-2.6248,-2.6392,-2.6465,-2.6117,-2.6007,-2.6007,-2.6017,-2.6476,-2.7001,-2.7339,-2.7541,-2.7636,-2.7276,-2.7404,-2.7259,-2.6783,-2.6667,-2.714,-2.7309,-2.7209,-2.7279,-2.7446,-4.3479,-4.357,-4.4268,-4.414,-4.3663,-4.4232,-4.4121,-4.3625,-4.3552,-4.3479,-4.3606,-4.3479,-4.3479,-4.3479,-4.3479,-4.3479,-4.3513,-4.3546,-4.3612,-4.3693,-4.4046,-4.4261,-4.429,-4.4865,-4.5161,-4.5292,-4.5485,-4.5577,-4.5594,-4.5594,-4.5594,-4.5594,-4.5594,-4.5518,-4.5306,-4.522,-4.4932,-4.4105,-4.3739,-4.2547,-4.0604,-3.9381,-3.8527,-3.7822,-3.7081,-3.6627,-3.6591,-3.6238,-3.5524,-3.4882,-3.4623,-3.4101,-3.3418,-3.3203,-3.3105,-3.2656,-3.1894,-3.0937,-3.1094,-3.1094,-3.1074,-3.1074,-3.0918,-3.082,-3.096,-3.1258,-3.1258,-3.0543,-3.1086,-3.116,-3.0712,-3.0481,-3.0423,-3.0404,-3.0404,-3.0404,-3.0404,-3.0404,-3.0404,-3.0398,-3.0267,-3.0157,-3.0037,-2.9973,-2.9901,-2.9725,-2.9454,-2.8871,-2.8246,-2.7566,-2.7372,-2.6832,-2.6495,-2.6854,-2.7273,-2.7281,-2.72,-2.6969,-2.6979,-2.6972,-2.7321,-2.7725,-2.7743,-2.7945,-2.8154,-2.8216,-2.7992,-2.7713,-2.7398,-2.7435,-2.7652,-2.7734,-2.7762,-2.789,-2.7974,-4.3479,-4.3571,-4.436,-4.4525,-4.425,-4.458,-4.4782,-4.4672,-4.39,-4.3772,-4.4011,-4.3644,-4.3479,-4.3479,-4.3479,-4.3479,-4.3479,-4.3479,-4.3479,-4.3546,-4.382,-4.4001,-4.4204,-4.4732,-4.5105,-4.5169,-4.541,-4.5586,-4.5594,-4.5594,-4.5594,-4.5594,-4.5594,-4.5594,-4.5594,-4.5594,-4.5056,-4.422,-4.3335,-4.2354,-4.12,-4.0046,-3.915,-3.8746,-3.7911,-3.7576,-3.7314,-3.6783,-3.6301,-3.5766,-3.53,-3.4531,-3.4082,-3.3711,-3.3359,-3.3301,-3.2773,-3.2383,-3.2305,-3.1894,-3.168,-3.1465,-3.1289,-3.1055,-3.1357,-3.1696,-3.2069,-3.2022,-3.2196,-3.1941,-3.1314,-3.1135,-3.0808,-3.0615,-3.0404,-3.0404,-3.0404,-3.0404,-3.0404,-3.0404,-3.0398,-3.0292,-3.0202,-3.0182,-3.0082,-2.9897,-2.9558,-2.9003,-2.8299,-2.7565,-2.7596,-2.7839,-2.7613,-2.7578,-2.8033,-2.8308,-2.8253,-2.8106,-2.8124,-2.8136,-2.8165,-2.833,-2.8312,-2.8393,-2.862,-2.8601,-2.8425,-2.8338,-2.8179,-2.8117,-2.807,-2.817,-2.8223,-2.8081,-2.8313,-4.3479,-4.3589,-4.458,-4.4892,-4.4745,-4.4929,-4.5186,-4.5369,-4.4085,-4.3828,-4.4103,-4.3754,-4.3479,-4.3479,-4.3479,-4.3479,-4.3479,-4.3479,-4.3479,-4.3597,-4.3726,-4.3833,-4.4016,-4.4495,-4.4842,-4.4996,-4.5263,-4.5466,-4.5577,-4.5594,-4.5594,-4.5594,-4.5594,-4.5594,-4.5594,-4.5556,-4.524,-4.471,-4.3451,-4.272,-4.2239,-4.1104,-4.0392,-3.9777,-3.9142,-3.8527,-3.8229,-3.7602,-3.724,-3.6627,-3.6004,-3.537,-3.498,-3.459,-3.4316,-3.4297,-3.4082,-3.4062,-3.3711,-3.3223,-3.2656,-3.2305,-3.207,-3.1952,-3.2294,-3.2422,-3.2484,-3.294,-3.2875,-3.2449,-3.1884,-3.1468,-3.0942,-3.0577,-3.0404,-3.0404,-3.0404,-3.0404,-3.0404,-3.0404,-3.0404,-3.0404,-3.0355,-3.0367,-3.026,-3.0054,-2.9636,-2.9143,-2.8651,-2.8056,-2.826,-2.8714,-2.8507,-2.8387,-2.8618,-2.8972,-2.9037,-2.9078,-2.9078,-2.8987,-2.8815,-2.8778,-2.876,-2.8895,-2.9115,-2.8913,-2.8712,-2.8858,-2.8975,-2.8676,-2.848,-2.8654,-2.8678,-2.8596,-2.9148,-4.3479,-4.3625,-4.5149,-4.5369,-4.48,-4.5516,-4.5443,-4.504,-4.3975,-4.3589,-4.3663,-4.3533,-4.3479,-4.3479,-4.3479,-4.3479,-4.3479,-4.3479,-4.3479,-4.3496,-4.3531,-4.358,-4.3758,-4.4035,-4.4332,-4.4644,-4.5022,-4.5342,-4.5522,-4.5577,-4.5586,-4.5594,-4.5594,-4.5594,-4.5594,-4.5575,-4.5556,-4.5114,-4.4248,-4.3874,-4.3624,-4.2931,-4.22,-4.1489,-4.0758,-3.9996,-3.9273,-3.8563,-3.7871,-3.7312,-3.6897,-3.636,-3.5895,-3.5677,-3.5547,-3.5391,-3.5391,-3.5371,-3.5117,-3.416,-3.3418,-3.3281,-3.3144,-3.2988,-3.3281,-3.3984,-3.3999,-3.3537,-3.3609,-3.2951,-3.2033,-3.1096,-3.1038,-3.0712,-3.0596,-3.0404,-3.0404,-3.0404,-3.0404,-3.0404,-3.0404,-3.0404,-3.0404,-3.0404,-3.0404,-3.0203,-3.0196,-2.973,-2.9774,-2.9375,-2.9456,-2.9602,-2.9355,-2.9236,-2.9192,-2.9312,-2.9355,-2.94,-2.9409,-2.9292,-2.9127,-2.9163,-2.9549,-2.9464,-2.9659,-2.9317,-2.9133,-2.9464,-2.9544,-2.9082,-2.8955,-2.9229,-2.9904,-3.0321,-3.1057,-4.3479,-4.3644,-4.5223,-4.5718,-4.5516,-4.6287,-4.6471,-4.5975,-4.4819,-4.392,-4.3534,-4.3479,-4.3479,-4.3497,-4.3479,-4.3479,-4.3479,-4.3479,-4.3516,-4.3479,-4.3479,-4.3497,-4.3631,-4.3841,-4.4102,-4.4346,-4.4781,-4.5118,-4.5263,-4.5457,-4.5577,-4.5594,-4.5594,-4.5594,-4.5594,-4.5594,-4.5594,-4.5383,-4.4825,-4.4335,-4.4143,-4.3547,-4.2931,-4.2604,-4.2393,-4.1643,-4.0881,-4.0037,-3.9239,-3.8523,-3.7967,-3.7348,-3.6744,-3.6657,-3.6419,-3.6113,-3.6074,-3.6016,-3.5879,-3.4863,-3.4023,-3.3437,-3.3418,-3.3652,-3.4141,-3.4512,-3.4807,-3.4678,-3.4571,-3.3916,-3.3372,-3.2515,-3.1929,-3.1288,-3.0885,-3.0673,-3.0577,-3.0654,-3.0442,-3.0481,-3.0423,-3.0404,-3.0404,-3.0404,-3.0404,-3.0373,-3.0379,-3.0373,-3.0311,-3.0248,-3.0136,-3.0006,-2.9746,-2.9561,-2.9484,-2.9566,-2.9662,-2.9738,-2.9774,-2.9793,-2.9816,-3.0405,-3.0681,-3.0485,-3.0265,-3.0136,-3.0136,-3.032,-3.0057,-2.9416,-2.9551,-3.0015,-3.0821,-3.174,-3.2354,-4.3479,-4.3681,-4.5223,-4.5902,-4.6012,-4.6764,-4.7094,-4.6856,-4.5663,-4.4782,-4.4158,-4.3791,-4.3663,-4.3736,-4.3552,-4.3497,-4.3589,-4.3754,-4.3846,-4.3901,-4.3938,-4.3864,-4.3875,-4.3857,-4.3896,-4.4106,-4.4455,-4.4787,-4.5159,-4.5371,-4.5485,-4.5568,-4.5594,-4.5594,-4.5594,-4.5594,-4.5594,-4.5402,-4.5094,-4.4682,-4.4624,-4.4239,-4.3662,-4.3528,-4.3297,-4.2624,-4.1681,-4.0731,-3.9959,-3.9297,-3.8736,-3.8179,-3.7641,-3.718,-3.6856,-3.6484,-3.6152,-3.6016,-3.582,-3.5469,-3.4805,-3.4492,-3.4355,-3.4629,-3.4883,-3.5039,-3.5335,-3.5582,-3.5464,-3.504,-3.4302,-3.3307,-3.2632,-3.2029,-3.1795,-3.1558,-3.1308,-3.125,-3.0827,-3.0558,-3.0615,-3.0788,-3.0404,-3.0404,-3.0423,-3.0423,-3.0404,-3.0404,-3.0367,-3.0305,-3.0235,-3.0109,-2.9939,-2.9782,-2.9626,-2.9748,-2.9892,-3.0128,-3.0235,-3.0549,-3.0765,-3.1336,-3.1469,-3.1069,-3.0917,-3.0992,-3.0993,-3.0925,-3.0356,-2.9647,-3.0222,-3.1072,-3.1579,-3.2419,-3.2708,-4.3479,-4.3681,-4.5186,-4.5865,-4.5993,-4.6764,-4.7131,-4.6966,-4.6085,-4.5645,-4.5369,-4.4213,-4.3938,-4.4287,-4.3901,-4.3626,-4.3718,-4.4287,-4.4599,-4.4525,-4.4452,-4.458,-4.4322,-4.404,-4.371,-4.3958,-4.419,-4.4535,-4.5007,-4.514,-4.5322,-4.5504,-4.5559,-4.5594,-4.5594,-4.5594,-4.5594,-4.5575,-4.5498,-4.5441,-4.5383,-4.522,-4.4816,-4.4412,-4.4132,-4.347,-4.2431,-4.1489,-4.0693,-3.9914,-3.9554,-3.8999,-3.8369,-3.7598,-3.7238,-3.7129,-3.6367,-3.6055,-3.5976,-3.5937,-3.5742,-3.5566,-3.5351,-3.5586,-3.584,-3.5898,-3.5801,-3.5899,-3.5366,-3.484,-3.4218,-3.3698,-3.3251,-3.2904,-3.2663,-3.2313,-3.205,-3.1929,-3.1558,-3.1231,-3.1327,-3.1365,-3.0788,-3.0423,-3.0442,-3.0442,-3.0404,-3.0404,-3.0398,-3.0361,-3.0299,-3.0241,-3.0135,-3.0236,-3.0113,-3.0002,-3.0123,-3.0399,-3.095,-3.1533,-3.1713,-3.1943,-3.1911,-3.1616,-3.1733,-3.194,-3.169,-3.1415,-3.1109,-3.1005,-3.1592,-3.2289,-3.2724,-3.2986,-3.3226,-4.3479,-4.3589,-4.4672,-4.5406,-4.6049,-4.7352,-4.7627,-4.6911,-4.581,-4.5406,-4.548,-4.4195,-4.3938,-4.436,-4.4415,-4.3993,-4.3773,-4.4966,-4.5369,-4.4746,-4.4819,-4.4709,-4.4488,-4.4065,-4.3637,-4.3728,-4.3865,-4.4117,-4.4341,-4.4869,-4.5135,-4.5292,-4.5513,-4.5586,-4.5594,-4.5594,-4.5594,-4.5594,-4.5575,-4.5594,-4.5594,-4.5575,-4.5441,-4.5114,-4.4979,-4.4382,-4.3335,-4.245,-4.1662,-4.0796,-4.047,-3.981,-3.9149,-3.8381,-3.7758,-3.732,-3.6543,-3.6035,-3.6016,-3.5996,-3.5996,-3.6016,-3.6016,-3.6016,-3.6016,-3.6016,-3.5996,-3.5952,-3.5628,-3.5323,-3.5254,-3.4549,-3.4058,-3.3742,-3.3415,-3.2929,-3.265,-3.2666,-3.2487,-3.2179,-3.2135,-3.15,-3.0904,-3.0865,-3.0865,-3.0577,-3.0519,-3.0423,-3.0398,-3.0398,-3.0361,-3.0361,-3.0369,-3.0577,-3.0665,-3.0811,-3.1126,-3.1544,-3.2335,-3.3209,-3.3215,-3.2833,-3.2871,-3.2849,-3.2878,-3.2884,-3.2485,-3.2247,-3.2485,-3.2674,-3.2821,-3.3005,-3.3275,-3.344,-3.3592,-4.3479,-4.3571,-4.436,-4.5168,-4.6049,-4.7333,-4.7553,-4.6892,-4.5737,-4.5571,-4.5792,-4.4415,-4.414,-4.4782,-4.4764,-4.4268,-4.3772,-4.5443,-4.5883,-4.5259,-4.548,-4.5424,-4.5021,-4.4323,-4.4102,-4.3968,-4.412,-4.4403,-4.5024,-4.5217,-4.5338,-4.5399,-4.5485,-4.5577,-4.5594,-4.5594,-4.5594,-4.5594,-4.5594,-4.5594,-4.5594,-4.5594,-4.5594,-4.5537,-4.5421,-4.5133,-4.4382,-4.3643,-4.2874,-4.197,-4.1247,-4.0615,-3.995,-3.9214,-3.8561,-3.7989,-3.7109,-3.6465,-3.6113,-3.6016,-3.6016,-3.6016,-3.6016,-3.6016,-3.6016,-3.6016,-3.6016,-3.5996,-3.5957,-3.5918,-3.5724,-3.5022,-3.487,-3.4556,-3.4369,-3.3897,-3.352,-3.3545,-3.3434,-3.3133,-3.291,-3.2102,-3.1333,-3.1333,-3.1404,-3.1,-3.0635,-3.0558,-3.0462,-3.0404,-3.0423,-3.0436,-3.0686,-3.1053,-3.1468,-3.1912,-3.2252,-3.2697,-3.3412,-3.4182,-3.4145,-3.3687,-3.3887,-3.3962,-3.362,-3.3327,-3.3159,-3.3091,-3.3159,-3.3233,-3.3293,-3.3513,-3.377,-3.3954,-3.4082,-4.3479,-4.3608,-4.436,-4.5094,-4.5902,-4.6691,-4.7058,-4.7021,-4.6232,-4.6287,-4.6801,-4.4433,-4.4232,-4.5369,-4.5021,-4.4268,-4.4011,-4.5865,-4.614,-4.6122,-4.6177,-4.6104,-4.5663,-4.4966,-4.4433,-4.4488,-4.465,-4.4892,-4.6039,-4.582,-4.5639,-4.5544,-4.5541,-4.5586,-4.5594,-4.5594,-4.5594,-4.5594,-4.5594,-4.5594,-4.5594,-4.5594,-4.5594,-4.5594,-4.5537,-4.5229,-4.4624,-4.4047,-4.3162,-4.2393,-4.1766,-4.1282,-4.0705,-3.9985,-3.976,-3.9156,-3.7944,-3.7148,-3.6582,-3.6504,-3.6269,-3.6348,-3.6211,-3.6094,-3.6016,-3.6016,-3.6016,-3.6016,-3.5996,-3.5957,-3.5796,-3.5745,-3.5672,-3.5558,-3.5499,-3.5096,-3.4627,-3.4453,-3.4304,-3.4156,-3.4097,-3.3494,-3.2583,-3.2314,-3.2141,-3.1525,-3.1173,-3.1038,-3.0865,-3.0442,-3.0462,-3.0538,-3.0904,-3.1558,-3.2071,-3.2634,-3.3341,-3.3772,-3.3881,-3.4437,-3.4396,-3.4405,-3.4308,-3.4176,-3.3968,-3.3734,-3.3503,-3.3521,-3.3676,-3.3737,-3.3733,-3.3752,-3.3935,-3.4454,-3.4619,-4.3479,-4.3516,-4.3754,-4.4305,-4.5095,-4.592,-4.6544,-4.6929,-4.625,-4.6067,-4.6122,-4.4305,-4.4158,-4.4984,-4.48,-4.4232,-4.4452,-4.5131,-4.5847,-4.6122,-4.6269,-4.6104,-4.57,-4.5112,-4.447,-4.4268,-4.4451,-4.4999,-4.524,-4.5466,-4.5552,-4.5295,-4.5467,-4.555,-4.5586,-4.5594,-4.5594,-4.5594,-4.5594,-4.5594,-4.5594,-4.5594,-4.5594,-4.5594,-4.5594,-4.5325,-4.5114,-4.4536,-4.3682,-4.2951,-4.2135,-4.1485,-4.0724,-3.991,-3.9349,-3.8799,-3.832,-3.8105,-3.7891,-3.7832,-3.7539,-3.7012,-3.6875,-3.6484,-3.625,-3.6094,-3.6094,-3.6016,-3.6016,-3.5976,-3.5957,-3.5937,-3.5918,-3.5861,-3.5819,-3.5616,-3.521,-3.5146,-3.4999,-3.4908,-3.4852,-3.4398,-3.3545,-3.3333,-3.3083,-3.2295,-3.1775,-3.1641,-3.1423,-3.1038,-3.0692,-3.0769,-3.1442,-3.2199,-3.2718,-3.3288,-3.412,-3.4784,-3.4779,-3.4757,-3.4821,-3.4785,-3.4598,-3.4394,-3.4159,-3.3961,-3.3778,-3.3923,-3.4232,-3.4168,-3.4156,-3.41,-3.4192,-3.4894,-3.5243,-4.3303,-4.3479,-4.3479,-4.3956,-4.4746,-4.5553,-4.6049,-4.6049,-4.5626,-4.5424,-4.5259,-4.4048,-4.3938,-4.4727,-4.5002,-4.4672,-4.3754,-4.5516,-4.6195,-4.5498,-4.6012,-4.5828,-4.5516,-4.5223,-4.4837,-4.4525,-4.4654,-4.5314,-4.5196,-4.523,-4.5345,-4.5173,-4.5361,-4.5476,-4.5549,-4.5594,-4.5594,-4.5594,-4.5594,-4.5594,-4.5594,-4.5594,-4.5594,-4.5594,-4.5594,-4.5594,-4.5556,-4.494,-4.4393,-4.3605,-4.2758,-4.1952,-4.1196,-4.0378,-3.9636,-3.9195,-3.9023,-3.8789,-3.8516,-3.8476,-3.8242,-3.791,-3.7539,-3.7285,-3.6855,-3.6601,-3.6269,-3.6016,-3.6016,-3.6016,-3.6016,-3.6016,-3.5976,-3.5947,-3.5919,-3.589,-3.5808,-3.5777,-3.5659,-3.5553,-3.5284,-3.4917,-3.4565,-3.4392,-3.4045,-3.3295,-3.2699,-3.2372,-3.2237,-3.2006,-3.15,-3.125,-3.2102,-3.2968,-3.343,-3.3833,-3.4628,-3.5172,-3.5222,-3.5215,-3.5246,-3.5051,-3.4765,-3.4563,-3.4345,-3.4189,-3.4062,-3.4507,-3.481,-3.4739,-3.4862,-3.5138,-3.5381,-3.5899,-3.6046,-4.2995,-4.3427,-4.3497,-4.3883,-4.4672,-4.5314,-4.5259,-4.4654,-4.4617,-4.4617,-4.4452,-4.3828,-4.3864,-4.4488,-4.5039,-4.4672,-4.436,-4.5424,-4.5755,-4.4764,-4.5792,-4.581,-4.5333,-4.5296,-4.4819,-4.4947,-4.5168,-4.5296,-4.5531,-4.5438,-4.5209,-4.5057,-4.5137,-4.5272,-4.5438,-4.5577,-4.5594,-4.5594,-4.5594,-4.5594,-4.5594,-4.5594,-4.5594,-4.5594,-4.5594,-4.5594,-4.5594,-4.5441,-4.521,-4.4355,-4.3489,-4.2632,-4.1578,-4.0952,-4.0276,-4.0033,-3.9813,-3.9592,-3.9332,-3.9238,-3.9004,-3.8574,-3.8008,-3.8008,-3.7734,-3.6719,-3.6133,-3.625,-3.6309,-3.6074,-3.6016,-3.6016,-3.5996,-3.5976,-3.5976,-3.5937,-3.5919,-3.5877,-3.5789,-3.5702,-3.5577,-3.5232,-3.5134,-3.491,-3.4488,-3.402,-3.3853,-3.3449,-3.3122,-3.2987,-3.2526,-3.2019,-3.2737,-3.3506,-3.3718,-3.4218,-3.5019,-3.5462,-3.55,-3.5474,-3.5383,-3.5163,-3.4888,-3.4755,-3.4634,-3.4489,-3.4473,-3.4997,-3.5371,-3.538,-3.5621,-3.6219,-3.664,-3.6956,-3.6872,-4.2769,-4.2939,-4.3321,-4.3643,-4.3791,-4.3975,-4.401,-4.3791,-4.3791,-4.3809,-4.3754,-4.3625,-4.3606,-4.3956,-4.4727,-4.4452,-4.414,-4.48,-4.4948,-4.4783,-4.5315,-4.5333,-4.4783,-4.4911,-4.458,-4.4287,-4.447,-4.5002,-4.5091,-4.5043,-4.4844,-4.4421,-4.4676,-4.5085,-4.5282,-4.5429,-4.5559,-4.5586,-4.5594,-4.5594,-4.5594,-4.5594,-4.5594,-4.5594,-4.5594,-4.5594,-4.5594,-4.5556,-4.5075,-4.4355,-4.3547,-4.2354,-4.0908,-4.0765,-4.0643,-4.051,-4.0484,-4.0342,-4.0295,-4.0152,-4.0019,-3.9707,-3.9258,-3.8965,-3.8262,-3.6836,-3.625,-3.6543,-3.6543,-3.6269,-3.6055,-3.6055,-3.6016,-3.6016,-3.6016,-3.5996,-3.5976,-3.5921,-3.5873,-3.5794,-3.5726,-3.565,-3.5547,-3.5292,-3.487,-3.4808,-3.5001,-3.4808,-3.4385,-3.4122,-3.3692,-3.3327,-3.3506,-3.4026,-3.4122,-3.4487,-3.5231,-3.55,-3.55,-3.55,-3.55,-3.5304,-3.5096,-3.5034,-3.4954,-3.5031,-3.5256,-3.5628,-3.5916,-3.6163,-3.6595,-3.7244,-3.7485,-3.7757,-3.7617,-4.2059,-4.2362,-4.2902,-4.3286,-4.3462,-4.3479,-4.3479,-4.3479,-4.3479,-4.3479,-4.3479,-4.3479,-4.3479,-4.3608,-4.4323,-4.4268,-4.3773,-4.4378,-4.4397,-4.4342,-4.4488,-4.447,-4.4433,-4.4488,-4.4176,-4.3864,-4.3956,-4.4267,-4.4578,-4.4366,-4.4135,-4.4053,-4.4495,-4.4793,-4.5,-4.5302,-4.5476,-4.5586,-4.5586,-4.5594,-4.5594,-4.5594,-4.5594,-4.5594,-4.5594,-4.5594,-4.5594,-4.5594,-4.5344,-4.4624,-4.3797,-4.2604,-4.1408,-4.0836,-4.0681,-4.0682,-4.0746,-4.0893,-4.0986,-4.0977,-4.0894,-4.0508,-4.0,-3.9492,-3.9785,-3.8535,-3.7539,-3.7676,-3.709,-3.6758,-3.6543,-3.6484,-3.6152,-3.6016,-3.6016,-3.5996,-3.5996,-3.5954,-3.5917,-3.5867,-3.5797,-3.5746,-3.5643,-3.5547,-3.522,-3.5195,-3.5463,-3.543,-3.5161,-3.4962,-3.4615,-3.4423,-3.4468,-3.4295,-3.4199,-3.4661,-3.5346,-3.55,-3.55,-3.55,-3.5474,-3.5403,-3.5293,-3.54,-3.5634,-3.6027,-3.6285,-3.661,-3.7109,-3.7539,-3.792,-3.8361,-3.8442,-3.8402,-3.8217,-4.1291,-4.1835,-4.2362,-4.2828,-4.3268,-4.3375,-4.3356,-4.3392,-4.3462,-4.3479,-4.3479,-4.3479,-4.3479,-4.3754,-4.4268,-4.3975,-4.3975,-4.4415,-4.4195,-4.3938,-4.4213,-4.4066,-4.403,-4.4103,-4.3846,-4.3663,-4.3644,-4.3993,-4.436,-4.4023,-4.3859,-4.3931,-4.4121,-4.4332,-4.4793,-4.5107,-4.5262,-4.5438,-4.5522,-4.5586,-4.5594,-4.5594,-4.5594,-4.5594,-4.5594,-4.5594,-4.5594,-4.5594,-4.5594,-4.5056,-4.4143,-4.2893,-4.1912,-4.1162,-4.0779,-4.0733,-4.0709,-4.0814,-4.0906,-4.095,-4.1012,-4.0879,-4.033,-4.0234,-4.0547,-4.0137,-3.9141,-3.8574,-3.8008,-3.7441,-3.7207,-3.6992,-3.6621,-3.6191,-3.6191,-3.6074,-3.6035,-3.6016,-3.5976,-3.5937,-3.5879,-3.584,-3.5771,-3.5678,-3.5636,-3.5611,-3.5574,-3.5522,-3.5456,-3.5315,-3.5096,-3.5,-3.5058,-3.4814,-3.4526,-3.4814,-3.5481,-3.55,-3.55,-3.55,-3.5551,-3.5701,-3.5841,-3.594,-3.6222,-3.6714,-3.7272,-3.7698,-3.823,-3.8614,-3.8934,-3.9082,-3.8808,-3.8742,-3.8696,-4.1268,-4.181,-4.1919,-4.2024,-4.2206,-4.2637,-4.2845,-4.2939,-4.3303,-4.3479,-4.3479,-4.3479,-4.3497,-4.3551,-4.4342,-4.4268,-4.3718,-4.4268,-4.4085,-4.3735,-4.3791,-4.3644,-4.3626,-4.3773,-4.3662,-4.357,-4.3479,-4.3608,-4.3938,-4.3698,-4.3532,-4.3612,-4.3909,-4.4087,-4.4247,-4.4612,-4.5074,-4.5253,-4.5467,-4.5559,-4.5594,-4.5594,-4.5594,-4.5594,-4.5594,-4.5594,-4.5594,-4.5594,-4.5594,-4.5287,-4.4605,-4.3335,-4.2412,-4.1662,-4.1208,-4.0817,-4.0765,-4.0715,-4.0795,-4.084,-4.0928,-4.1003,-4.0624,-4.0742,-4.0937,-4.0976,-4.0312,-4.0137,-3.9492,-3.8594,-3.8262,-3.8105,-3.7793,-3.707,-3.6777,-3.6406,-3.6191,-3.6152,-3.6113,-3.6035,-3.5957,-3.5918,-3.5877,-3.5805,-3.5735,-3.5706,-3.5636,-3.5571,-3.5502,-3.5495,-3.5501,-3.55,-3.55,-3.5481,-3.5257,-3.5122,-3.55,-3.55,-3.55,-3.55,-3.5712,-3.6212,-3.6361,-3.6278,-3.6792,-3.7379,-3.797,-3.8575,-3.8804,-3.9154,-3.9595,-3.9754,-3.9389,-3.909,-3.899]},{"header":{"parameterUnit":"m.s-1","parameterCategory":1,"la1":31.0,"la2":29.5877,"lo1":-88.7671,"lo2":-86.6584,"dy":0.0162,"dx":0.0185,"nx":115,"ny":88,"refTime":"2024-04-18T06:00:00:Z","depth":0,"parameterNumber":3,"parameterNumberName":"V-component_of_WINDS"},"data":[0.0,0.0,0.0,0.0,0.0,0.0,0.0,0.0,0.0,0.0,0.0,0.0,0.0,0.0,0.0,0.0,0.0,0.0,0.0,0.0,0.0,0.0,0.0,0.0,0.0,0.0,0.0,0.0,0.0,0.0,0.0,0.0,0.0,0.0,0.0,0.0,0.0,0.0,0.0,0.0,0.0,0.0,0.0,0.0,0.0,0.0,0.0,0.0,0.0,0.0,0.0,0.0,0.0,0.0,0.0,0.0,0.0,0.0,0.0,0.0,0.0,0.0,0.0,0.0,0.0,0.0,0.0,0.0,0.0,0.0,0.0,0.0,0.0,0.0,0.0,0.0,0.0,0.0,0.0,0.0,0.0,0.0,0.0,0.0,0.0,0.0,0.0,0.0,0.0,0.0,0.0,0.0,0.0,0.0,0.0,0.0,0.0,0.0,0.0,0.0,0.0,0.0,0.0,0.0,0.0,0.0,0.0,0.0,0.0,0.0,0.0,0.0,0.0,0.0,0.0,0.0,0.0,0.0,0.0,0.0,0.0,0.0,0.0,0.0,0.0,0.0,0.0,0.0,0.0,0.0,0.0,0.0,0.0,0.0,0.0,0.0,0.0,0.0,0.0,0.0,0.0,0.0,0.0,0.0,0.0,0.0,0.0,0.0,0.0,0.0,0.0,0.0,0.0,0.0,0.0,0.0,0.0,0.0,0.0,0.0,0.0,0.0,0.0,0.0,0.0,0.0,0.0,0.0,0.0,0.0,0.0,0.0,0.0,0.0,0.0,0.0,0.0,0.0,0.0,0.0,0.0,0.0,0.0,0.0,0.0,0.0,0.0,0.0,0.0,0.0,0.0,0.0,0.0,0.0,0.0,0.0,0.0,0.0,0.0,0.0,0.0,0.0,0.0,0.0,0.0,0.0,0.0,0.0,0.0,0.0,0.0,0.0,0.0,0.0,0.0,0.0,0.0,0.0,0.0,0.0,0.0,0.0,0.0,0.0,0.0,0.0,0.0,0.0,0.0,0.0,0.0,0.0,0.0,0.0,0.0,0.0,0.0,0.0,0.0,0.0,0.0,0.0,0.0,0.0,0.0,0.0,0.0,0.0,0.0,0.0,0.0,0.0,0.0,0.0,0.0,0.0,0.0,0.0,0.0,0.0,0.0,0.0,0.0,0.0,0.0,0.0,0.0,0.0,0.0,0.0,0.0,0.0,0.0,0.0,0.0,0.0,0.0,0.0,0.0,0.0,0.0,0.0,0.0,0.0,0.0,0.0,0.0,0.0,0.0,0.0,0.0,0.0,0.0,0.0,0.0,0.0,0.0,0.0,0.0,0.0,0.0,0.0,0.0,0.0,0.0,0.0,0.0,0.0,0.0,0.0,0.0,0.0,0.0,0.0,0.0,0.0,0.0,0.0,0.0,0.0,0.0,0.0,0.0,0.0,0.0,0.0,0.0,0.0,0.0,0.0,0.0,0.0,0.0,0.0,0.0,0.0,0.0,0.0,0.0,0.0,0.0,0.0,0.0,0.0,0.0,0.0,0.0,0.0,0.0,0.0,0.0,0.0,0.0,0.0,0.0,0.0,0.0,0.0,0.0,0.0,0.0,0.0,0.0,0.0,0.0,0.0,0.0,0.0,0.0,0.0,0.0,0.0,0.0,0.0,0.0,0.0,0.0,0.0,0.0,0.0,0.0,0.0,0.0,0.0,0.0,0.0,0.0,0.0,0.0,0.0,0.0,0.0,0.0,0.0,0.0,0.0,0.0,0.0,0.0,0.0,0.0,0.0,0.0,0.0,0.0,0.0,0.0,0.0,0.0,0.0,0.0,0.0,0.0,0.0,0.0,0.0,0.0,0.0,0.0,0.0,0.0,0.0,0.0,0.0,0.0,0.0,0.0,0.0,0.0,0.0,0.0,0.0,0.0,0.0,0.0,0.0,0.0,0.0,0.0,0.0,0.0,0.0,0.0,0.0,0.0,0.0,0.0,0.0,0.0,0.0,0.0,0.0,0.0,0.0,0.0,0.0,0.0,0.0,0.0,0.0,0.0,0.0,0.0,0.0,0.0,0.0,0.0,0.0,0.0,0.0,0.0,0.0,0.0,0.0,0.0,0.0,0.0,0.0,0.0,0.0,0.0,0.0,0.0,0.0,0.0,0.0,0.0,0.0,0.0,0.0,0.0,0.0,0.0,0.0,0.0,0.0,0.0,0.0,0.0,0.0,0.0,0.0,0.0,0.0,0.0,0.0,0.0,0.0,0.0,0.0,0.0,0.0,0.0,0.0,0.0,0.0,0.0,0.0,0.0,0.0,0.0,0.0,0.0,0.0,0.0,0.0,0.0,0.0,0.0,0.0,0.0,0.0,0.0,0.0,0.0,0.0,0.0,0.0,0.0,0.0,0.0,0.0,0.0,0.0,0.0,0.0,0.0,0.0,0.0,0.0,0.0,0.0,0.0,0.0,0.0,0.0,0.0,0.0,0.0,0.0,0.0,0.0,0.0,0.0,0.0,0.0,0.0,0.0,0.0,0.0,0.0,0.0,0.0,0.0,0.0,0.0,0.0,0.0,0.0,0.0,0.0,0.0,0.0,0.0,0.0,0.0,0.0,0.0,0.0,0.0,0.0,0.0,0.0,0.0,0.0,0.0,0.0,0.0,0.0,0.0,0.0,0.0,0.0,0.0,0.0,0.0,0.0,0.0,0.0,0.0,0.0,0.0,0.0,0.0,0.0,0.0,0.0,0.0,0.0,0.0,0.0,0.0,0.0,0.0,0.0,0.0,0.0,0.0,0.0,0.0,0.0,0.0,0.0,0.0,0.0,0.0,0.0,0.0,0.0,0.0,0.0,0.0,0.0,0.0,0.0,0.0,0.0,0.0,0.0,0.0,0.0,0.0,0.0,0.0,0.0,0.0,0.0,0.0,0.0,0.0,0.0,0.0,0.0,0.0,0.0,0.0,0.0,0.0,0.0,0.0,0.0,0.0,0.0,0.0,0.0,0.0,0.0,0.0,0.0,0.0,0.0,0.0,0.0,0.0,0.0,0.0,0.0,0.0,0.0,0.0,0.0,0.0,0.0,0.0,0.0,0.0,0.0,0.0,0.0,0.0,0.0,0.0,0.0,0.0,0.0,0.0,0.0,0.0,0.0,0.0,0.0,0.0,0.0,0.0,0.0,0.0,0.0,0.0,0.0,0.0,0.0,0.0,0.0,0.0,0.0,0.0,0.0,0.0,0.0,0.0,0.0,0.0,0.0,0.0,0.0,0.0,0.0,0.0,0.0,0.0,0.0,0.0,0.0,0.0,0.0,0.0,0.0,0.0,0.0,0.0,0.0,0.0,0.0,0.0,0.0,0.0,0.0,0.0,0.0,0.0,0.0,0.0,0.0,0.0,0.0,0.0,0.0,0.0,0.0,0.0,0.0,0.0,0.0,0.0,0.0,0.0,0.0,0.0,0.0,0.0,0.0,0.0,0.0,0.0,0.0,0.0,0.0,0.0,0.0,0.0,0.0,0.0,0.0,0.0,0.0,0.0,0.0,0.0,0.0,0.0,0.0,0.0,0.0,0.0,0.0,0.0,0.0,0.0,0.0,0.0,0.0,0.0,0.0,0.0,0.0,0.0,0.0,0.0,0.0,0.0,0.0,0.0,0.0,0.0,0.0,0.0,0.0,0.0,0.0,0.0,0.0,0.0,0.0,0.0,0.0,0.0,0.0,0.0,0.0,0.0,0.0,0.0,0.0,0.0,0.0,0.0,0.0,0.0,0.0,0.0,0.0,0.0,0.0,0.0,0.0,0.0,0.0,0.0,0.0,0.0,0.0,0.0,0.0,0.0,0.0,0.0,0.0,0.0,0.0,0.0,0.0,0.0,0.0,0.0,0.0,0.0,0.0,0.0,0.0,0.0,0.0,0.0,0.0,0.0,0.0,0.0,0.0,0.0,0.0,0.0,0.0,0.0,0.0,0.0,0.0,0.0,0.0,0.0,0.0,0.0,0.0,0.0,0.0,0.0,0.0,0.0,0.0,0.0,0.0,0.0,0.0,0.0,0.0,0.0,0.0,0.0,0.0,0.0,0.0,0.0,0.0,0.0,0.0,0.0,0.0,0.0,0.0,0.0,0.0,0.0,0.0,0.0,0.0,0.0,0.0,0.0,0.0,0.0,0.0,0.0,0.0,0.0,0.0,0.0,0.0,0.0,0.0,0.0,0.0,0.0,0.0,0.0,0.0,0.0,0.0,0.0,0.0,0.0,0.0,0.0,0.0,0.0,0.0,0.0,0.0,0.0,0.4056,0.0,0.0,0.0,0.0,0.0,0.0,0.0,0.0,0.0,0.0,0.0,0.0,0.0,0.0,0.0,0.0,0.0,0.0,0.0,0.0,0.0,0.0,0.0,0.0,0.0,0.0,0.0,0.0,0.0,0.0,0.0,0.0,0.0,0.0,0.0,0.0,0.0,0.0,0.0,0.0,0.0,0.0,0.0,0.0,0.0,0.0,0.0,0.0,0.0,0.0,0.0,0.0,0.0,0.0,0.0,0.0,0.0,0.0,0.0,0.0,0.0,0.0,0.0,0.0,0.0,0.0,0.0,0.0,0.0,0.0,0.0,0.0,0.0,0.0,0.0,0.0,0.0,0.0,0.0,0.0,0.0,0.0,0.0,0.0,0.0,0.0,0.0,0.0,0.0,0.0,0.0,0.0,0.0,0.0,0.0,0.0,0.0,0.0,0.0,0.0,0.0,0.0,0.0,0.0,0.0,0.0,0.0,0.0,0.0,0.0,0.6002,0.5646,0.612,0.5584,0.3926,0.0,0.0,0.0,0.0,0.0,0.0,0.0,0.0,0.0,0.0,0.0,0.0,0.0,0.0,0.0,0.0,0.0,0.0,0.0,0.0,0.0,0.0,0.0,0.0,0.0,0.0,0.0,0.0,0.0,0.0,0.0,0.0,0.0,0.0,0.0,0.0,0.0,0.0,0.0,0.0,0.0,0.0,0.0,0.0,0.0,0.0,0.0,0.0,0.0,0.0,0.0,0.0,0.0,0.0,0.0,0.0,0.0,0.0,0.0,0.0,0.0,0.0,0.0,0.0,0.0,0.0,0.0,0.0,0.0,0.0,0.0,0.0,0.0,0.0,0.0,0.0,0.0,0.0,0.0,0.0,0.0,0.0,0.0,0.0,0.0,0.0,0.0,0.0,0.0,0.0,0.0,0.0,0.0,0.0,0.0,0.0,0.0,0.0,0.0,0.0,0.0,0.0,0.0,0.0,0.0,0.0,0.0,0.0,0.0,0.0,0.0,0.0,0.6227,0.567,0.4395,0.0,0.0,0.0,0.0,0.0,0.0,0.0,0.0,0.0,0.0,0.0,0.0,0.0,0.0,0.0,0.0,0.0,0.0,0.0,0.0,0.0,0.0,0.0,0.0,0.0,0.0,0.0,0.0,0.0,0.0,0.0,0.0,0.0,0.0,0.0,0.0,0.0,0.0,0.0,0.0,0.0,0.0,0.0,0.0,0.0,0.0,0.0,0.0,0.0,0.0,0.0,0.0,0.0,0.0,0.0,0.0,0.0,0.0,0.0,0.0,0.0,0.0,0.0,0.0,0.0,0.0,0.0,0.0,0.0,0.0,0.0,0.0,0.0,0.0,0.0,0.0,0.0,0.0,0.0,0.0,0.0,0.0,0.0,0.0,0.0,0.0,0.0,0.0,0.0,0.0,0.0,0.0,0.0,0.0,0.0,0.0,0.0,0.0,0.0,0.0,0.0,0.0,0.0,0.0,0.0,0.0,0.0,0.0,0.0,0.0,0.698,0.7072,0.7236,0.0,0.5365,0.0,0.0,0.0,0.0,0.0,0.0,0.0,0.0,0.0,0.0,0.0,0.0,0.0,0.0,0.0,0.0,0.0,0.0,0.0,0.0,0.0,0.0,0.0,0.0,0.0,0.0,0.0,0.0,0.0,0.0,0.0,0.0,0.0,0.0,0.0,0.0,0.0,0.0,0.0,0.0,0.0,0.0,0.0,0.0,0.0,0.0,0.0,0.0,0.0,0.0,0.0,0.0,0.0,0.0,0.0,0.0,0.0,0.0,0.0,0.0,0.0,0.0,0.0,0.0,0.0,0.0,0.0,0.0,0.0,0.0,0.0,0.0,0.0,0.0,0.0,0.0,0.0,0.0,0.0,0.0,0.0,0.0,0.0,0.0,0.0,0.0,0.0,0.0,0.0,0.0,0.0,0.0,0.0,0.0,0.0,0.0,0.0,0.0,0.0,0.0,0.0,0.0,0.0,0.0,0.0,0.0,0.0,0.0,0.0,0.0,0.6593,0.622,0.5617,0.5022,0.0,0.0,0.0,0.0,0.0,0.0,0.0,0.0,0.0,0.0,0.0,0.0,0.0,0.0,0.0,0.0,0.0,0.0,0.0,0.0,0.0,0.0,0.0,0.0,0.0,0.0,0.0,0.0,0.0,0.0,0.0,0.0,0.0,0.0,0.0,0.0,0.0,0.0,0.0,0.0,0.0,0.0,0.0,0.0,0.0,0.0,0.0,0.0,0.0,0.0,0.0,0.0,0.0,0.0,0.0,0.0,0.0,0.0,0.0,0.0,0.0,0.0,0.0,0.0,0.0,0.0,0.0,0.0,0.0,0.0,0.0,0.0,0.0,0.0,0.0,0.0,0.0,0.0,0.0,0.0,0.0,0.0,0.0,0.0,0.0,0.0,0.0,0.0,0.0,0.0,0.0,0.0,0.0,0.0,0.0,0.0,0.0,0.0,0.0,0.0,0.0,0.0,0.0,0.0,0.0,0.0,0.0,0.0,0.0,0.0,0.6793,0.6383,0.5868,0.459,0.3892,0.3958,0.0,0.0,0.0,0.0,0.0,0.0,0.0,0.0,0.0,0.0,0.0,0.0,0.0,0.0,0.0,0.0,0.0,0.0,0.0,0.0,0.0,0.0,0.0,0.0,0.0,0.0,0.0,0.0,0.0,0.0,0.0,0.0,0.0,0.0,0.0,0.0,0.0,0.0,0.0,0.0,0.0,0.0,0.0,0.0,0.0,0.0,0.0,0.0,0.0,0.0,0.0,0.0,0.0,0.0,0.0,0.0,0.0,0.0,0.0,0.0,0.0,0.0,0.0,0.0,0.0,0.0,0.0,0.0,0.0,0.0,0.0,0.0,0.0,0.0,0.0,0.0,0.0,0.0,0.0,0.0,0.0,0.0,0.0,0.0,0.0,0.0,0.0,0.0,0.0,0.0,0.0,0.0,0.0,0.0,0.0,0.0,0.0,0.0,0.0,0.0,0.0,0.0,0.0,0.0,0.0,0.0,0.0,0.0,0.8272,0.7181,0.6687,0.6824,0.5002,0.4257,0.0,0.0,0.0,0.0,0.0,0.0,0.0,0.0,0.0,0.0,0.0,0.0,0.0,0.0,0.0,0.0,0.0,0.0,0.0,0.0,0.0,0.0,0.0,0.0,0.0,0.0,0.0,0.0,0.0,0.0,0.0,0.0,0.0,0.0,0.0,0.0,0.0,0.0,0.0,0.0,0.0,0.0,0.0,0.0,0.0,0.0,0.0,0.0,0.0,0.0,0.0,0.0,0.0,0.0,0.0,0.0,0.0,0.0,0.0,0.0,0.0,0.0,0.0,0.0,0.0,0.0,0.0,0.0,0.0,0.0,0.0,0.0,0.0,0.0,0.0,0.0,0.0,0.0,0.0,0.0,0.0,0.0,0.0,0.0,0.0,0.0,0.0,0.0,0.0,0.0,0.0,0.0,0.0,0.0,0.0,0.0,0.0,0.0,0.0,0.0,0.0,0.0,0.0,0.0,0.0,0.0,0.0,0.0,0.0,0.6666,0.6077,0.5798,0.5867,0.4677,0.4102,0.0,0.0,0.0,0.0,0.0,0.0,0.0,0.0,0.0,0.0,0.0,0.0,0.0,0.0,0.0,0.0,0.0,0.0,0.0,0.0,0.0,0.0,0.0,0.0,0.0,0.0,0.0,0.0,0.0,0.0,0.0,0.0,0.0,0.0,0.0,0.0,0.0,0.0,0.0,0.0,0.0,0.0,0.0,0.0,0.0,0.0,0.0,0.0,0.0,0.0,0.0,0.0,0.0,0.0,0.0,0.0,0.0,0.0,0.0,0.0,0.0,0.0,0.0,0.0,0.0,0.0,0.0,0.0,0.0,0.0,0.0,0.0,0.0,0.0,0.0,0.0,0.0,0.0,0.0,0.0,0.0,0.0,0.0,0.0,0.0,0.0,0.0,0.0,0.0,0.0,0.0,0.0,0.0,0.0,0.0,0.0,0.0,0.0,0.0,0.0,0.0,0.0,0.0,0.0,0.0,0.0,0.0,0.0,0.0,0.5714,0.0,0.5394,0.5261,0.4447,0.3958,0.0,0.0,0.0,0.0,0.0,0.0,0.0,0.0,0.0,0.0,0.0,0.0,0.0,0.0,0.0,0.0,0.0,0.0,0.0,0.0,0.0,0.0,0.0,0.0,0.0,0.0,0.0,0.0,0.0,0.0,0.0,0.0,0.0,0.0,0.0,0.0,0.0,0.0,0.0,0.0,0.0,0.0,0.0,0.0,0.0,0.0,0.0,0.0,0.0,0.0,0.0,0.0,0.0,0.0,0.0,0.0,0.0,0.0,0.0,0.0,0.0,0.0,0.0,0.0,0.0,0.0,0.0,0.0,0.0,0.0,0.0,0.0,0.0,0.0,0.0,0.0,0.0,0.0,0.0,0.0,0.0,0.0,0.0,0.0,0.0,0.0,0.0,0.0,0.0,0.0,0.0,0.0,0.0,0.0,0.0,0.0,0.0,0.0,0.0,0.0,0.0,0.0,0.0,0.0,0.0,0.0,0.0,0.0,0.5992,0.5684,0.5657,0.5524,0.5313,0.4436,0.383,0.0,0.0,0.0,0.0,0.0,0.0,0.0,0.0,0.0,0.0,0.0,0.0,0.0,0.0,0.0,0.0,0.0,0.0,0.0,0.0,0.0,0.0,0.0,0.0,0.0,0.0,0.0,0.0,0.0,0.0,0.0,0.0,0.0,0.0,0.0,0.0,0.0,0.0,0.0,0.0,0.0,0.0,0.0,0.0,0.0,0.0,0.0,0.0,0.0,0.0,0.0,0.0,0.0,0.0,0.0,0.0,0.0,0.0,0.0,0.0,0.0,0.0,0.0,0.0,0.0,0.0,0.0,0.0,0.0,0.0,0.0,0.0,0.0,0.0,0.0,0.0,0.0,0.0,0.0,0.0,0.0,0.0,0.0,0.0,0.0,0.0,0.0,0.0,0.0,0.0,0.0,0.0,0.0,0.0,0.0,0.0,0.0,0.0,0.0,0.0,0.0,0.0,0.0,0.0,0.0,0.0,0.0,0.0,0.0,0.4954,0.4954,0.5152,0.5508,0.4051,0.352,0.0,0.0,0.0,0.0,0.0,0.0,0.0,0.0,0.0,0.0,0.0,0.0,0.0,0.0,0.0,0.0,0.0,0.0,0.0,0.0,0.0,0.0,0.0,0.0,0.0,0.0,0.0,0.0,0.0,0.0,0.0,0.0,0.0,0.0,0.0,0.0,0.0,0.0,0.0,0.0,0.0,0.0,0.0,0.0,0.0,0.0,0.0,0.0,0.0,0.0,0.0,0.0,0.0,0.0,0.0,0.0,0.0,0.0,0.0,0.0,0.0,0.0,0.0,0.0,0.0,0.0,0.0,0.0,0.0,0.0,0.0,0.0,0.0,0.0,0.0,0.0,0.0,0.0,0.0,0.0,0.0,0.0,0.0,0.0,0.0,0.0,0.0,0.0,0.0,0.0,0.0,0.0,0.0,0.0,0.0,0.0,0.0,0.0,0.0,0.0,0.0,0.0,0.0,0.0,0.0,0.0,0.0,0.0,0.0,0.4322,0.4565,0.4904,0.5278,0.3912,0.3366,0.3794,0.0,0.0,0.0,0.0,0.0,0.0,0.0,0.0,0.0,0.0,0.0,0.0,0.0,0.0,0.0,0.0,0.0,0.0,0.0,0.0,0.0,0.0,0.0,0.0,0.0,0.0,0.0,0.0,0.0,0.0,0.0,0.0,0.0,0.0,0.0,0.0,0.0,0.0,0.0,0.0,0.0,0.0,0.0,0.0,0.0,0.0,0.0,0.0,0.0,0.0,0.0,0.0,0.0,0.0,0.0,0.0,0.0,0.0,0.0,0.0,0.0,0.0,0.0,0.0,0.0,0.0,0.0,0.0,0.0,0.0,0.0,0.0,0.0,0.0,0.0,0.0,0.0,0.0,0.0,0.0,0.0,0.0,0.0,0.0,0.0,0.0,0.0,0.0,0.0,0.0,0.0,0.0,0.0,0.0,0.0,0.0,0.0,0.0,0.0,0.0,0.0,0.0,0.0,0.0,0.0,0.0,0.0,0.0,0.3837,0.4505,0.4785,0.463,0.3942,0.339,0.0,0.0,0.0,0.0,0.0,0.0,0.0,0.0,0.0,0.0,0.0,0.0,0.0,0.0,0.0,0.0,0.0,0.0,0.0,0.0,0.0,0.0,0.0,0.0,0.0,0.0,0.0,0.0,0.0,0.0,0.0,0.0,0.0,0.0,0.0,0.0,0.0,0.0,0.0,0.0,0.0,0.0,0.0,0.0,0.0,0.0,0.0,0.0,0.0,0.0,0.0,0.0,0.0,0.0,0.0,0.0,0.0,0.0,0.0,0.0,0.0,0.0,0.0,0.0,0.0,0.0,0.0,0.0,0.0,0.0,0.0,0.0,0.0,0.0,0.0,0.0,0.0,0.0,0.0,0.0,0.0,0.0,0.0,0.0,0.0,0.0,0.0,0.0,0.0,0.0,0.0,0.0,0.0,0.0,0.0,0.0,0.0,0.0,0.0,0.0,0.0,0.0,0.0,0.0,0.0,0.0,0.0,0.0,0.0,0.4092,0.4279,0.4515,0.4784,0.3784,0.3338,0.0,0.0,0.0,0.0,0.0,0.0,0.0,0.0,0.0,0.0,0.0,0.0,0.0,0.0,0.0,0.0,0.0,0.0,0.0,0.0,0.0,0.0,0.0,0.0,0.0,0.0,0.0,0.0,0.0,0.0,0.0,0.0,0.0,0.0,0.0,0.0,0.0,0.0,0.0,0.0,0.0,0.0,0.0,0.0,0.0,0.0,0.0,0.0,0.0,0.0,0.0,0.0,0.0,0.0,0.0,0.0,0.0,0.0,0.0,0.0,0.0,0.0,0.0,0.0,0.0,0.0,0.0,0.0,0.0,0.0,0.0,0.0,0.0,0.0,0.0,0.0,0.0,0.0,0.0,0.0,0.0,0.0,0.0,0.0,0.0,0.0,0.0,0.0,0.0,0.0,0.0,0.0,0.0,0.0,0.0,0.0,0.0,0.0,0.0,0.0,0.0,0.0,0.0,0.0,0.0,0.0,0.0,0.0,0.3617,0.3927,0.4055,0.4229,0.4422,0.3702,0.3307,0.0,0.0,0.0,0.0,0.0,0.0,0.0,0.0,0.0,0.0,0.0,0.0,0.0,0.0,0.0,0.0,0.0,0.0,0.0,0.0,0.0,0.0,0.0,0.0,0.0,0.0,0.0,0.0,0.0,0.0,0.0,0.0,0.0,0.0,0.0,0.0,0.0,0.0,0.0,0.0,0.0,0.0,0.0,0.0,0.0,0.0,0.0,0.0,0.0,0.0,0.0,0.0,0.0,0.0,0.0,0.0,0.0,0.0,0.0,0.0,0.0,0.0,0.0,0.0,0.0,0.0,0.0,0.0,0.0,0.0,0.0,0.0,0.0,0.0,0.0,0.0,0.0,0.0,0.0,0.0,0.0,0.0,0.0,0.0,0.0,0.0,0.0,0.0,0.0,0.0,0.0,0.0,0.0,0.0,0.0,0.0,0.0,0.0,0.0,0.0,0.0,0.0,0.0,0.0,0.0,0.0,0.0,0.0,0.3342,0.349,0.3829,0.3879,0.3701,0.3633,0.3327,0.0,0.0,0.0,0.0,0.0,0.0,0.0,0.0,0.0,0.0,0.0,0.0,0.0,0.0,0.0,0.0,0.0,0.0,0.0,0.0,0.0,0.0,0.0,0.0,0.0,0.0,0.0,0.0,0.0,0.0,0.0,0.0,0.0,0.0,0.0,0.0,0.0,0.0,0.0,0.0,0.0,0.0,0.0,0.0,0.0,0.0,0.0,0.0,0.0,0.0,0.0,0.0,0.0,0.0,0.0,0.0,0.0,0.0,0.0,0.0,0.0,0.0,0.0,0.0,0.0,0.0,0.0,0.0,0.0,0.0,0.0,0.0,0.0,0.0,0.0,0.0,0.0,0.0,0.0,0.0,0.0,0.0,0.0,0.0,0.0,0.0,0.0,0.0,0.0,0.0,0.0,0.0,0.0,0.0,0.0,0.0,0.0,0.0,0.0,0.0,0.0,0.0,0.0,0.0,0.0,0.0,0.0,0.0,0.3011,0.2749,0.3469,0.3538,0.296,0.3355,0.3372,0.0,0.0,0.0,0.0,0.0,0.0,0.0,0.0,0.0,0.0,0.0,0.0,0.0,0.0,0.0,0.0,0.0,0.0,0.0,0.0,0.0,0.0,0.0,0.0,0.0,0.0,0.0,0.0,0.0,0.0,0.0,0.0,0.0,0.0,0.0,0.0,0.0,0.0,0.0,0.0,0.0,0.0,0.0,0.0,0.0,0.0,0.0,0.0,-2.0398,0.0,0.0,0.0,0.0,0.0,0.0,0.0,0.0,0.0,0.0,0.0,0.0,0.0,0.0,0.0,0.0,0.0,0.0,0.0,0.0,0.0,0.0,0.0,0.0,0.0,0.0,0.0,0.0,0.0,0.0,0.0,0.0,0.0,0.0,0.0,0.0,0.0,0.0,0.0,0.0,0.0,0.0,0.0,0.0,0.0,0.0,0.0,0.0,0.0,0.0,0.0,0.0,0.0,0.0,0.0,0.0,0.0,0.0,0.0,0.2306,0.2186,0.269,0.277,0.2397,0.2634,0.2797,0.0,0.0,0.0,0.0,0.0,0.0,0.0,0.0,0.0,0.0,0.0,0.0,0.0,0.0,0.0,0.0,0.0,0.0,0.0,0.0,0.0,0.0,0.0,0.0,0.0,0.0,0.0,0.0,0.0,0.0,0.0,0.0,0.0,0.0,0.0,0.0,0.0,0.0,0.0,0.0,0.0,0.0,0.0,0.0,0.0,0.0,0.0,0.0,0.0,0.0,0.0,0.0,0.0,0.0,0.0,0.0,0.0,0.0,0.0,0.0,0.0,0.0,0.0,0.0,0.0,0.0,0.0,0.0,0.0,0.0,0.0,0.0,0.0,0.0,0.0,0.0,0.0,0.0,0.0,0.0,0.0,0.0,0.0,0.0,0.0,0.0,0.0,0.0,0.0,0.0,0.0,0.0,0.0,0.0,0.0,0.0,0.0,0.0,0.0,0.0,0.0,0.0,0.0,0.0,0.0,0.0,0.0,0.1984,0.1687,0.1648,0.186,0.192,0.1832,0.1785,0.2069,0.2667,0.0,0.0,0.0,0.0,0.0,0.0,0.0,0.0,0.0,0.0,0.0,0.0,0.0,0.0,0.0,0.0,0.0,0.0,0.0,0.0,0.0,0.0,0.0,0.0,0.0,0.0,0.0,0.0,0.0,0.0,0.0,0.0,0.0,0.0,0.0,0.0,0.0,0.0,-1.8064,-1.9078,0.0,0.0,0.0,0.0,0.0,0.0,0.0,0.0,-2.021,0.0,0.0,0.0,0.0,0.0,0.0,0.0,0.0,0.0,0.0,0.0,0.0,0.0,0.0,0.0,0.0,0.0,0.0,0.0,0.0,0.0,0.0,0.0,0.0,0.0,0.0,0.0,0.0,0.0,0.0,0.0,0.0,0.0,0.0,0.0,0.0,0.0,0.0,0.0,0.0,0.0,0.0,0.0,0.0,0.0,0.0,0.0,0.0,0.0,0.0,0.0,0.0,0.0,0.0,0.0,0.0,0.2504,0.2233,0.1712,0.0905,0.15,0.1573,0.1116,0.1448,0.1696,0.1784,0.0,0.0,0.0,0.0,0.0,0.0,0.0,0.0,0.0,0.0,0.0,0.0,0.0,0.0,0.0,0.0,0.0,0.0,0.0,0.0,0.0,0.0,0.0,0.0,0.0,0.0,0.0,0.0,0.0,0.0,0.0,0.0,0.0,0.0,0.0,0.0,0.0,0.0,0.0,-1.9253,-1.9723,0.0,0.0,0.0,0.0,0.0,0.0,0.0,0.0,-1.9803,0.0,0.0,0.0,0.0,0.0,0.0,0.0,0.0,0.0,0.0,0.0,0.0,0.0,0.0,0.0,0.0,0.0,0.0,0.0,0.0,0.0,0.0,0.0,0.0,0.0,0.0,0.0,0.0,0.0,0.0,0.0,0.0,0.0,0.0,0.0,0.0,0.0,0.0,0.0,0.0,0.0,0.0,0.0,0.0,0.0,0.0,0.0,0.0,0.0,0.0,0.0,0.0,0.0,0.0,0.0,0.2109,0.1414,0.083,0.0368,0.0693,0.0728,0.0461,0.0647,0.0884,0.0,0.0,0.0,0.0,0.0,0.0,0.0,0.0,0.0,0.0,0.0,0.0,0.0,0.0,0.0,0.0,0.0,0.0,0.0,0.0,0.0,0.0,0.0,0.0,0.0,0.0,0.0,0.0,0.0,0.0,0.0,0.0,0.0,0.0,0.0,0.0,0.0,0.0,0.0,0.0,-1.9495,-1.9723,-1.9723,0.0,0.0,0.0,0.0,0.0,0.0,-1.9723,-1.9723,0.0,0.0,0.0,0.0,0.0,0.0,0.0,0.0,0.0,0.0,0.0,0.0,0.0,0.0,0.0,0.0,0.0,0.0,0.0,0.0,0.0,0.0,0.0,0.0,0.0,0.0,0.0,0.0,0.0,0.0,0.0,0.0,0.0,0.0,0.0,0.0,0.0,0.0,0.0,0.0,0.0,0.0,0.0,0.0,0.0,0.0,0.0,0.0,0.0,0.0,0.0,0.0,0.0,0.0,0.0,0.159,0.0633,0.0106,0.0,0.0,0.0,0.0,0.0,0.0178,0.0,0.0,0.0,0.0,0.0,0.0,0.0,0.0,0.0,0.0,0.0,0.0,0.0,0.0,0.0,0.0,0.0,0.0,0.0,0.0,0.0,0.0,0.0,0.0,0.0,0.0,0.0,0.0,0.0,0.0,0.0,0.0,0.0,0.0,0.0,0.0,0.0,0.0,0.0,0.0,0.0,-1.9723,-1.9723,-1.9723,0.0,0.0,0.0,0.0,-1.9723,-1.9723,0.0,0.0,0.0,0.0,0.0,0.0,0.0,0.0,0.0,0.0,0.0,0.0,0.0,0.0,0.0,0.0,0.0,0.0,0.0,0.0,0.0,0.0,0.0,0.0,0.0,0.0,0.0,0.0,0.0,0.0,0.0,0.0,0.0,0.0,0.0,0.0,0.0,0.0,0.0,0.0,0.0,0.0,0.0,0.0,0.0,0.0,0.0,0.0,0.0,0.0,0.0,0.0,0.0,0.0,0.0,0.0,0.104,0.0748,0.0407,0.0,0.0,0.0,0.0,0.0,0.0036,0.0,0.0,0.0,0.0,0.0,0.0,0.0,0.0,0.0,0.0,0.0,0.0,0.0,0.0,0.0,0.0,0.0,0.0,0.0,0.0,0.0,0.0,0.0,0.0,0.0,0.0,0.0,0.0,0.0,0.0,0.0,0.0,0.0,0.0,0.0,0.0,0.0,0.0,0.0,0.0,0.0,-1.9723,-1.9723,-1.9723,-1.9723,0.0,0.0,-1.9723,-1.9723,-1.9723,0.0,0.0,0.0,0.0,0.0,0.0,0.0,0.0,0.0,0.0,0.0,0.0,0.0,0.0,0.0,0.0,0.0,0.0,0.0,0.0,0.0,0.0,0.0,0.0,0.0,0.0,0.0,0.0,0.0,0.0,0.0,0.0,0.0,0.0,0.0,0.0,0.0,0.0,0.0,0.0,0.0,0.0,0.0,0.0,0.0,0.0,0.0,0.0,0.0,0.0,0.0,0.0,0.0,0.0,0.0,0.1361,0.0916,0.0506,0.022,0.0,0.0,0.0,0.0,0.0,0.0,0.0,0.0,0.0,0.0,0.0,0.0,0.0,0.0,0.0,0.0,0.0,0.0,0.0,0.0,0.0,0.0,0.0,0.0,0.0,0.0,0.0,0.0,0.0,0.0,0.0,0.0,0.0,0.0,0.0,0.0,0.0,0.0,0.0,0.0,0.0,0.0,0.0,0.0,0.0,0.0,0.0,0.0,-1.9654,-1.9442,0.0,0.0,0.0,-1.9723,-1.9723,0.0,0.0,0.0,0.0,0.0,0.0,0.0,0.0,0.0,0.0,0.0,0.0,0.0,0.0,0.0,0.0,0.0,0.0,0.0,0.0,0.0,0.0,0.0,0.0,0.0,0.0,0.0,0.0,0.0,0.0,0.0,0.0,0.0,0.0,0.0,0.0,0.0,0.0,0.0,0.0,0.0,0.0,0.0,0.0,0.0,0.0,0.0,0.0,0.0,0.0,0.0,0.0,0.0,0.0,0.0,0.0,0.0,0.0895,0.0314,0.0,0.0,0.0,0.0,0.0,0.0,0.0,0.0,0.0,0.0,0.0,0.0,0.0,0.0,0.0,0.0,0.0,0.0,0.0,0.0,0.0,0.0,0.0,0.0,0.0,0.0,0.0,0.0,0.0,0.0,0.0,0.0,0.0,-0.9498,0.0,0.0,0.0,0.0,0.0,0.0,0.0,0.0,0.0,0.0,0.0,0.0,0.0,0.0,-1.9001,-1.9262,-1.8949,-1.8893,0.0,0.0,-1.9512,-1.9497,-1.9603,-1.9639,0.0,0.0,0.0,0.0,0.0,0.0,0.0,0.0,0.0,0.0,0.0,0.0,0.0,0.0,0.0,0.0,0.0,0.0,0.0,0.0,0.0,0.0,0.0,0.0,0.0,0.0,0.0,0.0,0.0,0.0,0.0,0.0,0.0,0.0,0.0,0.0,0.0,0.0,0.0,0.0,0.0,0.0,0.0,0.0,0.0,0.0,0.0,0.0,0.0,0.0,0.0,0.0,0.0,0.0,0.0,0.0895,0.0292,0.0,0.0,0.0,0.0,0.0,0.0,0.0,0.0,0.0,0.0,0.0,0.0,0.0,0.0,0.0,0.0,0.0,0.0,0.0,0.0,0.0,0.0,0.0,0.0,0.0,0.0,0.0,0.0,0.0,0.0,0.0,0.0,0.0,0.0,0.0,0.0,0.0,0.0,0.0,0.0,0.0,0.0,0.0,0.0,0.0,0.0,0.0,0.0,-1.8727,-1.8269,-1.8185,-1.8341,0.0,0.0,-1.8949,-1.8949,-1.9384,-1.953,-1.9058,0.0,0.0,0.0,0.0,0.0,0.0,0.0,0.0,0.0,0.0,0.0,0.0,0.0,0.0,0.0,0.0,0.0,0.0,0.0,0.0,0.0,0.0,0.0,0.0,0.0,0.0,0.0,0.0,0.0,0.0,0.0,0.0,0.0,0.0,0.0,0.0,0.0,0.0,0.0,0.0,0.0,0.0,0.0,0.0,0.0,0.0,0.0,0.0,0.0,0.0,0.0,0.0,0.0,0.0962,0.0359,0.0112,0.0,0.0,0.0,0.0,0.0,0.0,0.0,0.0,0.0,0.0,0.0,0.0,0.0,0.0,0.0,0.0,0.0,0.0,0.0,0.0,0.0,0.0,0.0,0.0,0.0,0.0,0.0,0.0,0.0,0.0,0.0,0.0,0.0,0.0,0.0,-1.0601,-1.2058,-1.351,0.0,0.0,0.0,0.0,0.0,0.0,0.0,0.0,0.0,0.0,-1.7953,-1.8072,-1.7807,0.0,0.0,-1.84,-1.8419,-1.8419,-1.8855,-1.9151,-1.893,-1.9571,0.0,0.0,0.0,0.0,0.0,0.0,0.0,0.0,0.0,0.0,0.0,0.0,0.0,0.0,0.0,0.0,0.0,0.0,0.0,0.0,0.0,0.0,0.0,0.0,0.0,0.0,0.0,0.0,0.0,0.0,0.0,0.0,0.0,0.0,0.0,0.0,0.0,0.0,0.0,0.0,0.0,0.0,0.0,0.0,0.0,0.0,0.0,0.0,0.0,0.0,0.0,0.0,0.0681,0.0269,0.009,0.0,0.0,0.0,0.0,0.0,0.0,0.0,0.0,0.0,0.0,0.0,0.0,0.0,0.0,0.0,0.0,0.0,0.0,0.0,0.0,0.0,0.0,0.0,0.0,0.0,0.0,0.0,0.0,0.0,0.0,0.0,0.0,0.0,0.0,0.0,-1.0733,-1.2455,-1.4357,0.0,0.0,0.0,0.0,0.0,0.0,0.0,0.0,0.0,0.0,-1.736,-1.7585,-1.7291,-1.7271,-1.7787,-1.7867,-1.7867,-1.7867,-1.8308,-1.8612,-1.8438,0.0,0.0,0.0,0.0,0.0,0.0,0.0,0.0,0.0,0.0,0.0,0.0,0.0,0.0,0.0,0.0,0.0,0.0,0.0,0.0,0.0,0.0,0.0,0.0,0.0,0.0,0.0,0.0,0.0,0.0,0.8778,0.0,0.0,0.0,0.0,0.0,0.0,0.0,0.0,0.0,0.0,0.0,0.0,0.0,0.0,0.0,0.0,0.0,0.0,0.0,0.0,0.0,0.0,0.0885,0.0851,0.0292,0.0,0.0,0.0,0.0,0.0,0.0,0.0,0.0,0.0,0.0,0.0,0.0,0.0,0.0,0.0,0.0,0.0,0.0,0.0,0.0,0.0,0.0,0.0,0.0,0.0,0.0,0.0,0.0,0.0,0.0,0.0,0.0,0.0,0.0,-1.0459,-1.1425,-1.2259,0.0,0.0,0.0,0.0,0.0,0.0,0.0,0.0,0.0,0.0,-1.6972,-1.7105,-1.6616,-1.6531,-1.6731,-1.725,-1.7312,-1.7312,-1.7312,-1.7767,-1.7913,0.0,0.0,0.0,0.0,0.0,0.0,0.0,0.0,0.0,0.0,0.0,0.0,0.0,0.0,0.0,0.0,0.0,0.0,0.0,0.0,0.0,0.0,0.0,0.0,0.0,0.0,0.0,0.8778,0.8778,0.0,0.0,0.0,0.0,0.0,0.0,0.0,0.0,0.0,0.0,0.0,0.6231,0.5733,0.0,0.0,0.0,0.0,0.0,0.0,0.0,0.0,0.0,0.0,0.0,0.0,0.158,0.0374,0.05,0.0403,0.0,0.0,0.0,0.0,0.0,0.0,0.0,0.0,0.0,0.0,0.0,0.0,0.0,0.0,0.0,0.0,0.0,0.0,0.0,0.0,0.0,0.0,0.0,0.0,0.0,0.0,0.0,0.0,0.0,0.0,0.0,0.0,-1.0343,0.0,0.0,0.0,0.0,0.0,0.0,0.0,0.0,0.0,0.0,0.0,-1.6548,-1.5974,-1.6398,-1.6689,-1.6509,-1.6513,-1.6552,0.0,0.0,0.0,0.0,0.0,0.0,0.0,0.0,0.0,0.0,0.0,0.0,0.0,0.0,-2.2409,-2.2672,-2.3187,-2.3486,-2.3076,0.0,0.0,0.0,0.0,0.0,0.0,0.0,0.0,0.0,0.0,0.0,0.0,0.0,0.0,0.8778,0.0,0.8778,0.0,0.0,0.0,0.0,0.0,0.0,0.0,0.0,0.7536,0.6934,0.6199,0.5706,0.5136,0.0,0.4491,0.4491,0.0,0.0,0.0,0.0,0.0,0.0,0.0,0.0,0.2012,0.0826,0.0911,0.0778,0.0389,0.013,0.0,0.0,0.0,0.0,0.0,0.0,0.0179,0.0,0.0,0.0,0.0,0.0,0.0,0.0,0.0,0.0,0.0,0.0,0.0,0.0,0.0,0.0,0.0,0.0,0.0,0.0,0.0,0.0,0.0,0.0,-1.1258,0.0,0.0,0.0,0.0,0.0,0.0,0.0,0.0,0.0,-1.5208,-1.5622,-1.5722,-1.5343,-1.581,-1.6194,-1.6194,0.0,0.0,0.0,0.0,0.0,0.0,0.0,-1.7013,-1.7013,-1.7483,-1.8095,-1.8814,-1.962,-2.0161,-2.0137,0.0,0.0,-2.223,-2.2875,-2.3179,-2.2762,-2.3024,-2.3275,-2.3297,-2.2596,-2.2008,0.0,0.0,0.0,0.0,0.0,0.0,0.0,0.0,0.8778,0.8778,0.0,0.8778,0.0,0.0,0.0,0.0,0.0,0.6993,0.0,0.0,0.6696,0.6231,0.5542,0.5511,0.5136,0.4519,0.4491,0.4491,0.4491,0.4491,0.0,0.0,0.0,0.0,0.0,0.0,0.2241,0.2168,0.1532,0.1168,0.1119,0.042,0.0,0.0,0.0,0.0,0.0,0.0,0.0,0.0,0.0,0.0,0.0,0.0,0.0,0.0,0.0,0.0,0.0,0.0,0.0,0.0,0.0,0.0,0.0,0.0,0.0,0.0,0.0,0.0,0.0,-1.0353,0.0,0.0,0.0,0.0,0.0,0.0,0.0,0.0,0.0,0.0,-1.4548,-1.4698,-1.4709,-1.4721,0.0,0.0,0.0,0.0,-1.6513,-1.6513,-1.6513,-1.6513,-1.6513,-1.6522,-1.65,-1.6522,0.0,0.0,-1.8806,-1.9004,-1.9425,-2.0551,-2.074,-2.0979,-2.1554,-2.2207,-2.2626,-2.2603,-2.2649,-2.2709,-2.2637,-2.186,-2.1297,1.0269,0.0,0.0,0.0,0.0,0.8778,0.8778,0.8778,0.8778,0.8778,0.8778,0.8778,0.0,0.0,0.0,0.0,0.0,0.0,0.7375,0.7396,0.7396,0.6713,0.5511,0.5483,0.5136,0.4519,0.4491,0.4491,0.4491,0.4491,0.4491,0.4491,0.0,0.0,0.0,0.0,0.3138,0.2267,0.2419,0.2327,0.1907,0.1157,0.0522,0.0,0.0,0.0,0.0,0.0,0.0,0.0,0.0,0.0,0.0,0.0,0.0,0.0,0.0,0.0,0.0,0.0,0.0,0.0,0.0,0.0,0.0,0.0,0.0,0.0,0.0,0.0,-1.0133,-0.8791,-0.9222,0.0,0.0,0.0,0.0,0.0,0.0,0.0,0.0,0.0,-1.3406,-1.4177,-1.4709,0.0,0.0,-1.5742,-1.6194,-1.638,-1.6513,-1.6513,-1.6513,0.0,-1.6513,-1.6513,-1.6513,-1.6513,-1.7325,-1.8098,-1.8378,-1.9056,-1.9674,-2.0038,-2.0079,-2.0295,-2.0955,-2.1558,-2.1795,-2.1513,-2.2058,-2.2686,-2.2674,-2.2352,-2.2212,1.0341,1.0543,0.9743,0.9166,0.8804,0.8778,0.8778,0.8778,0.8778,0.8778,0.8778,0.8778,0.8778,0.8778,0.8778,0.0,0.0,0.0,0.7536,0.7268,0.6961,0.6226,0.514,0.5109,0.4893,0.4491,0.4491,0.4491,0.4491,0.4491,0.4491,0.4491,0.0,0.0,0.3871,0.4158,0.3922,0.3157,0.3188,0.3026,0.2643,0.1637,0.0885,0.0461,0.014,0.0,0.0,0.0,0.0,0.0,0.0,0.0,0.0,0.0,0.0,0.0,0.0,0.0,0.0,0.0,0.0,0.0,0.0,-0.4518,-0.4965,0.0,0.0,0.0,-0.8043,-0.864,-0.8305,-0.8371,0.0,0.0,0.0,0.0,0.0,0.0,0.0,-1.2915,-1.2915,-1.2915,-1.2929,-1.3525,-1.4001,-1.3978,-1.4503,-1.5096,-1.57,0.0,-1.5888,-1.6107,-1.6117,-1.6151,-1.6139,-1.6337,-1.6626,-1.7102,-1.7739,-1.838,-1.8807,-1.9397,-1.9786,-1.9798,-1.9798,-1.9927,-2.0346,-2.072,-2.0966,-2.0845,-2.1393,-2.1917,-2.1941,-2.1745,-2.1719,1.0459,1.0129,0.9212,0.8831,0.8778,0.8824,0.8831,0.8778,0.8778,0.8778,0.8778,0.8778,0.8778,0.8778,0.8725,0.0,0.8672,0.7943,0.7208,0.6475,0.5814,0.5164,0.4519,0.4491,0.4491,0.4491,0.4491,0.4491,0.4491,0.4491,0.4491,0.4491,0.4491,0.4491,0.4491,0.4432,0.4408,0.4401,0.3726,0.3342,0.3305,0.1927,0.1168,0.1078,0.0371,0.0,0.0,0.0,0.0,0.0,0.0,0.0,0.0,0.0,0.0,0.0,0.0,0.0,0.0,0.0,0.0,0.0,0.0,0.0,0.0,0.0,0.0,0.0,-0.7765,0.0,-0.5078,-0.8857,0.0,0.0,0.0,-1.2915,-1.2915,-1.2915,-1.2915,-1.2915,0.0,0.0,-1.2915,-1.2915,-1.2915,-1.2915,-1.3443,-1.4014,-1.4606,-1.4744,-1.4892,-1.5477,-1.5521,-1.5543,-1.5654,-1.6129,-1.6801,-1.7666,-1.8103,-1.8442,-1.9258,-1.9648,-1.971,-1.961,-1.9698,-1.9698,-1.9673,-1.9674,-1.9877,-2.0401,-2.0729,-2.0832,-2.0786,-2.045,-2.0586,0.9762,0.9446,0.9193,0.8984,0.8831,0.9018,0.8984,0.8785,0.8778,0.8778,0.8778,0.8778,0.8778,0.8778,0.8209,0.7969,0.7937,0.7208,0.6475,0.576,0.5597,0.514,0.4519,0.4491,0.4491,0.4491,0.4491,0.4491,0.4491,0.4491,0.4491,0.4491,0.4491,0.4491,0.446,0.3873,0.3594,0.3649,0.3427,0.3344,0.3366,0.2417,0.1674,0.1121,0.0391,0.0,0.0,0.0,0.0,0.0,0.0,0.0,0.0,0.0,0.0,0.0,0.0,0.0,0.0,0.0,0.0,0.0,0.0,-0.4708,-0.5246,0.0,-0.702,0.0,-0.8533,-0.8707,-0.853,-1.0318,0.0,0.0,-1.2427,-1.2915,-1.2915,-1.2915,-1.2915,-1.2915,-1.2915,-1.2915,-1.2915,-1.2915,-1.2915,-1.2905,-1.342,-1.4027,-1.4606,-1.4709,-1.4744,-1.4869,-1.4926,-1.5073,-1.5543,-1.6095,-1.6588,-1.6851,-1.7287,-1.77,-1.7951,-1.8681,-1.907,-1.8719,-1.892,-1.8995,-1.8694,-1.8593,-1.8654,-1.8885,-1.985,-2.0664,-2.0276,-2.0377,-2.0804,0.99,0.961,0.9744,0.9579,0.9185,0.9064,0.8931,0.8785,0.8778,0.8778,0.8778,0.8778,0.8778,0.8732,0.8023,0.7728,0.7734,0.696,0.6256,0.5637,0.5553,0.5136,0.4491,0.4491,0.4491,0.4491,0.4491,0.4491,0.4491,0.4491,0.4491,0.4491,0.4491,0.4491,0.4491,0.407,0.3707,0.34,0.301,0.2842,0.2821,0.2115,0.1522,0.1085,0.0387,0.0,0.0,0.0,0.0,0.0,0.0,0.0,0.0,0.0,0.0,0.0,0.0,0.0,0.0,0.0,0.0,0.0,0.0,0.0,0.0,0.0,-0.7203,-0.8672,-0.8778,-0.8962,-0.9309,-1.0192,-1.0922,-1.1316,-1.199,-1.2535,-1.2856,-1.2915,-1.2915,-1.2915,-1.2915,-1.2915,-1.2915,-1.2915,-1.2915,-1.2905,-1.32,-1.3624,-1.412,-1.4061,-1.3978,-1.4236,-1.4306,-1.4618,-1.5454,-1.6117,-1.6588,-1.6873,-1.7184,-1.7473,-1.7714,-1.8242,-1.8555,-1.8281,-1.8431,-1.8544,-1.8243,-1.8204,-1.8204,-1.8327,-1.8945,-1.9455,-1.9281,-1.9459,-1.9748,1.0494,1.0254,1.0539,1.0305,0.9722,0.9192,0.8958,0.8918,0.8918,0.8918,0.8925,0.8918,0.8871,0.8811,0.8129,0.7807,0.7728,0.6901,0.6207,0.5674,0.5464,0.5066,0.4546,0.4529,0.4529,0.4546,0.4501,0.4491,0.4491,0.4491,0.4491,0.4491,0.4491,0.4491,0.4491,0.4491,0.4098,0.3262,0.2482,0.2148,0.2341,0.1535,0.1129,0.1206,0.0439,0.0,0.0,0.0,0.0,0.0,0.0,0.0,0.0,0.0,0.0,0.0,-0.0893,0.0,0.0,0.0,0.0,0.0,0.0,0.0,0.0,-0.6118,-0.7187,-0.854,-0.8752,-0.8778,-0.8778,-0.9413,-1.0064,-1.0737,-1.1383,-1.2104,-1.2798,-1.2915,-1.2915,-1.2915,-1.2915,-1.2915,-1.2915,-1.2915,-1.2915,-1.2905,-1.2929,-1.3128,-1.3539,-1.3286,-1.3176,-1.3624,-1.3826,-1.4434,-1.5398,-1.6095,-1.6651,-1.7124,-1.7234,-1.7451,-1.7827,-1.8003,-1.8066,-1.7978,-1.8016,-1.8066,-1.8016,-1.7953,-1.7953,-1.7879,-1.7976,-1.805,-1.8147,-1.8164,-1.807,1.1096,1.0835,1.0921,1.0575,1.0027,0.9884,0.9733,0.9519,0.9548,0.9519,0.9519,0.9548,0.9357,0.9102,0.8628,0.7937,0.7046,0.6407,0.5677,0.4886,0.4752,0.4692,0.4665,0.4549,0.4556,0.4662,0.4552,0.4491,0.4491,0.4491,0.4491,0.4491,0.4491,0.4491,0.4491,0.0,0.0,0.0,0.1703,0.1924,0.3065,0.1814,0.1393,0.1934,0.0705,0.0,0.0,0.0,0.0,0.0,0.0,0.0,0.0,0.0,0.0,0.0,0.0,0.0,0.0,0.0,0.0,0.0,-0.407,-0.4546,-0.4704,-0.585,-0.6966,-0.7836,-0.8454,-0.8778,-0.8804,-0.9413,-1.0064,-1.0737,-1.1391,-1.2089,-1.2798,-1.2891,-1.2915,-1.2915,-1.2915,-1.2915,-1.2915,-1.2915,-1.2915,-1.2915,-1.2915,-1.2944,-1.3065,-1.3002,-1.2944,-1.3113,-1.3836,-1.4732,-1.5487,-1.6073,-1.6495,-1.6651,-1.6685,-1.6726,-1.6898,-1.7275,-1.7338,-1.7011,-1.7212,-1.7375,-1.6939,-1.6814,-1.6889,-1.6826,-1.6839,-1.6974,-1.7448,-1.7541,-1.7416,1.1309,0.0,1.1176,1.1002,0.0,1.0729,1.0681,1.0508,0.9963,0.9715,0.9686,0.9259,0.8968,0.8763,0.7749,0.7032,0.654,0.58,0.5251,0.4897,0.4758,0.4731,0.4799,0.4724,0.4728,0.4799,0.4728,0.4679,0.4607,0.4604,0.4563,0.4491,0.4491,0.4491,0.446,0.3763,0.2982,0.2204,0.1118,0.0922,0.1646,0.095,0.0727,0.1089,0.0413,0.0,0.0,0.0,0.0,0.0,0.0,0.0,0.0,0.0,0.0,0.0,-0.1025,-0.1647,-0.1703,-0.3093,-0.3932,-0.3959,-0.4294,-0.4625,-0.4979,-0.6312,-0.7289,-0.7664,-0.8374,-0.8778,-0.8804,-0.9106,-0.9562,-1.0244,-1.061,-1.1099,-1.1767,-1.2172,-1.2335,-1.2393,-1.2657,-1.2915,-1.2915,-1.2915,-1.2915,-1.2915,-1.2915,-1.2915,-1.2915,-1.2915,-1.2915,-1.2929,-1.3624,-1.4457,-1.505,-1.5666,-1.6182,-1.6414,-1.6513,-1.6513,-1.6513,-1.6738,-1.6848,-1.6575,-1.6773,-1.6848,-1.66,-1.6513,-1.6513,-1.6513,-1.6513,-1.6563,-1.6911,-1.6961,-1.6886,1.171,1.1622,1.1663,1.1562,1.1469,1.1503,1.1476,1.1356,0.0,0.0,0.0,0.8968,0.8527,0.8362,0.6973,0.63,0.6147,0.5497,0.514,0.509,0.4955,0.4901,0.4921,0.4901,0.4901,0.4924,0.4897,0.4806,0.4697,0.4694,0.4613,0.4501,0.4491,0.4491,0.4405,0.3093,0.2341,0.212,0.0755,0.0056,0.0196,0.0084,0.0084,0.0196,0.0056,0.0,0.0,0.0,0.0,0.0,0.0,0.0,0.0,0.0,0.0,0.0,-0.1396,-0.2204,-0.2232,-0.3622,-0.4491,-0.4491,-0.4491,-0.4732,-0.5296,-0.6659,-0.7509,-0.7503,-0.8289,-0.8778,-0.8778,-0.8778,-0.9061,-0.9718,-0.9795,-1.0115,-1.0889,-1.1441,-1.1898,-1.203,-1.2559,-1.2915,-1.2915,-1.2915,-1.2915,-1.2915,-1.2915,-1.2915,-1.2915,-1.2915,-1.2954,-1.3128,-1.36,-1.4027,-1.4606,-1.5096,-1.5644,-1.6207,-1.6315,-1.638,-1.6479,-1.6513,-1.6513,-1.6525,-1.6513,-1.6513,-1.6513,-1.6513,-1.6513,-1.6513,-1.6513,-1.6513,-1.6513,-1.6513,-1.6525,1.2799,1.2596,1.2596,1.2301,1.181,1.1839,1.1663,1.1362,1.0982,1.0841,1.0763,0.9646,0.9027,0.8724,0.8033,0.7172,0.6218,0.6166,0.5801,0.5121,0.4986,0.4955,0.5063,0.4945,0.4951,0.5052,0.4951,0.484,0.4707,0.4694,0.4641,0.4508,0.4491,0.4491,0.4405,0.3652,0.2871,0.2174,0.0755,0.0308,0.0923,0.0336,0.0308,0.0866,0.0308,0.0,0.0,0.0,0.0,0.0,0.0,0.0,0.0,0.0,0.0,0.0,-0.1396,-0.2204,-0.2232,-0.3622,-0.4491,-0.4491,-0.4491,-0.4543,-0.468,-0.5937,-0.675,-0.6804,-0.8023,-0.8778,-0.8778,-0.8778,-0.9061,-0.9666,-0.9795,-1.0269,-1.1366,-1.1641,-1.1947,-1.251,-1.2822,-1.2881,-1.2905,-1.2915,-1.2915,-1.2915,-1.2915,-1.2915,-1.2915,-1.2915,-1.3128,-1.3529,-1.3732,-1.405,-1.4491,-1.4744,-1.5073,-1.5632,-1.5732,-1.5886,-1.6324,-1.6423,-1.6457,-1.6513,-1.6513,-1.6513,-1.6513,-1.6513,-1.6513,-1.6513,-1.6513,-1.6513,-1.6513,-1.6513,-1.6513,1.3126,1.2999,1.2999,1.2846,1.2585,1.2455,1.2208,1.1884,1.1625,1.1376,1.1048,0.9625,0.8836,0.8644,0.7933,0.6992,0.5903,0.594,0.5727,0.5286,0.5221,0.5192,0.5279,0.5186,0.5225,0.525,0.5192,0.5081,0.4942,0.4928,0.4816,0.4624,0.4532,0.4491,0.4405,0.3345,0.2593,0.2176,0.1146,0.0559,0.0504,0.0168,0.0168,0.0476,0.0168,0.0,0.0,0.0,0.0,0.0,0.0,0.0,0.0,0.0,0.0,0.0,-0.1397,-0.2204,-0.2204,-0.3649,-0.4491,-0.4491,-0.4491,-0.4491,-0.4519,-0.5796,-0.675,-0.7182,-0.8209,-0.8778,-0.8778,-0.8778,-0.891,-0.9211,-0.9263,-0.9517,-1.0072,-1.0542,-1.0998,-1.1667,-1.2098,-1.2452,-1.2856,-1.2915,-1.2915,-1.2915,-1.2915,-1.2915,-1.2915,-1.2915,-1.2992,-1.3248,-1.331,-1.3576,-1.4084,-1.4213,-1.4457,-1.5005,-1.5107,-1.5309,-1.5762,-1.5928,-1.6139,-1.6436,-1.6513,-1.6513,-1.65,-1.6513,-1.6513,-1.6513,-1.6513,-1.6513,-1.6513,-1.6513,-1.6513,1.3367,1.3267,1.3273,1.3273,1.3193,1.2953,1.2717,1.2392,1.1939,1.1683,1.1344,0.9484,0.8483,0.8171,0.7358,0.6471,0.5717,0.5637,0.559,0.5457,0.5446,0.5443,0.5443,0.5416,0.5412,0.5436,0.5416,0.5281,0.5113,0.51,0.4968,0.4745,0.4583,0.4508,0.4514,0.3327,0.2536,0.2204,0.1647,0.0922,0.0,0.0,0.0,0.0,0.0,0.0,0.0,0.0,0.0,0.0,0.0,0.0,0.0,0.0,0.0,0.0,-0.1229,-0.212,-0.2508,-0.3735,-0.4491,-0.4491,-0.4491,-0.4543,-0.4787,-0.5687,-0.6637,-0.7396,-0.8262,-0.8778,-0.8778,-0.8778,-0.8778,-0.8778,-0.8778,-0.8962,-0.9061,-0.9484,-1.0038,-1.0712,-1.1391,-1.2046,-1.2501,-1.2798,-1.2915,-1.2915,-1.2915,-1.2915,-1.2915,-1.2915,-1.2915,-1.2915,-1.2915,-1.3089,-1.3529,-1.36,-1.3849,-1.441,-1.4491,-1.4721,-1.505,-1.5319,-1.5521,-1.591,-1.6042,-1.6086,-1.6216,-1.6281,-1.6324,-1.6423,-1.6513,-1.6513,-1.6513,-1.6513,-1.6513,1.3841,1.358,1.3567,1.3407,1.3227,1.318,1.2993,1.2643,1.1706,1.1658,1.1879,0.9663,0.8155,0.7181,0.6416,0.5979,0.5779,0.5783,0.5705,0.5614,0.5569,0.5603,0.5555,0.5467,0.5467,0.5573,0.5474,0.5308,0.5133,0.5103,0.5022,0.488,0.4634,0.4569,0.4611,0.4363,0.3569,0.2232,0.212,0.1425,0.0,0.0,0.0,0.0,0.0,0.0,0.0,0.0,0.0,0.0,0.0,0.0,0.0,0.0,0.0,0.0,-0.0755,-0.1786,-0.3151,-0.4039,-0.446,-0.4491,-0.4491,-0.4732,-0.5273,-0.5515,-0.5928,-0.6718,-0.799,-0.8699,-0.8778,-0.8778,-0.8778,-0.8778,-0.8778,-0.9035,-0.951,-0.9769,-1.0064,-1.0712,-1.1316,-1.1848,-1.1996,-1.2525,-1.2881,-1.2915,-1.2915,-1.2915,-1.2915,-1.2915,-1.2915,-1.2915,-1.2915,-1.2929,-1.3051,-1.3002,-1.3286,-1.3779,-1.3897,-1.4109,-1.4458,-1.4698,-1.4812,-1.4801,-1.4994,-1.5208,-1.5521,-1.5698,-1.5896,-1.6269,-1.6423,-1.6513,-1.6513,-1.6513,-1.6513,1.4021,1.3908,1.3901,1.3693,1.344,1.3427,1.3293,1.2974,1.2428,1.198,1.1557,1.0576,0.9484,0.8365,0.7401,0.6611,0.5939,0.5935,0.5854,0.5722,0.5715,0.5715,0.5708,0.5654,0.5661,0.5708,0.5647,0.5549,0.5393,0.5191,0.5066,0.4999,0.4833,0.4765,0.4783,0.4262,0.3647,0.3042,0.2479,0.1703,0.0755,0.0224,0.0,0.0,0.0,0.0,0.0,0.0,0.0,0.0,0.0,0.0,0.0,0.0,0.0,0.0,-0.0671,-0.1757,-0.3259,-0.3649,-0.4042,-0.446,-0.4491,-0.4625,-0.4897,-0.5269,-0.5651,-0.6059,-0.731,-0.8156,-0.8182,-0.8533,-0.8778,-0.8778,-0.8778,-0.8903,-0.9159,-0.9211,-0.9458,-1.0141,-1.0788,-1.1358,-1.1823,-1.2452,-1.2856,-1.2915,-1.2915,-1.2856,-1.2905,-1.2915,-1.2915,-1.2915,-1.2915,-1.2915,-1.2915,-1.2915,-1.3041,-1.319,-1.3262,-1.3433,-1.3593,-1.3973,-1.4055,-1.3747,-1.4209,-1.4641,-1.5005,-1.541,-1.572,-1.6017,-1.6358,-1.6513,-1.6513,-1.6513,-1.6513,1.4088,1.4088,1.4088,1.3961,1.3733,1.3726,1.356,1.332,1.3086,1.2557,1.1774,1.1462,1.0845,0.983,0.8533,0.726,0.618,0.6091,0.601,0.5874,0.5828,0.5861,0.5861,0.5817,0.5823,0.585,0.5813,0.5745,0.562,0.5342,0.5213,0.5187,0.5033,0.4908,0.4894,0.4252,0.3842,0.3569,0.2888,0.2112,0.1175,0.0588,0.0196,0.0,0.0,0.0,0.0,0.0,0.0,0.0,0.0,0.0,0.0,0.0,0.0,0.0,-0.07,-0.1647,-0.2899,-0.3259,-0.3735,-0.4377,-0.4491,-0.4491,-0.457,-0.4952,-0.5191,-0.5328,-0.6362,-0.7176,-0.7723,-0.8374,-0.8778,-0.8778,-0.8778,-0.8778,-0.8804,-0.8778,-0.9008,-0.9484,-1.009,-1.0762,-1.1416,-1.194,-1.2255,-1.2486,-1.2559,-1.2715,-1.2856,-1.2915,-1.2915,-1.2915,-1.2915,-1.2915,-1.2915,-1.2915,-1.2915,-1.2915,-1.2954,-1.2953,-1.2911,-1.3324,-1.3532,-1.3381,-1.3914,-1.4238,-1.4388,-1.4846,-1.5376,-1.5666,-1.6064,-1.6479,-1.6513,-1.6513,-1.6513,1.4088,1.4095,1.4088,1.4088,1.4062,1.4055,1.3895,1.358,1.3547,1.336,1.2923,1.2135,1.1678,1.134,0.9236,0.7521,0.6458,0.6279,0.6159,0.603,0.5983,0.5983,0.5973,0.5878,0.5884,0.6003,0.5901,0.5823,0.5779,0.5539,0.5463,0.5535,0.5169,0.4978,0.5066,0.4903,0.4417,0.3754,0.3571,0.2795,0.1375,0.1119,0.0727,0.0,0.0,0.0,0.0,0.0,0.0,0.0,0.0,0.0,0.0,0.0,0.0,0.0,-0.0671,-0.1424,-0.2232,-0.2954,-0.368,-0.4349,-0.4491,-0.4491,-0.4491,-0.457,-0.4625,-0.457,-0.5328,-0.6276,-0.7396,-0.8176,-0.8699,-0.8778,-0.8778,-0.8778,-0.8778,-0.8778,-0.8778,-0.8956,-0.951,-1.0241,-1.0812,-1.0872,-1.1317,-1.1726,-1.1882,-1.2104,-1.2642,-1.2856,-1.2915,-1.2915,-1.2915,-1.2915,-1.2915,-1.2915,-1.2915,-1.2915,-1.2905,-1.2895,-1.2895,-1.2944,-1.2924,-1.2939,-1.3166,-1.342,-1.3718,-1.4167,-1.4698,-1.5253,-1.603,-1.6436,-1.6513,-1.6513,-1.6513,1.4529,1.4362,1.4362,1.4262,1.4088,1.4088,1.4021,1.3908,1.3686,1.3553,1.3419,1.3069,1.2435,1.1622,1.0264,0.8846,0.7497,0.6691,0.623,0.6179,0.6176,0.6176,0.6173,0.6156,0.6118,0.6197,0.6122,0.6044,0.5932,0.5739,0.5667,0.5698,0.5569,0.5471,0.5406,0.5277,0.4998,0.4596,0.4406,0.3785,0.2732,0.2116,0.1452,0.0727,0.0252,0.0,0.0,0.0,0.0,0.0,0.0,0.0,0.0,0.0,0.0,0.0,-0.0252,-0.0922,-0.2035,-0.2454,-0.3204,-0.4322,-0.4491,-0.4491,-0.4491,-0.4491,-0.4491,-0.4598,-0.5081,-0.5814,-0.633,-0.7364,-0.8295,-0.8699,-0.8778,-0.8785,-0.8778,-0.8778,-0.8778,-0.8883,-0.9387,-1.0115,-1.0731,-1.091,-1.0989,-1.1404,-1.1649,-1.19,-1.2187,-1.2559,-1.2856,-1.2915,-1.2915,-1.2915,-1.2915,-1.2915,-1.2915,-1.2915,-1.2905,-1.2905,-1.2905,-1.2905,-1.291,-1.2934,-1.2905,-1.2954,-1.3406,-1.4014,-1.448,-1.5107,-1.592,-1.6207,-1.6513,-1.6293,-1.6349,1.4888,1.4683,1.4663,1.4549,1.4425,1.4412,1.4315,1.4215,1.3973,1.3833,1.3718,1.3361,1.2909,1.2267,1.1042,1.013,0.923,0.7418,0.6443,0.6439,0.6443,0.6443,0.6433,0.6388,0.6395,0.6436,0.6443,0.6322,0.6169,0.602,0.5925,0.5874,0.583,0.5732,0.5593,0.5518,0.5342,0.5131,0.4897,0.4433,0.364,0.2983,0.2143,0.1203,0.0615,0.0224,0.0,0.0,0.0,0.0,0.0,0.0,0.0,0.0,0.0,0.0,0.0,-0.0643,-0.1925,-0.2204,-0.2871,-0.4322,-0.4491,-0.4491,-0.4491,-0.4491,-0.4491,-0.4598,-0.4866,-0.5218,-0.5678,-0.6632,-0.7643,-0.8321,-0.8646,-0.8831,-0.8911,-0.8924,-0.9005,-0.9139,-0.9369,-0.997,-1.0577,-1.0543,-1.0612,-1.092,-1.1179,-1.1336,-1.156,-1.2064,-1.2559,-1.2559,-1.2749,-1.2856,-1.2915,-1.2881,-1.2881,-1.2881,-1.2915,-1.2915,-1.2915,-1.2915,-1.2915,-1.2915,-1.2915,-1.2915,-1.3234,-1.386,-1.4422,-1.5005,-1.532,-1.5611,-1.581,-1.5954,-1.602,1.5022,1.4988,1.5008,1.4988,1.4928,1.4928,1.477,1.4536,1.4509,1.4355,1.4028,1.3009,1.3155,1.3262,1.1446,1.0946,1.0923,0.8209,0.6791,0.6822,0.6706,0.6664,0.6654,0.6532,0.6539,0.6651,0.6685,0.6607,0.6491,0.6361,0.6193,0.6,0.5925,0.581,0.561,0.5596,0.5443,0.5187,0.5086,0.4599,0.3757,0.3582,0.2779,0.1384,0.1098,0.0706,0.0,0.0,0.0,0.0,0.0,0.0,0.0,0.0,0.0,0.0,0.0,0.0,-0.1925,-0.2176,-0.2843,-0.4104,-0.4467,-0.4518,-0.4522,-0.4515,-0.4522,-0.4545,-0.4605,-0.4802,-0.543,-0.6174,-0.6997,-0.7649,-0.8425,-0.8938,-0.9144,-0.9224,-0.9317,-0.9519,-0.9483,-0.9379,-0.9621,-0.9829,-1.001,-1.0306,-1.045,-1.0576,-1.0876,-1.1418,-1.174,-1.1898,-1.2123,-1.2338,-1.2627,-1.2881,-1.2847,-1.2847,-1.2881,-1.2915,-1.2915,-1.2915,-1.2915,-1.2915,-1.2915,-1.2915,-1.2992,-1.3563,-1.3849,-1.4342,-1.4652,-1.5062,-1.5265,-1.5466,-1.5589,1.5324,1.5048,1.5229,1.5144,1.5022,1.5015,1.4948,1.483,1.4823,1.4776,1.4652,1.4317,1.3907,1.3079,1.1704,1.11,1.0976,0.8552,0.7537,0.7711,0.7075,0.6712,0.6698,0.6654,0.6651,0.6695,0.6702,0.6681,0.6634,0.658,0.6488,0.6346,0.6285,0.6129,0.5895,0.5786,0.563,0.545,0.5204,0.492,0.4581,0.4039,0.3193,0.2153,0.1554,0.0868,0.0,0.0,0.0,0.0,0.0,0.0,0.0,0.0,0.0,0.0,0.0,-0.0364,-0.1313,-0.1956,-0.2655,-0.3616,-0.4273,-0.4613,-0.4648,-0.4619,-0.4663,-0.4731,-0.4687,-0.4759,-0.5026,-0.5694,-0.6673,-0.79,-0.8661,-0.9163,-0.9486,-0.9546,-0.9586,-0.9682,-0.9599,-0.9686,-0.986,-0.986,-0.9876,-1.011,-1.0228,-1.0366,-1.0478,-1.0856,-1.1099,-1.1166,-1.1434,-1.166,-1.1792,-1.2049,-1.2212,-1.2501,-1.2715,-1.2881,-1.2915,-1.2915,-1.2915,-1.2915,-1.2915,-1.2929,-1.3017,-1.3214,-1.3529,-1.3849,-1.4306,-1.4629,-1.488,-1.4949,-1.4926,1.5618,1.5317,1.5478,1.5458,1.5291,1.5284,1.5217,1.5176,1.5176,1.5109,1.4932,1.4495,1.4134,1.3438,1.2062,1.1475,1.1361,0.9254,0.8382,0.8513,0.7511,0.6922,0.6875,0.6865,0.6827,0.6761,0.6841,0.6834,0.6787,0.678,0.6709,0.6576,0.6502,0.6352,0.6122,0.5959,0.58,0.5593,0.5366,0.5214,0.5039,0.4572,0.3696,0.2646,0.2197,0.1345,0.0,0.0,0.0,0.0,0.0,0.0,0.0,0.0,0.0,0.0,0.0,-0.0343,-0.1054,-0.1875,-0.2632,-0.3459,-0.4279,-0.4742,-0.4775,-0.4775,-0.483,-0.485,-0.4833,-0.4775,-0.4907,-0.5527,-0.6458,-0.7386,-0.8327,-0.9131,-0.9656,-0.9846,-0.992,-0.9997,-0.9927,-1.0013,-1.014,-1.0167,-1.002,-1.0151,-1.0174,-1.0178,-1.0211,-1.0477,-1.0592,-1.0773,-1.1043,-1.1114,-1.0922,-1.1166,-1.1507,-1.2005,-1.2476,-1.2749,-1.2915,-1.2915,-1.2915,-1.2915,-1.2915,-1.2915,-1.2968,-1.3104,-1.3348,-1.3695,-1.3897,-1.399,-1.4107,-1.3978,-1.4048,1.5771,1.5758,1.5771,1.5798,1.5778,1.5778,1.5631,1.5444,1.5424,1.5291,1.4909,1.417,1.4041,1.4204,1.2549,1.2045,1.2266,1.038,0.9185,0.8924,0.8006,0.7305,0.7183,0.7122,0.7068,0.6991,0.7051,0.7038,0.7021,0.6916,0.6829,0.6742,0.6607,0.6477,0.6298,0.6132,0.5922,0.5757,0.562,0.5417,0.517,0.5108,0.4336,0.2799,0.2944,0.2237,0.0,0.0,0.0,0.0,0.0,0.0,0.0,0.0,0.0,0.0,0.0,0.0,-0.1036,-0.171,-0.2588,-0.3376,-0.4163,-0.487,-0.4864,-0.4928,-0.4952,-0.4989,-0.4921,-0.4928,-0.505,-0.5483,-0.609,-0.6532,-0.7684,-0.8807,-0.9845,-0.9988,-1.0074,-1.0356,-1.0321,-1.0241,-1.0519,-1.0519,-1.0412,-1.0234,-1.0161,-1.0055,-0.9986,-1.0208,-1.0417,-1.0527,-1.0597,-1.0455,-1.0256,-1.0499,-1.0821,-1.1116,-1.1758,-1.2329,-1.2783,-1.2881,-1.2915,-1.2915,-1.2915,-1.2915,-1.2929,-1.3065,-1.3079,-1.32,-1.3296,-1.3286,-1.332,-1.332,-1.3528,1.5658,1.5545,1.5738,1.5825,1.5825,1.5825,1.5792,1.5718,1.5705,1.5651,1.5498,1.5264,1.4703,1.4151,1.3561,1.2814,1.177,1.0489,0.9581,0.9159,0.8237,0.7654,0.7502,0.7475,0.7448,0.74,0.7333,0.735,0.74,0.7142,0.7065,0.6977,0.6858,0.6722,0.6573,0.6332,0.6214,0.6095,0.588,0.5664,0.5498,0.5457,0.4885,0.3775,0.3582,0.27,0.1082,0.0331,0.0,0.0,0.0,0.0,0.0,0.0,0.0,0.0,0.0,0.0,0.0,-0.1074,-0.1878,-0.2741,-0.3672,-0.4342,-0.5011,-0.5042,-0.5131,-0.5189,-0.5155,-0.5046,-0.5091,-0.5357,-0.5855,-0.6593,-0.7394,-0.8374,-0.9247,-0.9554,-0.9781,-1.044,-1.0481,-1.0519,-1.0553,-1.0579,-1.0553,-1.0445,-1.0267,-1.0127,-1.0097,-1.0007,-1.022,-0.9902,-0.982,-0.9687,-0.9674,-0.9881,-1.0105,-1.0244,-1.088,-1.1767,-1.2338,-1.2881,-1.2881,-1.2915,-1.2915,-1.2915,-1.2915,-1.2954,-1.2915,-1.2915,-1.2978,-1.3089,-1.3051,-1.3046,-1.3308,1.5684,1.5591,1.5711,1.5825,1.5825,1.5825,1.5825,1.5825,1.5825,1.5825,1.5825,1.5825,1.5391,1.4704,1.4112,1.3078,1.1682,1.0524,0.9535,0.869,0.8105,0.7784,0.7641,0.7597,0.7597,0.759,0.7512,0.7519,0.7539,0.735,0.7248,0.719,0.6984,0.6888,0.6783,0.6576,0.6416,0.6293,0.6108,0.5901,0.5698,0.5616,0.5027,0.4357,0.4154,0.3516,0.1709,0.0538,0.0,0.0,0.0,0.0,0.0,0.0,0.0,0.0,0.0,0.0,0.0,-0.073,-0.1595,-0.2525,-0.3404,-0.4267,-0.4997,-0.5226,-0.5317,-0.5354,-0.527,-0.5237,-0.524,-0.5347,-0.5646,-0.6067,-0.6601,-0.7409,-0.8587,-0.9096,-0.9492,-0.9977,-1.0364,-1.0586,-1.0586,-1.0586,-1.0586,-1.0559,-1.0459,-1.0354,-1.0318,-1.0144,-0.995,-0.9726,-0.9519,-0.9444,-0.9289,-0.9401,-0.9673,-0.9821,-1.0346,-1.1183,-1.1767,-1.2486,-1.2749,-1.2759,-1.2832,-1.2881,-1.2832,-1.2832,-1.2915,-1.2915,-1.2915,-1.3003,-1.3037,-1.3145,-1.3359,1.5825,1.5825,1.5825,1.5825,1.5825,1.5825,1.5825,1.5825,1.5825,1.5825,1.5825,1.5825,1.573,1.573,1.4704,1.3434,1.2129,1.1297,0.9743,0.8833,0.8149,0.7899,0.7716,0.7702,0.7695,0.7678,0.7641,0.7648,0.7624,0.7482,0.7387,0.7322,0.7105,0.6927,0.6873,0.6787,0.6586,0.6453,0.6344,0.6132,0.5901,0.5759,0.531,0.4723,0.4441,0.376,0.2029,0.0,0.0,0.0,0.0,0.0,0.0,0.0,0.0,0.0,0.0,0.0,0.0,-0.066,-0.1468,-0.2363,-0.3261,-0.4251,-0.4905,-0.5203,-0.5375,-0.5392,-0.5395,-0.5375,-0.5375,-0.5395,-0.5425,-0.5591,-0.5528,-0.621,-0.7442,-0.8581,-0.9204,-0.937,-1.0079,-1.0491,-1.0586,-1.0586,-1.0586,-1.0586,-1.0526,-1.0506,-1.0439,-1.0298,-1.0053,-0.9833,-0.9619,-0.9392,-0.9152,-0.8924,-0.9225,-0.951,-1.0064,-1.072,-1.1124,-1.1742,-1.2289,-1.2495,-1.2353,-1.2403,-1.2584,-1.2642,-1.2827,-1.2974,-1.3013,-1.3184,-1.3379,-1.3516,-1.3675,1.5825,1.5825,1.5825,1.5825,1.5825,1.5825,1.5825,1.5825,1.5825,1.5825,1.5825,1.5825,1.5825,1.5784,1.5391,1.4711,1.3392,1.2759,1.1886,0.9604,0.8382,0.8018,0.7887,0.7874,0.7884,0.7853,0.7811,0.7828,0.7831,0.7594,0.7438,0.7495,0.7278,0.7051,0.7028,0.697,0.6819,0.6746,0.6556,0.6381,0.6201,0.5989,0.5742,0.5276,0.4204,0.3095,0.2049,0.0717,0.0,0.0,0.0,0.0,0.0,0.0,0.0,0.0,0.0,0.0,0.0,0.0,-0.0672,-0.1641,-0.2577,-0.3345,-0.4251,-0.5024,-0.5329,-0.5395,-0.5395,-0.5395,-0.5395,-0.5395,-0.5395,-0.5395,-0.5428,-0.5561,-0.6145,-0.7349,-0.842,-0.9204,-0.9983,-1.0586,-1.0586,-1.0586,-1.0586,-1.0586,-1.0586,-1.0586,-1.0492,-1.0354,-1.0087,-0.98,-0.9531,-0.9284,-0.9112,-0.8871,-0.8969,-0.9185,-0.9658,-1.0012,-1.044,-1.0836,-1.1302,-1.157,-1.1699,-1.1891,-1.228,-1.262,-1.285,-1.2973,-1.3174,-1.3447,-1.3701,-1.3831,-1.4094,1.5825,1.5825,1.5825,1.5825,1.5825,1.5825,1.5825,1.5825,1.5825,1.5825,1.5825,1.5825,1.5825,1.5825,1.573,1.5092,1.3776,1.2517,1.1356,0.9801,0.868,0.8038,0.7988,0.7988,0.7988,0.7975,0.7963,0.7977,0.7929,0.7756,0.7631,0.7675,0.7458,0.7326,0.7255,0.717,0.7058,0.6852,0.6705,0.6508,0.6399,0.6139,0.5919,0.5463,0.4008,0.2711,0.2392,0.0883,0.0,0.0,0.0,0.0,0.0,0.0,0.0,0.0,0.0,0.0,0.0,0.0,-0.037,-0.124,-0.2143,-0.3078,-0.3949,-0.4858,-0.5329,-0.5395,-0.5395,-0.5395,-0.5395,-0.5395,-0.5395,-0.5395,-0.5395,-0.5395,-0.562,-0.6597,-0.773,-0.8581,-0.9396,-1.0072,-1.0396,-1.0428,-1.0593,-1.0561,-1.0586,-1.0566,-1.0307,-1.0174,-0.989,-0.9624,-0.9391,-0.9178,-0.9018,-0.8905,-0.8818,-0.8929,-0.9133,-0.9309,-0.9491,-0.9859,-1.0237,-1.0627,-1.1124,-1.1735,-1.2135,-1.2497,-1.2956,-1.3413,-1.3704,-1.3851,-1.4072,-1.4326,-1.4629,1.5825,1.5825,1.5825,1.5825,1.5825,1.5825,1.5825,1.5825,1.5825,1.5825,1.5825,1.5825,1.5825,1.5825,1.5825,1.514,1.3926,1.2178,1.1161,1.0921,0.9262,0.8627,0.8432,0.8233,0.7988,0.7988,0.7975,0.7985,0.7948,0.7847,0.777,0.7777,0.7662,0.7509,0.7421,0.7394,0.7278,0.7051,0.6881,0.6715,0.6542,0.6285,0.6064,0.5601,0.4354,0.3178,0.2628,0.1341,0.0,0.0,0.0,0.0,0.0,0.0,0.0,0.0,0.0,0.0,0.0,0.0,-0.0337,-0.1106,-0.1909,-0.2811,-0.368,-0.4486,-0.509,-0.5359,-0.5395,-0.5395,-0.5395,-0.5395,-0.5395,-0.5395,-0.5395,-0.5395,-0.5524,-0.6075,-0.6822,-0.7697,-0.8581,-0.9326,-0.9913,-1.0174,-1.0403,-1.0561,-1.0548,-1.0492,-1.0227,-0.9957,-0.971,-0.9524,-0.9276,-0.9196,-0.9078,-0.8931,-0.8851,-0.8864,-0.8924,-0.8931,-0.8971,-0.9313,-0.9785,-1.02,-1.0691,-1.1247,-1.1809,-1.2215,-1.2822,-1.3657,-1.4165,-1.428,-1.4531,-1.4833,-1.5049,1.5825,1.5825,1.5825,1.5825,1.5825,1.5825,1.5825,1.5825,1.5825,1.5825,1.5825,1.5825,1.5825,1.5825,1.5825,1.5635,1.4949,1.3542,1.2904,1.2469,1.0725,0.9509,0.9316,0.8428,0.8038,0.7988,0.7988,0.7988,0.7955,0.7847,0.7848,0.779,0.7692,0.7597,0.7577,0.755,0.7468,0.7248,0.7051,0.6906,0.6773,0.6519,0.6298,0.6076,0.4876,0.3935,0.3023,0.1985,0.0935,0.0,0.0,0.0,0.0,0.0,0.0,0.0,0.0,0.0,0.0,0.0,0.0,-0.0404,-0.1107,-0.1942,-0.2845,-0.378,-0.4652,-0.5226,-0.5395,-0.5395,-0.5395,-0.5395,-0.5395,-0.5395,-0.5395,-0.5395,-0.5425,-0.5653,-0.6042,-0.6854,-0.7702,-0.8517,-0.9102,-0.9626,-0.9817,-1.0009,-1.0153,-1.0203,-1.0094,-0.984,-0.955,-0.9384,-0.921,-0.9183,-0.915,-0.8991,-0.8898,-0.8958,-0.8992,-0.8992,-0.9032,-0.9105,-0.9432,-0.9953,-1.0265,-1.0586,-1.1164,-1.1838,-1.2458,-1.3141,-1.3866,-1.4642,-1.4723,-1.484,-1.5186,1.5825,1.5825,1.5825,1.5825,1.5825,1.5825,1.5825,1.5825,1.5825,1.5825,1.5825,1.5825,1.5825,1.5825,1.5825,1.5825,1.5486,1.4513,1.3926,1.3343,1.1356,1.0002,0.9903,0.8676,0.8134,0.7988,0.7988,0.7988,0.7985,0.7924,0.7874,0.787,0.7803,0.779,0.7723,0.7702,0.758,0.7404,0.7231,0.7038,0.6919,0.6634,0.6487,0.6113,0.5372,0.4459,0.3834,0.2288,0.1421,0.0842,0.0,0.0,0.0,0.0,0.0,0.0,0.0,0.0,0.0,0.0,0.0,0.0,-0.0806,-0.1407,-0.2175,-0.3178,-0.4356,-0.509,-0.5395,-0.5395,-0.5395,-0.5395,-0.5395,-0.5395,-0.5395,-0.5395,-0.5395,-0.5395,-0.5686,-0.6104,-0.6822,-0.7632,-0.8388,-0.8812,-0.9134,-0.9406,-0.9687,-0.9753,-0.9777,-0.9496,-0.9154,-0.9232,-0.9146,-0.9364,-0.9371,-0.9257,-0.9125,-0.9138,-0.9152,-0.9152,-0.9244,-0.9397,-0.9564,-0.9901,-1.0092,-1.0286,-1.0835,-1.1611,-1.2104,-1.2662,-1.3609,-1.439,-1.461,-1.4849,-1.5138,1.5825,1.5791,1.5899,1.5885,1.5791,1.5851,1.5885,1.5838,1.5825,1.5825,1.5825,1.5825,1.5825,1.5825,1.5825,1.5778,1.5683,1.4704,1.4411,1.3974,1.2183,1.0921,1.0435,0.9262,0.8528,0.8627,0.8038,0.7988,0.7988,0.7975,0.7985,0.7968,0.7982,0.7941,0.783,0.7858,0.7675,0.7509,0.7346,0.7149,0.691,0.6719,0.6583,0.6505,0.5577,0.5034,0.4484,0.2965,0.1923,0.1319,0.0,0.0,0.0,0.0,0.0,0.0,0.0,0.0,0.0,0.0,0.0,0.0,0.0,-0.104,-0.1781,-0.2961,-0.4322,-0.497,-0.5406,-0.5423,-0.5405,-0.5395,-0.5395,-0.5395,-0.5395,-0.5395,-0.5395,-0.5395,-0.5395,-0.5782,-0.617,-0.6756,-0.754,-0.7832,-0.8124,-0.8667,-0.892,-0.8848,-0.8834,-0.8771,-0.8638,-0.8931,-0.9119,-0.9489,-0.9606,-0.9633,-0.9506,-0.9466,-0.9466,-0.9437,-0.9604,-0.9761,-0.9917,-0.999,-1.0127,-1.0368,-1.0899,-1.1256,-1.168,-1.2364,-1.3457,-1.399,-1.4013,-1.4428,-1.4902,1.5825,1.5804,1.6112,1.6066,1.5892,1.6099,1.6059,1.5824,1.5852,1.5825,1.5818,1.5825,1.5825,1.5825,1.5825,1.5825,1.573,1.5581,1.5337,1.5045,1.3782,1.3006,1.2909,1.0823,0.9702,0.9266,0.8482,0.8088,0.7988,0.7988,0.7988,0.7988,0.7988,0.7975,0.7938,0.7974,0.7923,0.7777,0.7712,0.7502,0.716,0.69,0.6793,0.6627,0.633,0.5842,0.502,0.3689,0.2679,0.1675,0.0642,0.0,0.0,0.0,0.0,0.0,0.0,0.0,0.0,0.0,0.0,0.0,0.0,0.0,-0.1487,-0.2838,-0.4081,-0.4123,-0.4993,-0.5494,-0.545,-0.5409,-0.5399,-0.5395,-0.5395,-0.5395,-0.5395,-0.5395,-0.5395,-0.5428,-0.5815,-0.617,-0.6728,-0.692,-0.7144,-0.7687,-0.8099,-0.8007,-0.8066,-0.8165,-0.8401,-0.8751,-0.9317,-0.9708,-0.9927,-0.9963,-0.99,-0.9849,-0.982,-0.9784,-0.991,-1.0057,-1.0063,-1.0137,-1.0247,-1.0305,-1.057,-1.0916,-1.1279,-1.1894,-1.2748,-1.308,-1.3205,-1.3791,-1.4446,1.5825,1.5858,1.6146,1.6206,1.6106,1.6226,1.6299,1.6259,1.5924,1.5878,1.6019,1.5885,1.5825,1.5825,1.5825,1.5825,1.5825,1.5825,1.5825,1.5581,1.4609,1.3926,1.3199,1.1361,1.0051,0.9756,0.8775,0.8038,0.7988,0.7988,0.7988,0.7988,0.7988,0.7988,0.7988,0.7988,0.7894,0.7797,0.7641,0.7468,0.7265,0.7061,0.6859,0.6788,0.6685,0.633,0.5743,0.4761,0.3655,0.2579,0.1503,0.0,0.0,0.0,0.0,0.0,0.0,0.0,0.0,0.0,0.0,0.0,0.0,0.0,-0.1369,-0.2529,-0.3725,-0.4109,-0.5099,-0.556,-0.5521,-0.5525,-0.5467,-0.5433,-0.5395,-0.5395,-0.5395,-0.5395,-0.5395,-0.5395,-0.5428,-0.5785,-0.6042,-0.6141,-0.6429,-0.6902,-0.7233,-0.7198,-0.7583,-0.81,-0.8404,-0.8744,-0.9373,-1.0003,-1.0238,-1.0338,-1.0318,-1.0265,-1.0271,-1.0241,-1.0217,-1.0276,-1.027,-1.0334,-1.0452,-1.0445,-1.0416,-1.0595,-1.0958,-1.1431,-1.1951,-1.2212,-1.2529,-1.2983,-1.3771,1.5825,1.5865,1.6226,1.6339,1.6286,1.6353,1.6446,1.6513,1.6046,1.5952,1.6052,1.5925,1.5825,1.5825,1.5825,1.5825,1.5825,1.5825,1.5825,1.5439,1.4949,1.4507,1.3878,1.2183,1.0921,1.044,0.9312,0.8478,0.8088,0.7988,0.7988,0.7988,0.7988,0.7988,0.7988,0.7982,0.7977,0.7833,0.7662,0.7533,0.7448,0.7248,0.7122,0.7014,0.6902,0.6793,0.6569,0.5536,0.4408,0.3729,0.2242,0.1197,0.0,0.0,0.0,0.0,0.0,0.0,0.0,0.0,0.0,0.0,0.0,-0.0279,-0.0846,-0.1948,-0.2949,-0.368,-0.4657,-0.5248,-0.555,-0.5549,-0.5491,-0.5426,-0.5395,-0.5395,-0.5395,-0.5395,-0.5395,-0.5395,-0.5395,-0.5395,-0.5557,-0.5491,-0.5745,-0.6183,-0.6367,-0.6428,-0.6911,-0.7583,-0.7871,-0.8132,-0.9091,-0.9705,-0.9994,-1.0224,-1.039,-1.062,-1.062,-1.0586,-1.0488,-1.0474,-1.0468,-1.0553,-1.0633,-1.0559,-1.0486,-1.0539,-1.0618,-1.108,-1.1471,-1.1613,-1.1915,-1.236,-1.3092,1.5825,1.5824,1.6433,1.6513,1.6306,1.6567,1.654,1.6449,1.6005,1.5865,1.5892,1.5791,1.5825,1.5825,1.5825,1.5825,1.5825,1.5825,1.5825,1.5778,1.5683,1.5486,1.4854,1.3884,1.2764,1.1702,1.0239,0.9019,0.8283,0.8088,0.8038,0.7988,0.7988,0.7988,0.7988,0.7985,0.7982,0.7904,0.7752,0.7736,0.7692,0.757,0.7441,0.7316,0.7187,0.7007,0.6837,0.5849,0.5028,0.4623,0.3147,0.1826,0.1293,0.0662,0.0,0.0,0.0,0.0,0.0,0.0,0.0,0.0,0.0,0.0,0.0,0.0,-0.2079,-0.3008,-0.4015,-0.4814,-0.5253,-0.5518,-0.5508,-0.545,-0.5429,-0.5395,-0.5395,-0.5395,-0.5395,-0.5395,-0.5395,-0.5395,-0.5395,-0.5395,-0.5395,-0.5837,-0.587,-0.5914,-0.6091,-0.6647,-0.6902,-0.738,-0.8521,-0.9183,-0.945,-0.9772,-1.0251,-1.0592,-1.074,-1.0661,-1.0601,-1.0615,-1.0755,-1.076,-1.0795,-1.0707,-1.064,-1.076,-1.0826,-1.0837,-1.1006,-1.133,-1.1479,-1.1753,-1.2548,1.5825,1.5885,1.646,1.664,1.6567,1.6904,1.6914,1.679,1.6313,1.5985,1.5845,1.5825,1.5825,1.5832,1.5825,1.5825,1.5825,1.5825,1.5838,1.5825,1.5825,1.5832,1.5343,1.4669,1.3536,1.2716,1.1165,0.9899,0.9312,0.8528,0.8088,0.7988,0.7988,0.7988,0.7988,0.7988,0.7988,0.7951,0.7853,0.7818,0.7784,0.7678,0.757,0.7512,0.7475,0.7343,0.7162,0.6655,0.5952,0.5157,0.4242,0.3144,0.1966,0.128,0.0675,0.0,0.0,0.0,0.0,0.0,0.0,0.0,0.0,0.0,0.0,0.0,-0.1596,-0.2463,-0.3481,-0.439,-0.4764,-0.5332,-0.563,-0.5552,-0.5481,-0.5443,-0.5426,-0.544,-0.5402,-0.5409,-0.5399,-0.5395,-0.5395,-0.5395,-0.5395,-0.5458,-0.5425,-0.5458,-0.5686,-0.5914,-0.6268,-0.6687,-0.7762,-0.8581,-0.8909,-0.95,-1.0141,-1.0458,-1.0763,-1.077,-1.0705,-1.1029,-1.1129,-1.1096,-1.1015,-1.0969,-1.0969,-1.1035,-1.1014,-1.0889,-1.0975,-1.1185,-1.1256,-1.1357,-1.2177,1.5825,1.5899,1.646,1.6707,1.6747,1.7079,1.7199,1.7112,1.662,1.6299,1.6072,1.5939,1.5892,1.5919,1.5852,1.5832,1.5865,1.5925,1.5959,1.5979,1.5992,1.5965,1.5591,1.5048,1.4316,1.359,1.2328,1.1063,0.9805,0.8973,0.8482,0.8137,0.7988,0.7988,0.7988,0.7988,0.7988,0.7955,0.7901,0.7879,0.7868,0.7801,0.7699,0.7675,0.7634,0.7516,0.735,0.6999,0.6642,0.5961,0.5186,0.4097,0.2921,0.1867,0.1166,0.0,0.0,0.0,0.0,0.0,0.0,0.0,0.0,0.0,0.0,0.0,-0.108,-0.1748,-0.2947,-0.3876,-0.4136,-0.4941,-0.5461,-0.5396,-0.5606,-0.56,-0.5556,-0.5545,-0.547,-0.5423,-0.5433,-0.5463,-0.5395,-0.5395,-0.5399,-0.5399,-0.5395,-0.5395,-0.5491,-0.5719,-0.598,-0.64,-0.6981,-0.7702,-0.8355,-0.8776,-0.9246,-1.0044,-1.0337,-1.0743,-1.0894,-1.1212,-1.1532,-1.1655,-1.156,-1.1357,-1.1242,-1.1256,-1.1049,-1.0827,-1.1075,-1.1424,-1.1572,-1.172,-1.2067,1.5825,1.5899,1.6446,1.6693,1.674,1.7079,1.7213,1.7152,1.6774,1.6613,1.6513,1.6092,1.5992,1.6119,1.5979,1.5879,1.5912,1.6119,1.6233,1.6206,1.6179,1.6226,1.6077,1.565,1.4997,1.4124,1.3247,1.2037,1.0391,0.9801,0.9118,0.8382,0.8187,0.7988,0.7988,0.7988,0.7988,0.7985,0.7971,0.7961,0.7951,0.7974,0.7902,0.7831,0.7732,0.7665,0.7482,0.7316,0.6992,0.6679,0.5956,0.4832,0.3357,0.2423,0.1422,0.0,0.0,0.0,0.0,0.0,0.0,0.0,0.0,0.0,0.0,0.0,0.0,-0.1175,-0.1776,-0.2665,-0.3483,-0.4399,-0.4784,-0.5248,-0.5393,-0.5589,-0.5507,-0.563,-0.56,-0.5542,-0.5559,-0.5566,-0.5463,-0.5399,-0.5402,-0.5402,-0.5395,-0.5395,-0.5428,-0.5524,-0.5752,-0.5947,-0.6371,-0.6911,-0.7508,-0.7864,-0.8389,-0.9258,-0.9982,-1.0398,-1.0842,-1.1194,-1.1575,-1.1978,-1.1943,-1.1665,-1.1495,-1.1395,-1.1323,-1.1323,-1.1538,-1.1792,-1.1911,-1.2047,-1.2299,1.5825,1.5865,1.6259,1.6526,1.676,1.7235,1.7335,1.7132,1.673,1.6526,1.6553,1.6086,1.5992,1.6146,1.6166,1.6012,1.5932,1.6366,1.6513,1.6342,1.6313,1.6273,1.6192,1.5984,1.556,1.5003,1.4411,1.3752,1.2662,1.1135,1.0006,0.9266,0.8333,0.8038,0.7988,0.7988,0.7988,0.7988,0.7985,0.7988,0.7988,0.7985,0.7961,0.7904,0.788,0.7776,0.7641,0.7485,0.7346,0.7193,0.6546,0.5551,0.4028,0.2978,0.202,0.057,0.0,0.0,0.0,0.0,0.0,0.0,0.0,0.0,0.0,0.0,0.0,-0.0588,-0.1089,-0.1851,-0.2349,-0.3099,-0.3692,-0.4517,-0.4882,-0.5215,-0.5354,-0.5613,-0.5728,-0.5674,-0.5702,-0.559,-0.5484,-0.5477,-0.5477,-0.5426,-0.5416,-0.5399,-0.5428,-0.5428,-0.5524,-0.5524,-0.58,-0.6256,-0.6693,-0.7113,-0.7725,-0.86,-0.9463,-1.0153,-1.0592,-1.0946,-1.1439,-1.1794,-1.1886,-1.1928,-1.1824,-1.1737,-1.1824,-1.1933,-1.1986,-1.2053,-1.2111,-1.2171,-1.2268,1.5825,1.5858,1.6146,1.644,1.676,1.7228,1.7367,1.7125,1.6703,1.6587,1.6667,1.6166,1.6066,1.6299,1.6293,1.6112,1.5878,1.654,1.67,1.6473,1.6553,1.6533,1.6386,1.6132,1.5997,1.5678,1.5246,1.4588,1.3927,1.1905,1.0259,0.9133,0.8482,0.8088,0.7988,0.7988,0.7988,0.7988,0.7988,0.7988,0.7988,0.7988,0.7988,0.7978,0.7958,0.7907,0.7776,0.7695,0.756,0.74,0.6995,0.6251,0.4773,0.356,0.2654,0.1202,0.0,0.0,0.0,0.0,0.0,0.0,0.0,0.0,0.0,0.0,0.0,0.0,0.0,-0.1176,-0.1638,-0.2295,-0.2783,-0.3632,-0.4068,-0.4387,-0.4972,-0.52,-0.552,-0.5545,-0.5803,-0.5661,-0.5525,-0.5525,-0.5573,-0.5501,-0.5436,-0.5423,-0.5405,-0.5395,-0.5399,-0.5435,-0.548,-0.5861,-0.6188,-0.6456,-0.7113,-0.7963,-0.8641,-0.9319,-0.9952,-1.0259,-1.0929,-1.157,-1.1782,-1.1966,-1.2028,-1.2044,-1.2028,-1.2055,-1.2118,-1.2198,-1.2291,-1.2358,-1.2405,1.5825,1.5872,1.6146,1.6413,1.6707,1.7052,1.7186,1.7172,1.6827,1.6847,1.7092,1.6172,1.6099,1.6513,1.6386,1.6112,1.6019,1.675,1.6794,1.6787,1.6864,1.678,1.662,1.6366,1.6172,1.6192,1.5976,1.5403,1.4737,1.2815,1.0694,0.8904,0.8287,0.8038,0.7988,0.7988,0.7988,0.7988,0.7988,0.7988,0.7988,0.7988,0.7988,0.7988,0.7978,0.7924,0.7868,0.7767,0.7611,0.7475,0.7318,0.6538,0.5494,0.4291,0.3129,0.1838,0.0621,0.0,0.0,0.0,0.0,0.0,0.0,0.0,0.0,0.0,0.0,0.0,0.0,0.0,-0.1328,-0.16,-0.1908,-0.2486,-0.2989,-0.3534,-0.4213,-0.4651,-0.5012,-0.5333,-0.5821,-0.5868,-0.5745,-0.5698,-0.5667,-0.5559,-0.5532,-0.5508,-0.5477,-0.5402,-0.5405,-0.5419,-0.5484,-0.56,-0.5836,-0.6122,-0.6481,-0.7294,-0.7434,-0.799,-0.8736,-0.9541,-1.0162,-1.0858,-1.1613,-1.1987,-1.2111,-1.2118,-1.2091,-1.2154,-1.2278,-1.2285,-1.2351,-1.2583,-1.2643,1.5825,1.5838,1.5925,1.6126,1.6469,1.6714,1.6998,1.7139,1.6834,1.6767,1.6787,1.6126,1.6072,1.6373,1.6306,1.6099,1.6179,1.6426,1.6687,1.6787,1.684,1.678,1.6633,1.642,1.6186,1.6112,1.6124,1.6101,1.5412,1.3684,1.1622,0.9731,0.8581,0.8237,0.8038,0.7988,0.7988,0.7988,0.7988,0.7988,0.7988,0.7988,0.7988,0.7988,0.7988,0.7941,0.7904,0.7803,0.7702,0.7573,0.7477,0.6756,0.5497,0.4944,0.4179,0.1948,0.0,0.0,0.0,0.0,0.0,0.0,0.0,0.0,0.0,0.0,0.0,0.0,0.0,0.0,0.0,0.0,0.0,-0.1644,-0.2073,-0.2491,-0.3158,-0.3617,-0.4065,-0.5061,-0.5559,-0.5911,-0.5802,-0.5878,-0.5833,-0.5694,-0.5603,-0.5579,-0.5576,-0.5508,-0.5446,-0.546,-0.5579,-0.5677,-0.5769,-0.6019,-0.6247,-0.6525,-0.676,-0.7071,-0.7799,-0.8632,-0.9352,-1.0147,-1.0975,-1.1694,-1.2211,-1.2096,-1.1745,-1.2225,-1.2432,-1.2412,-1.2445,-1.2744,-1.2871,1.6244,1.5825,1.5825,1.5999,1.6342,1.658,1.676,1.6817,1.6607,1.6533,1.6473,1.6032,1.5992,1.6279,1.638,1.6259,1.5925,1.6567,1.6814,1.656,1.6747,1.668,1.6567,1.646,1.6319,1.6206,1.6253,1.6437,1.5838,1.4315,1.2256,1.0015,0.9023,0.8531,0.8134,0.7988,0.7988,0.7988,0.7988,0.7988,0.7988,0.7988,0.7988,0.7988,0.7988,0.7988,0.7982,0.7874,0.7828,0.7689,0.7539,0.7162,0.6065,0.572,0.4253,0.2226,0.0,0.0,0.0,0.0,0.0,0.0,0.0,0.0,0.0,0.0,0.0,0.0,0.0,0.0,0.0,0.0,0.0,-0.0863,-0.1137,-0.141,-0.1916,-0.2423,-0.3394,-0.4523,-0.5195,-0.5648,-0.5862,-0.5948,-0.6003,-0.5871,-0.5766,-0.5708,-0.5684,-0.5644,-0.559,-0.5545,-0.5661,-0.5813,-0.5895,-0.5966,-0.6184,-0.636,-0.6409,-0.6765,-0.7211,-0.7931,-0.887,-0.9626,-1.0378,-1.0944,-1.1397,-1.142,-1.131,-1.1834,-1.2431,-1.2702,-1.2834,-1.3066,-1.312,1.699,1.5967,1.5832,1.5972,1.6259,1.6493,1.6473,1.6253,1.6239,1.6239,1.6179,1.5952,1.5965,1.6192,1.6393,1.6259,1.6146,1.6533,1.671,1.6348,1.6723,1.673,1.65,1.6486,1.6313,1.6359,1.644,1.6486,1.6179,1.4818,1.275,1.035,0.9903,0.9365,0.8627,0.8088,0.7988,0.7988,0.7988,0.7988,0.7988,0.7988,0.7988,0.7988,0.7988,0.7988,0.7988,0.7961,0.7921,0.7821,0.7668,0.7469,0.6911,0.5983,0.4144,0.2887,0.1999,0.1166,0.0515,0.0,0.0,0.0,0.0,0.0,0.0,0.0,0.0,0.0,0.0,0.0,0.0,0.0,0.0,0.0,0.0,0.0,-0.1137,-0.1723,-0.2542,-0.3556,-0.4171,-0.4717,-0.5525,-0.5568,-0.5733,-0.5807,-0.5969,-0.5898,-0.584,-0.5817,-0.5735,-0.5682,-0.5772,-0.5908,-0.5945,-0.6034,-0.6214,-0.6293,-0.63,-0.6335,-0.6718,-0.7514,-0.8456,-0.8988,-0.9442,-0.989,-1.0293,-1.0242,-1.0561,-1.1453,-1.2092,-1.287,-1.32,-1.336,-1.342,1.7552,1.7131,1.6197,1.5831,1.5939,1.6005,1.5964,1.5939,1.5939,1.5945,1.5925,1.5824,1.5818,1.5999,1.6279,1.6179,1.6066,1.6306,1.6415,1.6355,1.6549,1.6556,1.6355,1.6346,1.6226,1.6119,1.6186,1.638,1.6134,1.5017,1.3978,1.2737,1.1502,1.0047,0.9316,0.8676,0.8187,0.8038,0.7988,0.7988,0.7988,0.7988,0.7988,0.7988,0.7988,0.7988,0.7988,0.7982,0.7897,0.7821,0.7678,0.7468,0.7121,0.6047,0.5216,0.4347,0.2875,0.1982,0.1187,0.0569,0.0,0.0,0.0,0.0,0.0,0.0,0.0,0.0,0.0,0.0,0.0,0.0,0.0,0.0,0.0,0.0,0.0,-0.1097,-0.1802,-0.2464,-0.3086,-0.3865,-0.4719,-0.5274,-0.5445,-0.5708,-0.6093,-0.6177,-0.6102,-0.6017,-0.5979,-0.5914,-0.5908,-0.6,-0.6017,-0.6081,-0.6252,-0.63,-0.63,-0.63,-0.63,-0.7022,-0.7821,-0.8008,-0.8351,-0.8856,-0.9077,-0.8883,-0.9414,-1.0498,-1.1758,-1.2597,-1.3274,-1.3556,-1.3599,1.9001,1.8365,1.7171,1.6292,1.5872,1.5825,1.5825,1.5825,1.5825,1.5825,1.5825,1.5825,1.5825,1.5872,1.6132,1.6112,1.5932,1.6152,1.6159,1.6139,1.6192,1.6186,1.6172,1.6192,1.6079,1.5965,1.5999,1.6057,1.606,1.5548,1.4714,1.389,1.2183,1.1116,1.0337,0.9217,0.8531,0.8038,0.8038,0.7988,0.7988,0.7988,0.7988,0.7988,0.7988,0.7988,0.7988,0.7988,0.7944,0.7868,0.7723,0.7512,0.7208,0.6605,0.5944,0.522,0.4148,0.2904,0.2013,0.1252,0.058,0.0,0.0,0.0,0.0,0.0,0.0,0.0,0.0,0.0,0.0,0.0,0.0,0.0,0.0,0.0,0.0,-0.0471,-0.1215,-0.1919,-0.2425,-0.2852,-0.3746,-0.4719,-0.495,-0.526,-0.5696,-0.6247,-0.62,-0.6204,-0.6143,-0.6108,-0.6078,-0.6047,-0.603,-0.6112,-0.6272,-0.63,-0.63,-0.63,-0.6335,-0.6721,-0.718,-0.7525,-0.7737,-0.7863,-0.7961,-0.8032,-0.8482,-0.9534,-1.0963,-1.2326,-1.2956,-1.3552,-1.3721,2.0531,1.9397,1.8365,1.7304,1.6339,1.6109,1.6103,1.6062,1.5872,1.5825,1.5825,1.5825,1.5825,1.5925,1.6112,1.6005,1.6005,1.6166,1.6086,1.5992,1.6092,1.6039,1.6025,1.6052,1.5959,1.5892,1.5885,1.6012,1.6146,1.5698,1.5102,1.4274,1.3542,1.2764,1.1116,0.9948,0.9414,0.8627,0.8283,0.8038,0.7988,0.7988,0.7988,0.7988,0.7988,0.7988,0.7988,0.7988,0.7988,0.7894,0.7784,0.7563,0.739,0.7027,0.6596,0.5861,0.5314,0.4065,0.2995,0.2325,0.1387,0.0,0.0352,0.0,0.0,0.0,0.0,0.0,0.0,0.0,0.0,0.0,0.0,0.0,0.0,0.0,0.0,0.0,0.0,0.0,0.0,0.0,-0.2776,-0.3789,-0.4336,-0.4688,-0.5237,-0.5825,-0.6212,-0.6227,-0.6228,-0.6211,-0.6221,-0.6139,-0.6088,-0.6139,-0.6296,-0.63,-0.63,-0.63,-0.6349,-0.6617,-0.6926,-0.723,-0.7411,-0.7344,-0.7541,-0.7798,-0.8301,-0.8737,-0.9752,-1.116,-1.2469,-1.3104,-1.3656,2.0576,1.9497,1.9214,1.8985,1.8626,1.777,1.7365,1.7131,1.6244,1.5825,1.5825,1.5825,1.5832,1.5798,1.6139,1.6112,1.5912,1.6112,1.6046,1.5864,1.5939,1.5885,1.5879,1.5932,1.5838,1.5804,1.5825,1.5872,1.5992,1.5851,1.5737,1.5337,1.4214,1.3584,1.3054,1.1745,1.0096,0.9361,0.8581,0.8187,0.7988,0.7988,0.7988,0.7988,0.7988,0.7988,0.7988,0.7988,0.7988,0.7934,0.7865,0.7641,0.7478,0.7346,0.6988,0.6602,0.6047,0.527,0.4243,0.3573,0.2683,0.1611,0.1286,0.0,0.0,0.0,0.0,0.0,0.0,0.0,0.0,0.0,0.0,0.0,0.0,0.0,0.0,0.0,0.0,0.0,0.0,0.0,-0.1723,-0.2582,-0.3205,-0.3713,-0.4494,-0.5118,-0.5941,-0.6099,-0.618,-0.63,-0.63,-0.6296,-0.6217,-0.6193,-0.63,-0.63,-0.63,-0.63,-0.6337,-0.6426,-0.6698,-0.6929,-0.6944,-0.6886,-0.7123,-0.7498,-0.7851,-0.8278,-0.8733,-0.9774,-1.1295,-1.2419,-1.2857]}]]